[[{"header":{"parameterUnit":"m.s-1","parameterCategory":1,"la1":30.6,"la2":29.2853,"lo1":-89.7004,"lo2":-87.6739,"dy":0.0162,"dx":0.0183,"nx":112,"ny":82,"refTime":"2023-08-06T12:00:00:Z","depth":0,"parameterNumber":2,"parameterNumberName":"U-component_of_WINDS"},"data":[0.0,0.0,0.0,0.0,0.0,0.0,0.0,0.0,0.0,0.0,0.0,0.0,0.0,0.0,0.0,0.0,0.0,0.0,0.0,0.0,0.0,0.0,0.0,0.0,0.0,0.0,0.0,0.0,0.0,0.0,0.0,0.0,0.0,0.0,0.0,0.0,0.0,0.0,0.0,0.0,0.0,0.0,0.0,0.0,0.0,0.0,0.0,0.0,0.0,0.0,0.0,0.0,0.0,0.0,0.0,0.0,0.0,0.0,0.0,0.0,0.0,0.0,0.0,0.0,0.0,0.0,0.0,0.0,0.0,0.0,0.0,0.0,0.0,0.0,0.0,0.0,0.0,0.0,0.0,0.0,0.0,0.0,0.0,0.0,0.0,0.0,0.0,0.0,0.0,0.0,-2.4222,-2.9098,-3.4706,-3.8159,-3.834,-3.5384,-3.2382,-2.9769,0.0,0.0,0.0,0.0,0.0,0.0,0.0,0.0,0.0,0.0,0.0,0.0,0.0,0.0,0.0,0.0,0.0,0.0,0.0,0.0,0.0,0.0,0.0,0.0,0.0,0.0,0.0,0.0,0.0,0.0,0.0,0.0,0.0,0.0,0.0,0.0,0.0,0.0,0.0,0.0,0.0,0.0,0.0,0.0,0.0,0.0,0.0,0.0,0.0,0.0,0.0,0.0,0.0,0.0,0.0,0.0,0.0,0.0,0.0,0.0,0.0,0.0,0.0,0.0,0.0,0.0,0.0,0.0,0.0,0.0,0.0,0.0,0.0,0.0,0.0,0.0,0.0,0.0,0.0,0.0,0.0,0.0,0.0,0.0,0.0,0.0,0.0,0.0,0.0,0.0,0.0,0.0,0.0,0.0,0.0,0.0,0.0,0.0,0.0,0.0,0.0,0.0,0.0,0.0,-2.6645,-3.2119,-3.5683,-3.7951,-3.8512,-3.4934,-3.1949,-3.0189,0.0,0.0,0.0,0.0,0.0,0.0,0.0,0.0,0.0,0.0,0.0,0.0,0.0,0.0,0.0,0.0,0.0,0.0,0.0,0.0,0.0,0.0,0.0,0.0,0.0,0.0,0.0,0.0,0.0,0.0,0.0,0.0,0.0,0.0,0.0,0.0,0.0,0.0,0.0,0.0,0.0,0.0,0.0,0.0,0.0,0.0,0.0,0.0,0.0,0.0,0.0,0.0,0.0,0.0,0.0,0.0,0.0,0.0,0.0,0.0,0.0,0.0,0.0,0.0,0.0,0.0,0.0,0.0,0.0,0.0,0.0,0.0,0.0,0.0,0.0,0.0,0.0,0.0,0.0,0.0,0.0,0.0,0.0,0.0,0.0,0.0,0.0,0.0,0.0,0.0,0.0,0.0,0.0,0.0,0.0,0.0,0.0,0.0,0.0,0.0,0.0,0.0,0.0,-2.6797,-2.9955,-3.4134,-3.6842,-3.8163,-3.7661,-3.4031,-3.1028,-2.9282,-2.6493,0.0,0.0,0.0,0.0,0.0,0.0,0.0,0.0,0.0,0.0,0.0,0.0,0.0,0.0,0.0,0.0,0.0,0.0,0.0,0.0,0.0,0.0,0.0,0.0,0.0,0.0,0.0,0.0,0.0,0.0,0.0,0.0,0.0,0.0,0.0,0.0,0.0,0.0,0.0,0.0,0.0,0.0,0.0,0.0,0.0,0.0,0.0,0.0,0.0,0.0,0.0,0.0,0.0,0.0,0.0,0.0,0.0,0.0,0.0,0.0,0.0,0.0,0.0,0.0,0.0,0.0,0.0,0.0,0.0,0.0,0.0,0.0,0.0,0.0,0.0,0.0,0.0,0.0,0.0,0.0,0.0,0.0,0.0,0.0,0.0,0.0,0.0,0.0,0.0,0.0,0.0,0.0,0.0,0.0,0.0,0.0,0.0,0.0,0.0,0.0,0.0,0.0,-2.9025,-3.1867,-3.4991,-3.7043,-3.7719,-3.6603,-3.3085,-3.0153,-2.8288,-2.5414,0.0,0.0,0.0,0.0,0.0,0.0,0.0,0.0,0.0,0.0,0.0,0.0,0.0,0.0,0.0,0.0,0.0,0.0,0.0,0.0,0.0,0.0,0.0,0.0,0.0,0.0,0.0,0.0,0.0,0.0,0.0,0.0,0.0,0.0,0.0,0.0,0.0,0.0,0.0,0.0,0.0,0.0,0.0,0.0,0.0,0.0,0.0,0.0,0.0,0.0,0.0,0.0,0.0,0.0,0.0,0.0,0.0,0.0,0.0,0.0,0.0,0.0,0.0,0.0,0.0,0.0,0.0,0.0,0.0,0.0,0.0,0.0,0.0,0.0,0.0,0.0,0.0,0.0,0.0,0.0,0.0,0.0,0.0,0.0,0.0,0.0,0.0,0.0,0.0,0.0,0.0,0.0,0.0,0.0,0.0,0.0,0.0,0.0,0.0,0.0,0.0,0.0,-2.813,-3.0567,-3.4167,-3.5351,-3.5802,-3.5701,-3.2286,-2.9499,-2.7927,-2.5065,0.0,0.0,0.0,0.0,0.0,0.0,0.0,0.0,0.0,0.0,0.0,0.0,0.0,0.0,0.0,0.0,0.0,0.0,0.0,0.0,0.0,0.0,0.0,0.0,0.0,0.0,0.0,0.0,0.0,0.0,0.0,0.0,0.0,0.0,0.0,0.0,0.0,0.0,0.0,0.0,0.0,0.0,0.0,0.0,0.0,0.0,0.0,0.0,0.0,0.0,0.0,0.0,0.0,0.0,0.0,0.0,0.0,0.0,0.0,0.0,0.0,0.0,0.0,0.0,0.0,0.0,0.0,0.0,0.0,0.0,0.0,0.0,0.0,0.0,0.0,0.0,0.0,0.0,0.0,0.0,0.0,0.0,0.0,0.0,0.0,0.0,0.0,0.0,0.0,0.0,0.0,0.0,0.0,0.0,0.0,0.0,0.0,0.0,0.0,0.0,0.0,0.0,-2.945,-3.1819,0.0,-3.6163,-3.596,-3.5013,-3.1968,-2.9262,-2.7232,0.0,0.0,0.0,0.0,0.0,0.0,0.0,0.0,0.0,0.0,0.0,0.0,0.0,0.0,0.0,0.0,0.0,0.0,0.0,0.0,0.0,0.0,0.0,0.0,0.0,0.0,0.0,0.0,0.0,0.0,0.0,0.0,0.0,0.0,0.0,0.0,0.0,0.0,0.0,0.0,0.0,0.0,0.0,0.0,0.0,0.0,0.0,0.0,0.0,0.0,0.0,0.0,0.0,0.0,0.0,0.0,0.0,0.0,0.0,0.0,0.0,0.0,0.0,0.0,0.0,0.0,0.0,0.0,0.0,0.0,0.0,0.0,0.0,0.0,0.0,0.0,0.0,0.0,0.0,0.0,0.0,0.0,0.0,0.0,0.0,0.0,0.0,0.0,0.0,0.0,0.0,0.0,0.0,0.0,0.0,0.0,0.0,0.0,0.0,0.0,0.0,0.0,-2.818,-2.9939,-3.2171,0.0,-3.6084,-3.5441,-3.3952,-3.1089,-2.8518,-2.6488,0.0,0.0,0.0,0.0,0.0,0.0,0.0,0.0,0.0,0.0,0.0,0.0,0.0,0.0,0.0,0.0,0.0,0.0,0.0,0.0,0.0,0.0,0.0,0.0,0.0,0.0,0.0,0.0,0.0,0.0,0.0,0.0,0.0,0.0,0.0,0.0,0.0,0.0,0.0,0.0,0.0,0.0,0.0,0.0,0.0,0.0,0.0,0.0,0.0,0.0,0.0,0.0,0.0,0.0,0.0,0.0,0.0,0.0,0.0,0.0,0.0,0.0,0.0,0.0,0.0,0.0,0.0,0.0,0.0,0.0,0.0,0.0,0.0,0.0,0.0,0.0,0.0,0.0,0.0,0.0,0.0,0.0,0.0,0.0,0.0,0.0,0.0,0.0,0.0,0.0,0.0,0.0,0.0,0.0,0.0,0.0,0.0,0.0,0.0,0.0,0.0,0.0,-2.7418,-2.9142,-3.1258,-3.4201,-3.4506,-3.3897,-3.2429,-2.9533,-2.7181,0.0,0.0,0.0,0.0,0.0,0.0,0.0,0.0,0.0,0.0,0.0,0.0,0.0,0.0,0.0,0.0,0.0,0.0,0.0,0.0,0.0,0.0,0.0,0.0,0.0,0.0,0.0,0.0,0.0,0.0,0.0,0.0,0.0,0.0,0.0,0.0,0.0,0.0,0.0,0.0,0.0,0.0,0.0,0.0,0.0,0.0,0.0,0.0,0.0,0.0,0.0,0.0,0.0,0.0,0.0,0.0,0.0,0.0,0.0,0.0,0.0,0.0,0.0,0.0,0.0,0.0,0.0,0.0,0.0,0.0,0.0,0.0,0.0,0.0,0.0,0.0,0.0,0.0,0.0,0.0,0.0,0.0,0.0,0.0,0.0,0.0,0.0,0.0,0.0,0.0,0.0,0.0,0.0,0.0,0.0,0.0,0.0,0.0,0.0,0.0,0.0,0.0,0.0,-2.8247,-2.9939,-3.2002,-3.4957,-3.481,-3.3897,-3.2429,-2.9533,-2.7181,-2.5694,0.0,0.0,0.0,0.0,0.0,0.0,0.0,0.0,0.0,0.0,0.0,0.0,0.0,0.0,0.0,0.0,0.0,0.0,0.0,0.0,0.0,0.0,0.0,0.0,0.0,0.0,0.0,0.0,0.0,0.0,0.0,0.0,0.0,0.0,0.0,0.0,0.0,0.0,0.0,0.0,0.0,0.0,0.0,0.0,0.0,0.0,0.0,0.0,0.0,0.0,0.0,0.0,0.0,0.0,0.0,0.0,0.0,0.0,0.0,0.0,0.0,0.0,0.0,0.0,0.0,0.0,0.0,0.0,0.0,0.0,0.0,0.0,0.0,0.0,0.0,0.0,0.0,0.0,0.0,0.0,0.0,0.0,0.0,0.0,0.0,0.0,0.0,0.0,0.0,0.0,0.0,0.0,0.0,0.0,0.0,0.0,0.0,0.0,0.0,0.0,0.0,0.0,-2.818,-3.0074,-3.2205,-3.4878,-3.4506,-3.3558,-3.2395,-2.9262,-2.6792,-2.5463,0.0,0.0,0.0,0.0,0.0,0.0,0.0,0.0,0.0,0.0,0.0,0.0,0.0,0.0,0.0,0.0,0.0,0.0,0.0,0.0,0.0,0.0,0.0,0.0,0.0,0.0,0.0,0.0,0.0,0.0,0.0,0.0,0.0,0.0,0.0,0.0,0.0,0.0,0.0,0.0,0.0,0.0,0.0,0.0,0.0,0.0,0.0,0.0,0.0,0.0,0.0,0.0,0.0,0.0,0.0,0.0,0.0,0.0,0.0,0.0,0.0,0.0,0.0,0.0,0.0,0.0,0.0,0.0,0.0,0.0,0.0,0.0,0.0,0.0,0.0,0.0,0.0,0.0,0.0,0.0,0.0,0.0,0.0,0.0,0.0,0.0,0.0,0.0,0.0,0.0,0.0,0.0,0.0,0.0,0.0,0.0,0.0,0.0,0.0,0.0,0.0,0.0,-2.75,-2.9705,-3.1914,-3.4148,-3.3743,-3.2988,-3.2158,-2.8773,-2.6169,-2.4961,0.0,0.0,0.0,0.0,0.0,0.0,0.0,0.0,0.0,0.0,0.0,0.0,0.0,0.0,0.0,0.0,0.0,0.0,0.0,0.0,0.0,0.0,0.0,0.0,0.0,0.0,0.0,0.0,0.0,0.0,0.0,0.0,0.0,0.0,0.0,0.0,0.0,0.0,0.0,0.0,0.0,0.0,0.0,0.0,0.0,0.0,0.0,0.0,0.0,0.0,0.0,0.0,0.0,0.0,0.0,0.0,0.0,0.0,0.0,0.0,-3.3725,0.0,0.0,0.0,0.0,0.0,0.0,0.0,0.0,0.0,0.0,0.0,0.0,0.0,0.0,0.0,0.0,0.0,0.0,0.0,0.0,0.0,0.0,0.0,0.0,0.0,0.0,0.0,0.0,0.0,0.0,0.0,0.0,0.0,0.0,0.0,0.0,0.0,0.0,0.0,0.0,0.0,-2.7528,-2.9,-3.0772,-3.3445,-3.3071,-3.2052,-3.0712,-2.818,-2.5967,-2.4232,-2.2628,0.0,0.0,0.0,0.0,0.0,0.0,0.0,0.0,0.0,0.0,0.0,0.0,0.0,0.0,0.0,0.0,0.0,0.0,0.0,0.0,0.0,0.0,0.0,0.0,0.0,0.0,0.0,0.0,0.0,0.0,0.0,0.0,0.0,0.0,0.0,0.0,0.0,0.0,0.0,0.0,0.0,0.0,0.0,0.0,0.0,0.0,0.0,0.0,0.0,0.0,0.0,0.0,0.0,0.0,0.0,0.0,0.0,0.0,0.0,0.0,-3.5015,0.0,0.0,0.0,0.0,0.0,0.0,0.0,0.0,0.0,0.0,0.0,0.0,0.0,0.0,0.0,0.0,0.0,0.0,0.0,0.0,0.0,0.0,0.0,0.0,0.0,0.0,0.0,0.0,0.0,0.0,0.0,0.0,0.0,0.0,0.0,0.0,0.0,0.0,0.0,0.0,-2.7197,-2.8534,-3.0011,-3.1843,-3.1421,-3.0816,-3.0309,-2.7888,-2.5737,-2.4269,-2.29,0.0,0.0,0.0,0.0,0.0,0.0,0.0,0.0,0.0,0.0,0.0,0.0,0.0,0.0,0.0,0.0,0.0,0.0,0.0,0.0,0.0,0.0,0.0,0.0,0.0,0.0,0.0,0.0,0.0,0.0,0.0,0.0,0.0,0.0,0.0,0.0,0.0,0.0,0.0,0.0,0.0,0.0,0.0,0.0,0.0,0.0,0.0,0.0,0.0,0.0,0.0,0.0,0.0,-4.3031,-4.4045,-4.5331,-4.4959,-4.506,-4.5326,-4.0857,-3.8091,-3.6749,-3.6343,0.0,0.0,0.0,0.0,0.0,0.0,0.0,0.0,0.0,0.0,0.0,0.0,0.0,0.0,0.0,0.0,0.0,0.0,0.0,0.0,0.0,0.0,0.0,0.0,-3.5182,-3.4585,-3.092,0.0,0.0,0.0,0.0,0.0,0.0,0.0,0.0,0.0,0.0,0.0,-2.6672,-2.8042,-2.9286,-3.0233,-2.9754,-2.9512,-2.9922,-2.7432,-2.5435,-2.4376,-2.3138,-2.1842,0.0,0.0,0.0,0.0,0.0,0.0,0.0,0.0,0.0,0.0,0.0,0.0,0.0,0.0,0.0,0.0,0.0,0.0,0.0,0.0,0.0,0.0,0.0,0.0,0.0,0.0,0.0,0.0,0.0,0.0,0.0,0.0,-3.4585,-3.3562,0.0,0.0,0.0,0.0,0.0,0.0,0.0,0.0,0.0,0.0,0.0,0.0,0.0,-4.2848,-4.3701,-4.7043,-4.8132,-4.706,-5.0338,-5.0676,-4.8477,-4.9661,-4.9898,-4.9289,-4.797,0.0,-4.1271,-3.9343,0.0,0.0,0.0,0.0,0.0,0.0,0.0,0.0,0.0,0.0,0.0,0.0,0.0,0.0,0.0,0.0,0.0,0.0,0.0,0.0,0.0,0.0,-3.622,-3.56,-3.5532,-3.543,0.0,-3.3288,-3.1582,-3.0055,-2.8804,0.0,0.0,0.0,0.0,0.0,0.0,0.0,-2.6265,-2.7224,-2.8278,-2.9515,-2.9035,-2.8395,-2.7785,-2.6254,-2.4812,-2.3631,-2.2256,-2.1397,-2.118,-2.0622,0.0,0.0,0.0,0.0,0.0,0.0,0.0,0.0,0.0,0.0,0.0,0.0,0.0,0.0,0.0,0.0,0.0,0.0,0.0,0.0,0.0,0.0,0.0,0.0,0.0,0.0,0.0,0.0,0.0,-3.5047,-3.5736,-3.4278,-3.5714,-3.6214,0.0,0.0,0.0,0.0,0.0,0.0,0.0,0.0,0.0,-4.3944,-4.6075,-4.7733,-4.8917,-5.1386,-5.2503,-5.2301,-5.4363,-5.4668,-5.3416,-5.4059,-5.3957,-5.3247,-5.2909,-5.0913,-4.7665,-4.4181,-4.2016,-4.0663,0.0,0.0,0.0,0.0,-3.8464,-3.8836,-3.9343,-3.9242,-3.8903,-3.9174,0.0,0.0,0.0,0.0,0.0,0.0,0.0,0.0,0.0,0.0,-3.7415,-3.7516,-3.7821,-3.8024,-3.7618,-3.6434,-3.4742,0.0,-3.1407,-3.0427,-2.8755,0.0,0.0,0.0,0.0,-2.643,-2.7372,-2.7469,-2.7875,-2.8895,-2.771,-2.6886,-2.6918,-2.5602,-2.4251,-2.3061,-2.2317,-2.146,-2.0436,-2.0132,-1.9962,0.0,0.0,0.0,0.0,0.0,0.0,0.0,0.0,0.0,0.0,0.0,0.0,0.0,0.0,0.0,0.0,0.0,0.0,0.0,0.0,0.0,0.0,0.0,0.0,0.0,0.0,0.0,0.0,-3.5998,-3.7269,-3.5314,-3.7866,-3.88,0.0,0.0,0.0,0.0,0.0,0.0,-4.2828,-4.4688,-4.6989,-4.9799,-5.1522,-5.3078,-5.46,-5.575,-5.6596,-5.7137,-5.7679,-5.7848,-5.7645,-5.7645,-5.7239,-5.6528,-5.6156,-5.504,-5.3112,-4.8646,-4.5602,-4.3639,-4.2726,-4.2151,-4.1847,-4.2016,-4.2185,-4.2455,-4.3139,-4.3064,-4.2557,-4.2388,-4.1204,-3.9546,-3.8082,0.0,0.0,0.0,0.0,-3.7043,-3.7077,-3.7922,-3.8836,-3.9174,-3.9706,-3.9943,-3.9377,-3.8836,-3.7618,0.0,-3.3795,-3.2713,-3.048,0.0,0.0,0.0,0.0,-2.7955,-2.8381,-2.8045,-2.7942,-2.8539,-2.6811,-2.5794,-2.6303,-2.5028,-2.3773,-2.2753,-2.2574,-2.1717,-2.0025,-1.9959,-1.9887,-1.9708,0.0,0.0,0.0,0.0,0.0,0.0,0.0,0.0,0.0,0.0,0.0,0.0,0.0,0.0,0.0,0.0,0.0,0.0,0.0,0.0,0.0,0.0,0.0,0.0,0.0,0.0,0.0,0.0,0.0,-3.7,-4.0519,0.0,0.0,0.0,0.0,-4.1035,-4.4316,-4.6718,-4.75,-5.0338,-5.2976,-5.5243,-5.7442,-5.9302,-6.0825,-6.0926,-6.0994,-6.1028,-6.1061,-6.0689,-5.9945,-5.9945,-5.9539,-5.8761,-5.7374,-5.6697,-5.6224,-5.1725,-4.8984,-4.7466,-4.6041,-4.5872,-4.6278,-4.4953,-4.4857,-4.5263,-4.3882,-4.3375,-4.3578,-4.5026,-4.3944,-4.1847,-4.0383,-3.9436,0.0,0.0,-3.8768,-4.046,-3.8396,-3.9445,-4.0865,-4.0214,-4.0079,-4.0079,-4.0045,-4.0011,-3.9334,0.0,-3.4878,-3.3355,-3.322,0.0,-3.063,-2.9446,-2.9822,-2.9832,-2.8725,-2.8569,-2.8543,-2.8607,-2.6811,-2.5615,-2.5644,-2.441,-2.3383,-2.2733,-2.2694,-2.2064,-2.0688,-2.0628,-2.0348,-1.9708,-1.9708,0.0,0.0,0.0,0.0,0.0,0.0,0.0,0.0,0.0,0.0,0.0,0.0,0.0,0.0,0.0,0.0,0.0,0.0,0.0,0.0,0.0,0.0,0.0,0.0,0.0,0.0,0.0,0.0,-4.4615,-4.7293,0.0,-4.665,-4.6989,-4.7394,-4.7631,-5.0236,-5.2131,-5.2875,-5.575,-5.7949,-5.9268,-6.0994,-6.2415,-6.3429,-6.2956,-6.2956,-6.3429,-6.2448,-6.1839,-6.1569,-6.1095,-6.0452,-5.9641,-5.866,-5.7949,-5.734,-5.5277,-5.2976,-5.0608,-4.912,-4.8409,-4.8139,-4.7631,-4.7902,-4.8376,-4.7361,-4.7022,-4.6887,-4.5974,-4.4485,-4.2929,-4.2388,-4.1711,-4.1001,-4.0493,-4.1102,-4.1711,-4.0933,-4.0967,-4.1136,-4.0865,-4.0451,-4.0113,-4.0113,-4.0113,-3.9876,-3.9097,-3.7483,-3.5689,-3.3772,-3.2619,-3.1374,-2.9603,-2.9543,-2.9713,-2.9823,-2.9116,-2.8757,-2.9175,-2.744,-2.6063,-2.5644,-2.4754,-2.3819,-2.2763,-2.2703,-2.2104,-2.0748,-2.1126,-2.1036,-2.0348,-2.0348,-2.0348,0.0,0.0,0.0,0.0,0.0,0.0,0.0,0.0,0.0,0.0,0.0,0.0,0.0,0.0,0.0,0.0,0.0,0.0,0.0,0.0,0.0,0.0,0.0,0.0,0.0,0.0,-4.8511,-4.9965,-5.2773,-5.3991,-5.2503,-5.301,-5.345,-5.345,-5.5784,-5.7442,-5.7949,-6.0047,-6.1738,-6.2753,-6.3734,-6.4613,-6.5358,-6.4613,-6.4478,-6.4952,-6.3463,-6.2753,-6.2753,-6.1738,-6.1028,-6.0452,-5.9438,-5.8727,-5.8186,-5.7205,-5.548,-5.3348,-5.2097,-5.115,-5.0507,-5.0202,-5.0405,-5.071,-4.9695,-4.9221,-4.8714,-4.7022,-4.5742,-4.4863,-4.4621,-4.4045,-4.3403,-4.3159,-4.3091,-4.2895,-4.2117,-4.1948,-4.1745,-4.1001,-4.0629,-4.0417,-4.0146,-4.0113,-4.0113,-4.0113,-3.9106,-3.7667,-3.5695,-3.4735,-3.3698,-3.2081,-3.1614,-3.1481,-3.1566,-3.0388,-2.9594,-2.9621,-2.8004,-2.6572,-2.5674,-2.5173,-2.4298,-2.2793,-2.3122,-2.2652,-2.1096,-2.1665,-2.1724,-2.1066,-2.1036,-2.1036,-2.1036,0.0,0.0,0.0,0.0,0.0,0.0,0.0,0.0,0.0,0.0,0.0,0.0,0.0,0.0,0.0,0.0,0.0,0.0,0.0,0.0,0.0,0.0,0.0,-4.3809,-4.8815,-5.2637,-5.2739,-5.6562,-5.8084,-5.5209,-5.8186,-5.9674,-5.822,-6.0892,-6.255,-6.2482,-6.3226,-6.4275,-6.5662,-6.5696,-6.6068,-6.6812,-6.6068,-6.5696,-6.5696,-6.4241,-6.3565,-6.3531,-6.2042,-6.1366,-6.1298,-5.9742,-5.9066,-5.893,-5.7476,-5.6427,-5.5649,-5.4871,-5.416,-5.3416,-5.2638,-5.2334,-5.2097,-5.0642,-4.9661,-4.8917,-4.8142,-4.7906,-4.777,-4.7056,-4.6312,-4.5568,-4.4852,-4.4649,-4.4141,-4.188,-4.2354,-4.2861,-4.0688,-4.0696,-4.1001,-4.0282,-4.0113,-4.0113,-4.0113,-3.9512,-3.898,-3.898,-3.8348,-3.759,-3.6835,-3.6076,0.0,-3.3793,-3.2387,-3.1002,-2.9771,-2.8453,-2.7106,-2.5764,-2.5644,-2.4807,-2.2853,-2.3909,-2.3708,-2.1814,-2.2373,-2.2403,-2.1724,-2.1724,-2.1724,-2.1724,0.0,0.0,0.0,0.0,0.0,0.0,0.0,0.0,0.0,0.0,0.0,0.0,0.0,0.0,0.0,0.0,0.0,0.0,0.0,0.0,0.0,0.0,-5.0101,-4.9898,-5.3619,-5.7408,-6.0114,-6.2009,-6.2956,-6.2651,-6.3565,-6.3971,-6.3565,-6.529,-6.5899,-6.485,-6.6,-6.6373,-6.5696,-6.6203,-6.6609,-6.6812,-6.6068,-6.5967,-6.6474,-6.5019,-6.458,-6.5053,-6.3565,-6.2922,-6.2821,-6.1332,-6.0351,-5.9708,-5.8795,-5.734,-5.5649,-5.4871,-5.416,-5.3484,-5.3247,-5.2807,-5.2164,-5.1217,-5.0405,-4.9661,-4.8951,-4.8342,-4.7838,-4.7665,-4.709,-4.6346,-4.5602,-4.5399,-4.5128,-4.3944,-4.3538,-4.3132,-4.1948,-4.1441,-4.1001,-4.0282,-4.0113,-4.0113,-4.0113,-3.9469,-3.8771,-3.8325,-3.761,-3.6502,-3.48,-3.387,0.0,-3.2186,-3.1353,-3.0642,-3.0283,-2.9532,-2.8334,-2.6482,-2.6333,-2.5465,-2.346,-2.367,-2.343,-2.2463,-2.3011,-2.3041,-2.2433,-2.2433,-2.2433,0.0,0.0,0.0,0.0,0.0,0.0,0.0,0.0,0.0,0.0,0.0,0.0,0.0,0.0,0.0,0.0,0.0,0.0,0.0,0.0,0.0,0.0,-5.2334,-5.5784,-5.7645,-5.9505,-6.1873,-6.4986,-6.6034,-6.6643,-6.7083,-6.7387,-6.7455,-6.7151,-6.8199,-6.8335,-6.7184,-6.7624,-6.7658,-6.7151,-6.6914,-6.6948,-6.7252,-6.6542,-6.6373,-6.6779,-6.5324,-6.4816,-6.5189,-6.37,-6.3057,-6.299,-6.1806,-6.1028,-6.052,-5.9438,-5.8084,0.0,0.0,0.0,0.0,0.0,-5.2976,-5.2232,-5.1826,-5.1183,-5.0439,-4.9695,-4.9187,-4.8781,-4.8477,-4.7868,-4.7158,-4.6752,-4.6177,-4.5534,-4.4818,-4.4248,-4.3639,-4.2557,-4.2219,-4.1914,-4.117,-4.079,-4.045,-4.0158,-3.9435,0.0,-3.803,-3.7519,-3.6713,-3.5208,-3.4315,-3.3482,-3.254,-3.1799,-3.112,-3.0552,-2.9953,-2.8903,-2.7165,-2.6752,0.0,0.0,0.0,-2.3729,-2.3122,-2.34,0.0,0.0,0.0,-2.3092,-2.3092,0.0,0.0,0.0,-2.2503,-2.2368,0.0,0.0,0.0,0.0,0.0,0.0,0.0,0.0,0.0,0.0,0.0,0.0,0.0,0.0,0.0,0.0,-5.7712,-6.1231,-6.5493,-6.5595,-6.5933,-6.7793,-6.8741,-6.9214,-6.9214,-6.9891,-7.006,-6.9417,-6.9958,-6.9992,-6.9248,0.0,0.0,0.0,0.0,-6.7252,-6.7895,-6.7184,-6.6812,-6.6779,-6.5493,-6.485,-6.4816,-6.3396,-6.2719,-6.2584,-6.1873,-6.14,-6.1061,-5.9708,-5.8558,-5.7509,-5.6122,-5.4735,-5.3518,-5.3518,-5.3044,-5.2435,-5.2334,0.0,0.0,-5.0473,-5.0202,-5.0067,-4.9357,-4.868,-4.8108,-4.7939,-4.6989,-4.5771,-4.5055,-4.4784,-4.4378,-4.2895,-4.2997,-4.32,-4.2455,-4.1779,-4.1088,-4.0364,-3.9528,-3.8678,-3.7937,-3.7735,-3.7451,-3.6773,-3.599,-3.5024,-3.372,-3.2938,-3.2018,-3.0761,0.0,0.0,-2.7824,-2.7106,-2.6123,-2.4814,-2.4724,-2.4365,-2.364,-2.367,-2.3699,-2.3699,-2.3699,-2.3759,-2.3819,-2.3819,-2.3819,-2.3819,-2.367,-2.3275,0.0,0.0,0.0,0.0,0.0,0.0,0.0,0.0,0.0,0.0,0.0,0.0,0.0,0.0,0.0,-5.7543,-6.167,-6.5358,-6.8064,-6.8842,-6.9045,-6.8876,-6.9519,-6.9992,-6.9992,-7.0669,-7.1041,-7.0906,-7.1007,-7.077,-7.0026,-6.9823,-6.9553,-6.9113,-6.8199,-6.776,-6.7895,-6.7184,-6.6812,-6.6812,0.0,0.0,-6.6339,-6.5459,-6.4749,-6.414,-6.3396,-6.2042,-6.0317,-6.0013,-5.8389,-5.6055,-5.5141,-5.4262,-5.3518,-5.3518,-5.3416,-5.3179,-5.2536,-5.2198,-5.1961,-5.1251,-5.1014,-5.0845,-5.0101,-4.9796,0.0,-4.824,-4.7669,-4.7327,-4.6549,-4.594,-4.5263,-4.4378,-4.3775,-4.32,-4.2455,-4.2185,-4.1888,-4.1148,-3.9841,-3.8666,-3.7947,-3.7263,-3.6625,-3.5907,-3.5187,-3.4211,-3.2884,-3.2586,-3.2168,-3.1391,-3.0731,-2.9804,-2.8517,-2.7794,-2.6811,-2.5495,-2.5412,-2.4866,-2.364,-2.4126,-2.4425,-2.4425,-2.4425,-2.4664,-2.5226,-2.5226,-2.5226,-2.5196,-2.4118,-2.3275,0.0,0.0,0.0,0.0,0.0,0.0,0.0,0.0,0.0,0.0,0.0,-4.9796,0.0,0.0,-5.9167,-6.2854,-6.5662,-6.8064,-6.9958,-7.0534,-7.0601,-7.0263,-7.0534,-7.0737,-7.0737,-7.1075,-7.1312,-7.1312,-7.1312,-7.1142,-7.077,-7.0398,-7.0195,-7.0195,-6.8707,-6.8098,-6.8504,-6.7387,-6.6812,-6.6812,-6.644,-6.6237,-6.6203,-6.5087,-6.441,-6.4005,-6.2888,-6.1772,-6.0655,-5.9877,-5.8254,-5.619,-5.5446,-5.4465,-5.3518,-5.3518,-5.3518,-5.345,-5.3044,-5.2909,-5.2773,-5.1995,-5.1758,-5.1555,-5.0439,-5.0101,-4.9864,-4.8781,-4.8176,-4.7804,-4.7462,-4.6819,-4.6143,-4.5771,-4.5094,-4.4451,-4.4079,-4.3403,-4.2618,-4.1887,-4.0522,-3.913,-3.7953,-3.7123,-3.623,-3.5217,-3.4724,-3.4144,-3.3125,-3.3006,-3.2736,-3.2079,-3.1391,-3.0492,-2.9205,-2.7859,-2.6662,-2.5674,-2.5615,-2.5315,-2.4627,-2.4903,-2.5083,-2.5083,-2.5083,-2.5262,-2.5615,-2.5615,-2.5615,-2.5561,-2.4926,-2.4439,0.0,0.0,0.0,0.0,0.0,0.0,0.0,0.0,-4.8545,-5.0913,-5.3044,-5.5581,-5.9235,-6.1366,-6.3869,-6.7726,-6.9011,-6.9992,-7.1345,-7.1413,-7.1312,-7.1312,-7.1312,-7.1312,-7.1312,-7.1312,-7.1312,-7.1312,-7.1312,-7.1312,-7.1312,-7.0737,-7.0703,-7.1312,-6.9248,-6.8504,-6.9316,-6.7658,-6.688,-6.7015,-6.6271,-6.5899,-6.5865,-6.4546,-6.3869,-6.3632,-6.2009,-6.1231,-6.096,-5.9573,-5.8051,-5.6528,-5.5953,-5.4803,-5.3518,-5.3518,-5.3518,-5.3518,-5.3518,-5.3518,-5.3382,-5.2739,-5.2536,-5.2266,-5.0744,-5.0304,-5.0135,-4.9255,-4.8578,-4.8108,-4.8108,-4.7564,-4.7022,-4.7022,-4.6447,-4.5872,-4.5737,-4.4722,-4.3519,-4.2502,-4.1087,-3.9563,-3.7966,-3.694,-3.6013,-3.4868,-3.4713,-3.4442,-3.3784,-3.3694,-3.3395,-3.2587,-3.1899,-3.0972,-2.9711,-2.7979,-2.6692,-2.6033,-2.6004,-2.5884,-2.5615,-2.5734,-2.5794,-2.5794,-2.5794,-2.5854,-2.6004,-2.6004,-2.6004,-2.6004,-2.6004,-2.5854,-4.4095,-4.4211,-4.5038,-4.7585,-4.7864,-4.939,0.0,0.0,-5.6393,-5.9336,-6.1163,-6.2415,-6.2922,-6.529,-6.776,-6.962,-7.0567,-7.1345,-7.2157,-7.1718,-7.1312,-7.1312,-7.1312,-7.1312,-7.1312,-7.1312,-7.1312,-7.1312,-7.1312,-7.1312,-7.1312,-7.1244,-7.121,-7.1312,-6.9789,-6.9316,-7.006,-6.7895,-6.7151,-6.776,-6.7049,-6.6677,-6.6643,-6.5831,-6.5087,-6.4377,-6.2212,-6.0892,-6.0182,-5.9336,-5.771,-5.5818,-5.5715,-5.4803,-5.3518,-5.3518,-5.3518,-5.3518,-5.3518,-5.3518,-5.3484,-5.3416,-5.3382,-5.3078,-5.1555,-5.1082,-5.0811,-4.939,-4.8951,-4.8883,-4.8883,-4.8342,-4.78,-4.78,-4.7225,-4.6481,-4.5838,-4.5568,-4.4798,-4.2642,-4.1043,-3.9519,-3.7872,-3.6496,-3.5557,-3.54,-3.54,-3.513,-3.4474,-3.4384,-3.3873,-3.2647,-3.1899,-3.0972,-2.9711,-2.8846,-2.8098,-2.7435,-2.7375,-2.6836,-2.5644,-2.6183,-2.6482,-2.6482,-2.6482,-2.6776,-2.7375,-2.7375,-2.7375,-2.7375,-2.7375,-2.6746,-4.8165,0.0,0.0,0.0,-5.4329,-5.7002,-5.9539,-6.0757,-6.1806,-6.3497,-6.573,-6.7387,-6.7387,-6.9113,-7.0601,0.0,-7.1109,-7.1413,-7.1718,-7.1109,-7.0161,-6.8842,-6.9079,-6.9857,-7.1176,-7.0534,-7.0195,-7.0635,-7.0669,-7.0466,-7.006,-7.0432,-7.0669,-7.0669,-6.918,-6.8774,-6.9553,-6.7726,-6.6948,-6.7252,-6.6948,-6.6812,-6.6779,-6.5595,-6.4174,-6.2618,-6.1704,-6.0622,-5.9438,-5.9133,-5.7949,-5.6325,-5.5886,-5.5074,-5.4093,-5.3653,-5.3518,-5.3518,-5.3518,-5.3518,-5.3518,-5.3518,-5.3518,-5.3281,-5.2198,-5.1555,-5.098,-4.9932,-4.9323,-4.9018,-4.9018,-4.8781,-4.8545,-4.8545,-4.8003,-4.7361,-4.7056,-4.6312,-4.5269,-4.3767,-4.2291,-4.0651,-3.859,-3.7399,-3.6462,-3.5614,-3.5519,-3.54,-3.513,-3.507,-3.4562,-3.3215,-3.2138,-3.1122,-3.0193,-2.9535,-2.8903,-2.8218,-2.8158,-2.7739,-2.6806,-2.7046,-2.7195,-2.7195,-2.7195,-2.7315,-2.7585,-2.7585,-2.7585,-2.7585,-2.7585,-2.7315,-5.0608,0.0,0.0,-5.6461,-6.0486,-6.3768,-6.3294,-6.4884,-6.6677,-6.7387,-6.8944,-7.0195,-7.0195,-7.0906,-7.1447,-7.1345,-7.1142,-7.1142,-7.1548,-7.0432,-6.8876,-6.7015,-6.6542,-6.7117,-6.8977,-6.8741,-6.8774,-6.9485,-6.9553,-6.9417,-6.9113,-6.9789,-7.0195,-7.0195,-6.9113,-6.8808,-6.9383,-6.7861,-6.7117,-6.7117,-6.6914,-6.6812,-6.6779,-6.529,-6.3497,-6.1603,-6.14,-6.0554,-5.9302,-5.9099,-5.8017,-5.6461,-5.5919,-5.5141,-5.4228,-5.3687,-5.3518,-5.3518,-5.3518,-5.3518,-5.3518,-5.3518,-5.3518,-5.3348,-5.2536,-5.1792,-5.1048,-5.0304,-4.956,-4.9018,-4.9018,-4.9018,-4.9018,-4.9018,-4.8612,-4.8142,-4.7939,-4.6921,-4.5614,-4.4284,-4.2888,-4.1198,-3.8984,-3.7887,-3.6957,-3.5917,-3.5609,-3.5519,-3.5519,-3.534,-3.4861,-3.3873,-3.2587,-3.157,-3.1091,-3.0313,-2.9624,-2.9146,-2.8786,-2.8368,-2.7914,-2.7705,-2.7585,-2.7585,-2.7585,-2.7585,-2.7585,-2.7585,-2.7585,-2.7585,-2.7585,-2.7585,0.0,0.0,-5.7712,-6.2144,-6.5493,-6.8301,-7.0466,-7.1041,-7.1312,-7.2056,-7.1109,-7.0195,-7.0195,-6.9654,-6.9654,-7.1075,-7.0703,-7.0737,-7.2157,-6.9823,-6.7692,-6.6914,-6.4275,-6.2888,0.0,-6.5662,-6.7184,-6.7895,-6.7963,-6.8301,-6.9079,-6.9789,-7.0195,-7.0195,-7.0128,-7.0128,-7.0161,-6.8639,-6.7861,-6.7861,-6.7151,-6.6812,-6.6779,-6.529,-6.3768,-6.2313,-6.1603,-6.0825,-6.0013,-5.9302,-5.7712,-5.5715,-5.5716,-5.4837,-5.3551,-5.3518,-5.3518,-5.3518,-5.3518,-5.3518,-5.3518,-5.3518,-5.3518,-5.3348,-5.2536,-5.1792,-5.1048,-5.0304,-4.956,-4.9018,-4.9018,-4.9018,-4.9018,-4.9018,-4.8984,-4.8781,-4.8041,-4.7293,-4.6036,-4.3622,-4.1981,-4.0451,-3.8715,-3.7383,-3.651,-3.648,-3.5908,-3.5519,-3.5519,-3.4921,-3.4503,-3.4474,-3.3275,-3.2437,-3.2467,-3.124,-3.0462,-3.0432,-2.9295,-2.8577,-2.8577,-2.7944,-2.7585,-2.7585,-2.7585,-2.7585,-2.7585,-2.7585,-2.7585,-2.7585,-2.7585,-2.7585,0.0,0.0,-6.3666,-6.7692,-7.0906,-7.3409,-7.4728,-7.4221,-7.3138,-7.1921,-6.9282,-6.6745,-6.529,-6.4816,-6.5121,-6.6609,-6.7895,-6.9383,-7.1413,-7.0364,-6.803,-6.4309,-6.3869,0.0,0.0,0.0,0.0,-6.5595,-6.617,-6.6779,-6.7523,-6.8774,-6.9688,-7.0161,-6.9722,-6.9451,-6.9451,-6.8436,-6.7421,-6.6406,-6.5696,-6.5087,-6.4613,-6.4106,-6.3091,-6.167,-6.14,-6.0588,-5.937,-5.9133,-5.7983,-5.6393,-5.5919,-5.5108,-5.416,-5.3687,-5.3518,-5.3518,-5.3518,-5.3518,-5.3518,-5.3518,-5.3518,-5.345,-5.3179,-5.257,-5.1792,-5.1048,-5.0304,-4.9627,-4.912,-4.9018,-4.9018,-4.9018,-4.9018,-4.8951,-4.868,-4.8071,-4.6806,-4.4301,-4.3072,-4.1526,-3.8862,-3.8033,-3.7464,-3.6626,-3.5938,-3.5519,-3.5519,-3.531,-3.4981,-3.4563,-3.4114,-3.3455,-3.2587,-3.2108,-3.145,-3.0552,-3.0103,-2.9475,-2.8637,-2.8368,-2.8064,-2.7615,-2.7585,-2.7585,-2.7585,-2.7585,-2.7585,-2.7585,-2.7585,-2.7585,0.0,-6.414,-6.8436,-7.3274,-7.5912,-7.7299,-7.7299,-7.5912,-7.368,-7.0398,-6.6711,-6.3429,-6.1197,-5.9911,-5.9945,-6.2245,-6.3802,-6.5899,-6.9248,-6.8605,-6.6745,-6.3903,-6.3497,0.0,0.0,0.0,0.0,-6.3666,-6.4986,-6.6,-6.6779,-6.8504,-6.9688,-7.0161,-6.9992,-6.9755,-6.9485,-6.8707,-6.7421,-6.5662,-6.4952,-6.4072,-6.3125,-6.3125,-6.2279,-6.0858,-6.0588,-5.9945,-5.8964,-5.8457,-5.7509,-5.6325,-5.5615,-5.4871,-5.416,-5.3687,-5.3518,-5.3518,-5.3518,-5.3518,-5.3518,-5.3518,-5.3518,-5.3518,-5.3518,-5.2942,-5.2198,-5.1725,-5.1048,-5.0304,-4.9593,-4.939,-4.9323,-4.9052,-4.9018,-4.9018,-4.9018,-4.8443,-4.7337,-4.544,-4.4008,-4.2387,-4.0017,-3.8727,-3.7674,-3.6656,-3.5938,-3.5519,-3.5519,-3.5519,-3.534,-3.4891,-3.4653,-3.4174,-3.3275,-3.2796,-3.2138,-3.127,-3.0552,-2.9894,-2.9295,-2.8607,-2.8128,-2.7974,-2.7735,-2.7585,-2.7585,-2.7854,-2.7824,-2.7615,-2.7854,-2.7824,-6.5053,-6.8808,-7.2191,-7.8686,-8.0242,-7.9769,-7.8382,-7.6082,-7.28,-6.7658,-6.3497,-6.008,0.0,0.0,-5.4566,-5.8287,-5.9133,-6.1129,-6.6305,-6.5222,-6.4377,0.0,0.0,0.0,0.0,0.0,0.0,-6.2381,0.0,-6.6,-6.6812,-6.8977,-7.0195,-7.0263,-7.0939,-7.0939,-7.0128,-6.9282,-6.7793,-6.5628,-6.4816,-6.37,-6.2347,-6.2279,-6.1467,-6.0013,-5.9302,-5.8998,-5.8829,-5.7408,-5.6393,-5.5683,-5.4905,-5.416,-5.3551,-5.3518,-5.3518,-5.3518,-5.3518,-5.3518,-5.3518,-5.3518,-5.3518,-5.3518,-5.3518,-5.2976,-5.2367,-5.23,-5.1826,-5.1116,-5.0338,-5.0135,-4.9965,-4.9289,-4.9086,-4.9052,-4.9052,-4.8477,-4.7692,-4.6711,-4.4594,-4.2706,-4.1887,-3.9321,-3.7255,-3.6626,-3.5968,-3.5549,-3.5519,-3.5519,-3.5519,-3.5519,-3.4921,-3.4533,-3.4503,-3.3305,-3.2557,-3.2527,-3.0731,-2.9924,-3.0492,-2.8723,-2.8034,-2.8637,-2.8034,-2.7675,-2.7645,-2.8278,-2.8278,-2.7675,-2.8278,-2.8248,-6.8605,-7.3443,-7.7638,-8.1021,-8.0615,-7.9295,-7.8923,-7.4052,-6.8436,-6.4343,-5.8321,-5.2942,0.0,0.0,0.0,-5.6664,-6.0622,0.0,-6.9519,-6.9688,0.0,0.0,0.0,-6.5053,-6.211,-6.2821,0.0,0.0,-6.4546,-6.5696,-6.7523,-6.9248,-7.0432,-7.1007,-7.121,-7.0703,-6.9383,-6.6948,-6.5459,-6.485,-6.3024,-6.1941,-6.1569,-6.096,-6.0182,-5.9268,-5.9099,-5.8693,-5.8118,-5.7171,-5.6697,-5.6393,-5.5108,-5.4465,-5.4262,-5.3687,-5.3518,-5.3518,-5.3518,-5.3518,-5.3518,-5.3518,-5.3518,-5.3518,-5.3518,-5.3382,-5.3078,-5.2469,-5.2164,-5.186,-5.1116,-5.0913,-5.0879,-5.071,-5.0236,-4.983,-4.983,-4.9255,-4.8109,-4.5959,-4.3172,-4.103,-4.0807,-3.9288,-3.7913,-3.7285,-3.6626,-3.6058,-3.5579,-3.5519,-3.5519,-3.5519,-3.534,-3.504,-3.4563,-3.3724,-3.3036,-3.2527,-3.157,-3.0853,-3.0522,-3.0013,-2.9624,-2.9352,-2.9172,-2.8843,-2.8338,-2.8517,-2.8517,-2.8338,-2.8517,-2.8517,-7.324,-7.757,-8.0919,-8.2509,-8.0987,-7.8348,-7.5405,-7.0195,-6.4275,-5.822,-5.2875,0.0,0.0,0.0,0.0,0.0,0.0,0.0,-6.7658,-6.8944,-6.9079,0.0,-6.8368,0.0,-6.4613,-6.5358,-6.5899,0.0,-6.5865,-6.6745,-6.8335,-6.9857,-7.0872,-7.1312,-7.1312,-7.0601,-6.9113,-6.644,-6.5087,-6.5053,-6.2516,-6.1298,-6.1264,-6.0148,-5.9201,-5.8524,0.0,-5.8287,-5.7814,-5.6765,-5.6325,-5.619,-5.4702,-5.4126,-5.4059,-5.3653,-5.3518,-5.3518,-5.3518,-5.3518,-5.3518,-5.3518,-5.3518,-5.3518,-5.3518,-5.3518,-5.3416,-5.2942,-5.2841,-5.2672,-5.1894,-5.1691,-5.1623,-5.1285,-5.0879,-5.0473,-5.0168,-4.9763,-4.8616,-4.5787,-4.3145,-4.1249,-4.0501,-3.929,-3.8153,-3.7494,-3.6896,-3.6237,-3.5579,-3.5519,-3.5519,-3.5519,-3.5519,-3.534,-3.4951,-3.4322,-3.3634,-3.2976,-3.2019,-3.1331,-3.0943,-3.0402,-3.0073,-2.9983,-2.9714,-2.9412,-2.9026,-2.9295,-2.9295,-2.9056,-2.9295,-2.9295,-7.7841,-8.0953,-8.2678,-8.3219,-8.0919,-7.6826,-7.0297,-6.5358,-5.9776,-5.1251,0.0,0.0,-4.3234,0.0,-4.5094,-4.9796,0.0,-5.8152,-6.4343,-6.6305,-6.7929,-7.0094,-6.9789,-6.8842,-6.7387,-6.7827,-6.7929,-6.732,-6.7861,-6.8504,-6.9214,-7.0567,-7.1312,-7.1312,-7.1109,-7.0364,-6.8944,-6.6677,-6.5493,-6.5358,-6.2516,-6.1129,-6.1095,-5.9573,-5.8524,-5.7881,-5.7881,-5.7881,-5.778,-5.6325,-5.5681,-5.5581,-5.4093,-5.3518,-5.3518,-5.3518,-5.3518,-5.3518,-5.3518,-5.3518,-5.3518,-5.3518,-5.3518,-5.3518,-5.3518,-5.3518,-5.3518,-5.3518,-5.3518,-5.3348,-5.2638,-5.2469,-5.23,-5.1691,-5.142,-5.1183,-5.0541,-5.0043,-4.8859,-4.5913,-4.3874,-4.2186,-4.0755,-3.9409,-3.8272,-3.7524,-3.6956,-3.6357,-3.5609,-3.5519,-3.5519,-3.5519,-3.5519,-3.5519,-3.5519,-3.4891,-3.4234,-3.3544,-3.2318,-3.16,-3.1511,-3.0432,-3.0103,-3.0642,-3.0103,-2.9804,-2.9741,-3.0253,-3.0223,-2.9714,-3.0253,-3.0223,-7.9769,-8.2069,-8.3186,-8.2712,-7.8957,-7.395,-6.847,-6.0994,0.0,0.0,0.0,-4.1677,-4.0054,-4.2286,0.0,-5.1995,0.0,0.0,0.0,0.0,-6.9316,0.0,0.0,0.0,0.0,0.0,0.0,0.0,0.0,-6.9857,-6.9992,-7.0838,-7.1312,-7.1312,-7.0128,-6.9045,-6.8132,-6.5899,-6.4478,-6.3869,-6.1467,-6.0317,-6.025,-5.8761,-5.8017,-5.7881,-5.7881,0.0,-5.778,-5.6325,-5.5681,-5.5581,-5.4093,-5.3518,-5.3518,-5.3518,-5.3518,-5.3518,-5.3518,-5.3518,-5.3518,-5.3518,-5.3518,-5.3518,-5.3518,-5.3518,-5.3518,-5.3518,-5.3518,-5.3484,-5.3348,-5.3281,-5.3281,-5.3145,-5.2604,-5.2063,-5.1961,-4.9756,-4.7467,-4.6279,-4.3645,-4.155,-4.1272,-4.0098,-3.8811,-3.7584,-3.7315,-3.6836,-3.5669,-3.5519,-3.5519,-3.5519,-3.5519,-3.5519,-3.5519,-3.4891,-3.4234,-3.3544,-3.2766,-3.2079,-3.154,-3.1301,-3.1212,-3.1331,-3.1212,-3.0883,-3.0342,-3.0462,-3.0462,-3.0342,-3.0462,-3.0432,-8.0276,-8.2374,-8.3152,-8.1629,-7.7333,-7.1481,-6.3903,0.0,0.0,0.0,0.0,-3.9715,-3.8633,0.0,0.0,0.0,0.0,0.0,0.0,0.0,0.0,0.0,0.0,0.0,0.0,0.0,0.0,0.0,0.0,-7.077,-7.077,-7.1109,-7.1142,-7.0737,-6.9688,-6.8538,-6.7354,-6.5527,-6.441,-6.4038,-6.1366,-6.0317,-6.0655,-5.8761,-5.7881,-5.7881,-5.7881,0.0,-5.778,-5.6325,-5.5953,-5.6156,-5.4634,-5.4296,-5.46,-5.4194,-5.4059,-5.4025,-5.3619,-5.3518,-5.3518,-5.3518,-5.3518,-5.3518,-5.3518,-5.3518,-5.3518,-5.3518,-5.3518,-5.3518,-5.3518,-5.3518,-5.3518,-5.3518,-5.2875,-5.2198,-5.1826,-4.9383,-4.7073,-4.6337,-4.3592,-4.1422,-4.1422,-4.0277,-3.896,-3.7614,-3.7404,-3.6956,-3.5669,-3.5519,-3.5519,-3.5519,-3.5519,-3.5519,-3.5519,-3.519,-3.4711,-3.4053,-3.3694,-3.3095,-3.2049,-3.2019,-3.1869,-3.1511,-3.1511,-3.1331,-3.1002,-3.1002,-3.1002,-3.1002,-3.1002,-3.1002,-7.987,-8.2002,-8.2712,-8.031,-7.554,-6.9011,-5.9776,-5.2672,0.0,0.0,0.0,-3.8328,-3.7787,0.0,0.0,0.0,0.0,0.0,0.0,0.0,0.0,0.0,0.0,0.0,0.0,0.0,0.0,0.0,0.0,0.0,-7.1312,-7.1142,-7.0737,-6.9992,-6.9079,-6.7861,-6.6339,-6.5019,-6.4208,-6.3869,-6.1332,-6.0351,-6.0757,-5.8795,-5.7881,-5.7881,-5.7881,0.0,0.0,-5.6494,-5.6292,-5.6664,-5.5344,-5.5209,-5.5615,-5.4871,-5.4702,-5.4735,-5.3991,-5.3754,-5.3754,-5.3754,-5.3619,-5.3518,-5.3518,-5.3518,-5.3518,-5.3518,-5.3518,-5.3518,-5.3518,-5.3518,-5.3518,-5.3518,-5.301,-5.2367,-5.1623,-4.9383,-4.7333,-4.6593,-4.3809,-4.1572,-4.1414,-4.0397,-3.917,-3.7823,-3.7614,-3.7165,-3.5878,-3.5699,-3.5669,-3.5519,-3.5519,-3.5519,-3.5519,-3.5519,-3.522,-3.4563,-3.4503,-3.3933,-3.2766,-3.2587,-3.2318,-3.1929,-3.166,-3.157,-3.172,-3.157,-3.1511,-3.1511,-3.1511,-3.1511,-7.8653,-8.0885,-8.1832,-7.8923,-7.3206,-6.6305,-5.866,0.0,0.0,0.0,-3.7449,-3.6998,-3.6931,-3.8261,0.0,0.0,0.0,0.0,0.0,0.0,0.0,0.0,0.0,0.0,0.0,0.0,0.0,0.0,0.0,0.0,-7.1312,-7.0669,-6.9958,-6.9214,-6.7793,-6.6305,-6.4816,-6.4005,-6.2956,-6.1603,-6.0588,-5.981,-5.9201,-5.8287,-5.7881,-5.7881,-5.7881,0.0,0.0,-5.7036,-5.6731,-5.6731,-5.5919,-5.5649,-5.5615,-5.4871,-5.5006,-5.5513,-5.4735,-5.4499,-5.4499,-5.4499,-5.4059,-5.3518,-5.3518,-5.3518,-5.3518,-5.3518,-5.3518,-5.3518,-5.3518,-5.3518,-5.3518,-5.3518,-5.345,-5.3179,-5.2367,-5.0142,-4.8075,-4.7333,-4.4558,-4.2111,-4.1512,-4.0786,-3.9858,-3.8512,-3.8302,-3.7853,-3.6567,-3.6387,-3.6178,-3.5579,-3.5519,-3.5519,-3.5519,-3.5519,-3.522,-3.4563,-3.4503,-3.4174,-3.3425,-3.2826,-3.2766,-3.3305,-3.2108,-3.1809,-3.2407,-3.1809,-3.1511,-3.1511,-3.1511,-3.1511,-7.4492,-7.7367,-7.8585,-7.6487,-7.0906,-6.4072,-5.707,0.0,0.0,0.0,-3.7313,-3.666,-3.6163,-3.7313,-3.8836,0.0,0.0,0.0,0.0,0.0,0.0,0.0,0.0,0.0,0.0,0.0,0.0,0.0,0.0,0.0,-7.1312,-7.0195,-6.918,-6.8402,-6.6914,-6.5425,-6.3971,-6.3666,-6.2787,-6.1298,-6.0486,-5.9945,-5.9641,-5.8423,-5.8118,-5.8558,-5.8084,0.0,0.0,-5.7103,-5.707,-5.7374,-5.6664,-5.663,-5.6934,-5.619,-5.6122,-5.6258,-5.5513,-5.4972,-5.46,-5.46,-5.4093,-5.3518,-5.3518,-5.3518,-5.3518,-5.3518,-5.3518,-5.3518,-5.3518,-5.3518,-5.3518,-5.3518,-5.3518,-5.3281,-5.2469,-5.0689,-4.8887,-4.7569,-4.5102,-4.3142,-4.2866,-4.1503,-4.0287,-3.9895,-3.9022,-3.8063,-3.7165,-3.6716,-3.6387,-3.6118,-3.5729,-3.5519,-3.5519,-3.5519,-3.54,-3.513,-3.51,-3.4801,-3.4113,-3.3844,-3.3455,-3.2916,-3.2348,-3.2019,-3.1899,-3.163,-3.1511,-3.1511,-3.1511,-3.1511,-6.9485,-7.3003,-7.4897,-7.3375,-6.7929,-6.1298,0.0,0.0,0.0,-3.8227,-3.6975,-3.6265,-3.5701,-3.6705,-3.7652,0.0,0.0,0.0,0.0,0.0,0.0,0.0,0.0,0.0,0.0,0.0,0.0,0.0,0.0,0.0,0.0,-6.9553,-6.8402,-6.759,-6.5933,-6.4343,-6.2888,-6.2618,-6.1873,-6.0622,-6.0047,-5.9674,-5.9404,-5.8355,-5.8186,-5.866,-5.8118,0.0,0.0,-5.734,-5.7408,-5.7848,-5.734,-5.7442,-5.7814,-5.707,-5.6934,-5.7002,-5.6055,-5.5378,-5.4871,-5.4668,-5.4093,-5.3518,-5.3518,-5.3518,-5.3518,-5.3518,-5.3518,-5.3518,-5.3518,-5.3518,-5.3518,-5.3518,-5.3518,-5.3348,-5.2773,-5.1328,-4.9707,-4.8288,-4.6303,-4.4596,-4.393,-4.2475,-4.1261,-4.0743,-3.9728,-3.8661,-3.7823,-3.7315,-3.6896,-3.6537,-3.6058,-3.5729,-3.5519,-3.5519,-3.5519,-3.5519,-3.5519,-3.528,-3.4833,-3.4623,-3.4143,-3.3425,-3.2826,-3.2377,-3.2079,-3.1899,-3.1809,-3.1809,-3.1809,-3.169,-6.3869,-6.7963,-7.1007,-6.9519,-6.4072,-5.7712,0.0,0.0,0.0,0.0,-3.6163,-3.56,-3.56,-3.6265,-3.7066,0.0,0.0,0.0,0.0,0.0,0.0,0.0,0.0,0.0,0.0,0.0,0.0,0.0,0.0,0.0,0.0,-6.8741,-6.7557,-6.6846,-6.4681,-6.2821,-6.1332,-6.052,-5.9776,-5.9032,-5.9032,-5.8626,-5.7915,-5.7881,-5.7881,0.0,0.0,0.0,0.0,-5.7881,-5.7881,-5.7881,-5.7881,-5.7881,-5.7814,-5.707,-5.7273,-5.7679,-5.6224,-5.5681,-5.5581,-5.4837,-5.4093,-5.3518,-5.3518,-5.3518,-5.3518,-5.3518,-5.3518,-5.3518,-5.3518,-5.3518,-5.3518,-5.3518,-5.3518,-5.3518,-5.3484,-5.2131,-5.0676,-4.9913,-4.8426,-4.653,-4.4195,-4.3764,-4.3002,-4.0761,-4.0397,-3.9888,-3.8542,-3.8362,-3.7883,-3.6626,-3.6477,-3.6207,-3.5579,-3.5519,-3.5519,-3.5519,-3.5519,-3.5519,-3.5489,-3.4831,-3.4801,-3.5459,-3.3484,-3.2826,-3.3484,-3.2826,-3.2497,-3.2497,-3.2497,-3.2138,-5.531,-5.8017,-5.9641,-5.8693,-5.5277,-5.1217,-4.753,0.0,0.0,0.0,0.0,-3.56,-3.56,-3.5825,-3.6569,-3.8362,0.0,0.0,0.0,0.0,0.0,0.0,0.0,0.0,0.0,0.0,0.0,0.0,0.0,0.0,0.0,-6.847,-6.732,-6.6068,-6.441,-6.3024,-6.2042,-6.1806,-6.1028,-5.9742,-5.9742,-5.937,-5.8626,-5.8118,-5.8186,0.0,0.0,0.0,0.0,-5.734,-5.7442,-5.7848,-5.734,-5.7442,-5.7848,-5.7645,-5.7679,-5.7814,-5.7374,-5.6562,-5.5647,-5.5446,-5.4532,-5.3518,-5.3518,-5.3518,-5.3518,-5.3518,-5.3518,-5.3518,-5.3518,-5.3518,-5.3518,-5.3518,-5.3518,-5.3518,-5.3518,-5.264,-5.1463,-5.0051,-4.8948,-4.7887,-4.6603,-4.4946,-4.363,-4.3082,-4.152,-4.0098,-3.92,-3.8691,-3.8242,-3.7823,-3.7015,-3.6207,-3.5579,-3.5519,-3.5519,-3.5519,-3.5519,-3.5519,-3.5519,-3.531,-3.507,-3.4801,-3.4173,-3.3754,-3.3484,-3.3275,-3.3185,-3.3185,-3.3185,-3.3066,0.0,-5.0913,-5.2367,-5.1928,-4.956,0.0,0.0,0.0,0.0,0.0,0.0,0.0,0.0,0.0,0.0,0.0,0.0,0.0,0.0,0.0,0.0,0.0,0.0,0.0,0.0,0.0,0.0,0.0,0.0,0.0,0.0,-6.7895,-6.6812,-6.5324,-6.414,-6.3159,-6.2381,-6.1806,-6.0892,-5.9674,-5.9674,-5.9302,-5.8592,-5.8084,-5.8152,0.0,0.0,0.0,0.0,-5.7103,-5.707,-5.7408,-5.6664,-5.6833,-5.7476,-5.7476,-5.7476,-5.7476,-5.7476,-5.6697,-5.5683,-5.5378,-5.4499,-5.3518,-5.3518,-5.3518,-5.3518,-5.3518,-5.3518,-5.3518,-5.3518,-5.3518,-5.3518,-5.3518,-5.3518,-5.3518,-5.3518,-5.3112,-5.2337,-5.0994,-5.0359,-4.9591,-4.8121,-4.6362,-4.484,-4.397,-4.2297,-4.0816,-3.9918,-3.9409,-3.896,-3.8452,-3.7674,-3.6956,-3.6267,-3.5789,-3.5519,-3.5519,-3.5519,-3.5519,-3.5519,-3.5519,-3.531,-3.4891,-3.4653,-3.4294,-3.3873,-3.3873,-3.3873,-3.3873,-3.4143,-3.3993,0.0,0.0,0.0,0.0,0.0,0.0,0.0,0.0,0.0,0.0,0.0,0.0,0.0,0.0,0.0,0.0,0.0,0.0,0.0,0.0,0.0,0.0,0.0,0.0,0.0,0.0,0.0,0.0,0.0,0.0,0.0,-6.7049,-6.6034,-6.4647,-6.3903,-6.3159,-6.2381,-6.0926,-5.981,-5.9099,-5.9032,-5.8626,-5.7881,-5.7881,-5.7881,0.0,0.0,0.0,0.0,-5.6968,-5.6664,-5.6664,-5.5919,-5.6122,-5.6799,-5.6799,-5.6833,-5.6867,-5.6833,-5.6325,-5.5581,-5.4769,-5.4059,-5.3518,-5.3518,-5.3518,-5.3518,-5.3518,-5.3518,-5.3518,-5.3518,-5.3518,-5.3518,-5.3518,-5.3518,-5.3518,-5.3518,-5.3518,-5.3281,-5.2469,-5.23,-5.1463,-4.8853,-4.7886,-4.656,-4.3853,-4.2938,-4.2068,-4.0636,-4.0457,-3.9978,-3.8661,-3.8482,-3.8182,-3.7524,-3.6357,-3.5639,-3.5579,-3.5579,-3.5549,-3.5519,-3.5519,-3.5519,-3.5519,-3.4891,-3.4563,-3.4563,-3.4563,-3.4563,-3.4593,-3.522,-3.4831,-3.5453,0.0,-3.7753,0.0,0.0,0.0,0.0,0.0,0.0,0.0,0.0,0.0,0.0,0.0,0.0,0.0,0.0,0.0,0.0,0.0,0.0,0.0,0.0,0.0,0.0,0.0,0.0,0.0,0.0,0.0,0.0,-6.5527,-6.4952,-6.4613,-6.3903,-6.3159,-6.2381,-6.1467,-6.0622,-5.9844,-5.9268,-5.8626,-5.7881,-5.7881,-5.7881,0.0,0.0,0.0,-5.6968,-5.5649,-5.5446,-5.5919,-5.5141,-5.5649,-5.6799,-5.6799,-5.7171,-5.7543,-5.7002,-5.6325,-5.5513,-5.4194,-5.3653,-5.3518,-5.3518,-5.3518,-5.3518,-5.3518,-5.3518,-5.3518,-5.3518,-5.3518,-5.3518,-5.3518,-5.3518,-5.3518,-5.3518,-5.3518,-5.3281,-5.2469,-5.23,-5.1665,-4.9705,-4.927,-4.8117,-4.4929,-4.4356,-4.3547,-4.1438,-4.1145,-4.0846,-4.0008,-3.9469,-3.8901,-3.8212,-3.7434,-3.6776,-3.6297,-3.6237,-3.6028,-3.5519,-3.5519,-3.5519,-3.5519,-3.534,-3.525,-3.525,-3.525,-3.525,-3.528,-3.5429,-3.534,-3.2273,-3.366,-3.4912,-3.4484,-3.4709,-3.4912,0.0,0.0,0.0,0.0,0.0,0.0,0.0,0.0,0.0,0.0,0.0,0.0,0.0,0.0,0.0,0.0,0.0,0.0,0.0,0.0,0.0,0.0,0.0,0.0,0.0,-6.4005,-6.3429,-6.3091,-6.2347,-6.2076,-6.2381,-6.167,-6.0723,-5.9607,-5.9201,-5.8626,-5.7881,-5.7543,-5.7408,0.0,0.0,0.0,-5.6224,-5.5074,-5.4837,-5.5141,-5.4397,-5.5006,-5.6292,-5.6292,-5.6562,-5.6867,-5.6833,-5.6089,-5.5074,-5.4262,-5.3788,-5.3518,-5.3518,-5.3518,-5.3518,-5.3518,-5.3518,-5.3518,-5.3518,-5.3518,-5.3518,-5.3518,-5.3518,-5.3518,-5.3518,-5.3518,-5.3382,-5.2942,-5.2841,-5.2371,-5.0975,-5.0507,-4.9251,-4.6209,-4.5539,-4.4517,-4.2174,-4.1871,-4.1602,-4.0905,-4.0277,-3.9709,-3.9349,-3.8721,-3.7913,-3.6956,-3.6656,-3.6327,-3.5968,-3.5669,-3.5519,-3.5519,-3.5519,-3.5519,-3.5519,-3.5519,-3.5519,-3.5519,-3.5519,-3.5519,-3.1461,-3.3525,-3.5532,-3.516,-3.5261,-3.5397,0.0,0.0,0.0,0.0,0.0,0.0,0.0,0.0,0.0,0.0,0.0,0.0,0.0,0.0,0.0,0.0,0.0,0.0,0.0,0.0,0.0,0.0,0.0,0.0,0.0,-6.2516,-6.1772,-6.1129,-6.0452,-6.0655,-6.1873,-6.1264,-6.0283,-5.9032,-5.8896,-5.8457,-5.7712,-5.707,-5.6731,-5.6596,0.0,0.0,-5.548,-5.4735,-5.4431,-5.4363,-5.3754,-5.4329,-5.5547,-5.5547,-5.5615,-5.5749,-5.6292,-5.5581,-5.4431,-5.4431,-5.4025,-5.3518,-5.3518,-5.3518,-5.3518,-5.3518,-5.3518,-5.3518,-5.3518,-5.3518,-5.3518,-5.3518,-5.3518,-5.3518,-5.3518,-5.3518,-5.3518,-5.3518,-5.3518,-5.3144,-5.2065,-5.143,-5.0203,-4.7666,-4.6555,-4.5295,-4.3218,-4.2707,-4.2291,-4.1632,-4.1025,-4.0606,-4.0427,-3.9888,-3.9014,-3.7793,-3.7135,-3.6686,-3.6507,-3.5848,-3.5519,-3.5519,-3.5519,-3.5519,-3.5519,-3.5519,-3.5519,-3.5519,-3.5519,-3.5519,-3.2713,-3.4281,-3.516,-3.3254,-3.3749,-3.4506,0.0,0.0,0.0,0.0,0.0,0.0,0.0,0.0,0.0,0.0,0.0,0.0,0.0,0.0,0.0,0.0,0.0,0.0,0.0,0.0,0.0,0.0,0.0,0.0,-6.2584,-6.1231,-6.0385,-6.0283,-6.0148,-5.9911,-5.9539,-5.9438,-5.9235,-5.8998,-5.8355,-5.7679,-5.6968,-5.6867,-5.6461,-5.5852,0.0,-5.4769,-5.4702,-5.3957,-5.3687,-5.3653,-5.3551,-5.4025,-5.4769,-5.4769,-5.5175,-5.5649,-5.5108,-5.4363,-5.3687,-5.3687,-5.3585,-5.3518,-5.3518,-5.3518,-5.3518,-5.3518,-5.3518,-5.3518,-5.3518,-5.3518,-5.3518,-5.3518,-5.3518,-5.3518,-5.3518,-5.3518,-5.3518,-5.3518,-5.3518,-5.3144,-5.2065,-5.1822,-5.1132,-4.9283,-4.7705,-4.64,-4.5472,-4.407,-4.294,-4.2321,-4.2141,-4.1662,-4.0487,-4.0307,-3.9918,-3.9134,-3.8482,-3.7614,-3.6537,-3.5848,-3.5519,-3.5519,-3.5519,-3.5519,-3.5519,-3.5519,-3.5519,-3.5519,-3.5519,-3.5519,-3.2036,-3.3288,-3.4269,-3.3626,-3.4912,-3.6129,0.0,0.0,0.0,0.0,0.0,0.0,0.0,0.0,0.0,0.0,0.0,0.0,0.0,0.0,0.0,0.0,0.0,0.0,0.0,0.0,0.0,0.0,0.0,0.0,-6.0047,-5.9302,-5.8558,-5.7746,-5.7746,-5.7746,-5.7814,-5.7814,-5.8017,-5.8389,-5.8051,-5.7509,-5.6799,-5.6393,-5.5818,-5.5074,0.0,-5.4025,-5.3991,-5.3653,-5.3518,-5.3518,-5.3518,-5.3957,-5.46,-5.46,-5.5074,-5.5547,-5.4397,-5.3788,-5.3518,-5.3518,-5.3518,-5.3518,-5.3518,-5.3518,-5.3518,-5.3518,-5.3518,-5.3518,-5.3518,-5.3518,-5.3518,-5.3518,-5.3518,-5.3518,-5.3518,-5.3518,-5.3518,-5.3518,-5.3518,-5.3348,-5.287,-5.2732,-5.2186,-5.0471,-4.9248,-4.7845,-4.6133,-4.4834,-4.3805,-4.295,-4.2252,-4.1632,-4.0965,-4.0277,-3.9589,-3.8901,-3.8571,-3.7823,-3.6537,-3.6178,-3.5878,-3.5519,-3.5519,-3.5519,-3.5519,-3.5519,-3.5519,-3.5519,-3.5519,-3.5519,-3.1562,-3.2408,-3.3355,0.0,0.0,0.0,0.0,0.0,0.0,0.0,0.0,0.0,0.0,0.0,0.0,0.0,0.0,0.0,0.0,0.0,0.0,0.0,0.0,0.0,0.0,0.0,0.0,0.0,0.0,0.0,-5.778,-5.7476,-5.6867,-5.575,-5.5681,-5.5987,-5.6562,-5.6562,-5.7002,-5.7881,-5.7881,-5.7408,-5.6528,-5.5987,-5.5209,-5.4296,-5.3754,-5.3518,-5.3518,-5.3518,-5.3518,-5.3518,-5.3518,-5.3856,-5.4329,-5.4329,-5.4702,-5.504,-5.389,-5.3518,-5.3518,-5.3518,-5.3518,-5.3518,-5.3518,-5.3518,-5.3518,-5.3518,-5.3518,-5.3518,-5.3518,-5.3518,-5.3518,-5.3518,-5.3518,-5.3518,-5.3518,-5.3518,-5.3518,-5.3518,-5.3518,-5.3518,-5.3518,-5.3314,-5.2671,-5.1422,-5.0208,-4.868,-4.651,-4.5403,-4.4396,-4.3409,-4.2432,-4.1713,-4.1452,-4.0187,-3.911,-3.8422,-3.8242,-3.7644,-3.6537,-3.6327,-3.6028,-3.5519,-3.5519,-3.5519,-3.5519,-3.5519,-3.5519,-3.5519,-3.5519,-3.5519,-3.2679,-3.2814,-3.2733,-3.4134,0.0,0.0,0.0,0.0,0.0,0.0,0.0,0.0,0.0,0.0,0.0,0.0,0.0,0.0,0.0,0.0,0.0,0.0,0.0,0.0,0.0,0.0,0.0,0.0,0.0,0.0,-5.6934,-5.6258,-5.5818,-5.5681,-5.5681,-5.575,-5.5784,-5.5784,-5.6494,-5.7881,-5.7881,-5.7171,-5.5784,-5.575,-5.4938,-5.3585,-5.3518,-5.3518,-5.3518,-5.3518,-5.3518,-5.3518,-5.3518,-5.3551,-5.3585,-5.3585,-5.3619,-5.3653,-5.3551,-5.3518,-5.3518,-5.3518,-5.3518,-5.3518,-5.3518,-5.3518,-5.3518,-5.3518,-5.3518,-5.3518,-5.3518,-5.3518,-5.3518,-5.3518,-5.3518,-5.3518,-5.3518,-5.3518,-5.3518,-5.3518,-5.3518,-5.3518,-5.3518,-5.2662,-5.2047,-5.2202,-5.0033,-4.8102,-4.7289,-4.5782,-4.4396,-4.3409,-4.32,-4.2701,-4.1474,-4.0187,-3.911,-3.8422,-3.7823,-3.7195,-3.6507,-3.5908,-3.5549,-3.5519,-3.5519,-3.5519,-3.5519,-3.5519,-3.5519,-3.5519,-3.5519,-3.5519,-3.1664,-3.2158,-3.2666,-3.4155,0.0,0.0,0.0,0.0,0.0,0.0,0.0,0.0,0.0,0.0,0.0,0.0,0.0,0.0,0.0,0.0,0.0,0.0,0.0,0.0,0.0,0.0,0.0,0.0,0.0,0.0,0.0,-5.5175,-5.4803,-5.4363,-5.4329,-5.4566,-5.5006,-5.5006,-5.5513,-5.6528,-5.6528,-5.5987,-5.5006,-5.5006,-5.4465,-5.3518,-5.3518,-5.3518,-5.3518,-5.3518,-5.3518,-5.3518,-5.3518,-5.3788,-5.4126,-5.3687,-5.3788,-5.4126,-5.3653,-5.3518,-5.3518,-5.3518,-5.3518,-5.3518,-5.3518,-5.3518,-5.3518,-5.3518,-5.3518,-5.3518,-5.3518,-5.3518,-5.3518,-5.3518,-5.3518,-5.3518,-5.3518,-5.3518,-5.3518,-5.3518,-5.3518,-5.3518,-5.3518,-5.3144,-5.2739,-5.2335,-5.0554,-4.8996,-4.8278,-4.6185,-4.4662,-4.4243,-4.2968,-4.1743,-4.0846,-3.9948,-3.911,-3.8422,-3.8153,-3.7554,-3.6537,-3.6237,-3.5938,-3.5519,-3.5519,-3.5519,-3.5519,-3.5519,-3.5519,-3.5519,-3.5519,-3.5519,-3.0717,-3.1224,-3.2022,0.0,0.0,0.0,0.0,0.0,0.0,0.0,0.0,0.0,0.0,0.0,0.0,0.0,0.0,0.0,0.0,0.0,0.0,0.0,0.0,0.0,0.0,0.0,0.0,0.0,0.0,0.0,0.0,-5.4262,-5.4025,-5.3518,-5.3518,-5.3754,-5.4262,-5.4262,-5.4499,-5.5006,-5.5006,-5.4871,-5.46,-5.46,-5.4194,-5.3518,-5.3518,-5.3518,-5.3518,-5.3518,-5.3518,-5.3518,-5.3518,-5.3822,-5.4194,-5.3687,-5.3822,-5.416,-5.3687,-5.3518,-5.3518,-5.3518,-5.3518,-5.3518,-5.3518,-5.3518,-5.3518,-5.3518,-5.3518,-5.3518,-5.3518,-5.3518,-5.3518,-5.3518,-5.3518,-5.3518,-5.3518,-5.3518,-5.3518,-5.3518,-5.3518,-5.3518,-5.3518,-5.3281,-5.2875,-5.2063,-5.0793,-4.9492,-4.8496,-4.6529,-4.5005,-4.4396,-4.2735,-4.1414,-4.0756,-4.0098,-3.9349,-3.8452,-3.8392,-3.7823,-3.6537,-3.6297,-3.5968,-3.5519,-3.5519,-3.5519,-3.5519,-3.5519,-3.5519,-3.5519,-3.5519,-3.5519,-3.0108,-3.0108,0.0,0.0,0.0,0.0,0.0,0.0,0.0,0.0,0.0,0.0,0.0,0.0,0.0,0.0,0.0,0.0,0.0,0.0,0.0,0.0,0.0,0.0,0.0,0.0,0.0,0.0,0.0,0.0,0.0,-5.3484,-5.3484,-5.3518,-5.3518,-5.3518,-5.3518,-5.3518,-5.3518,-5.3518,-5.3518,-5.389,-5.4566,-5.4566,-5.4194,-5.3518,-5.3518,-5.3518,-5.3518,-5.3518,-5.3518,-5.3518,-5.3518,-5.3518,-5.3518,-5.3518,-5.3518,-5.3518,-5.3518,-5.3518,-5.3518,-5.3518,-5.3518,-5.3518,-5.3518,-5.3518,-5.3518,-5.3518,-5.3518,-5.3518,-5.3518,-5.3518,-5.3518,-5.3518,-5.3518,-5.3518,-5.3518,-5.3518,-5.3518,-5.3518,-5.3518,-5.3518,-5.3518,-5.2841,-5.2063,-5.1319,-5.0574,-4.948,-4.7803,-4.6765,-4.5457,-4.3497,-4.2731,-4.2141,-4.1482,-4.0756,-3.9828,-3.8482,-3.8392,-3.7793,-3.6537,-3.5848,-3.5519,-3.5519,-3.5519,-3.5519,-3.5519,-3.5519,-3.5519,-3.5519,-3.5519,-3.5519,-2.9973,0.0,0.0,0.0,0.0,0.0,0.0,0.0,0.0,0.0,0.0,0.0,0.0,0.0,0.0,0.0,0.0,0.0,0.0,0.0,0.0,0.0,0.0,0.0,0.0,0.0,0.0,0.0,0.0,0.0,0.0,-5.2976,-5.2909,-5.3484,-5.3518,-5.3518,-5.3518,-5.3518,-5.3518,-5.3518,-5.3518,-5.3619,-5.3822,-5.3822,-5.3721,-5.3518,-5.3518,-5.3518,-5.3518,-5.3518,-5.3518,-5.3518,-5.3518,-5.3518,-5.3518,-5.3518,-5.3518,-5.3518,-5.3518,-5.3518,-5.3518,-5.3518,-5.3518,-5.3518,-5.3518,-5.3518,-5.3518,-5.3518,-5.3518,-5.3518,-5.3518,-5.3518,-5.3518,-5.3518,-5.3518,-5.3518,-5.3518,-5.3518,-5.3518,-5.3518,-5.3518,-5.3518,-5.3518,-5.2841,-5.2063,-5.1319,-4.999,-4.8261,-4.5945,-4.5957,-4.5457,-4.3497,-4.2342,-4.1632,-4.1422,-4.0337,-3.9529,-3.914,-3.8212,-3.7345,-3.6507,-3.6297,-3.5968,-3.5519,-3.5519,-3.5519,-3.5519,-3.5519,-3.5519,-3.5519,-3.5519,-3.5519,-2.9973,0.0,0.0,0.0,0.0,0.0,0.0,0.0,0.0,0.0,0.0,0.0,0.0,0.0,0.0,0.0,0.0,0.0,0.0,0.0,0.0,0.0,0.0,0.0,0.0,0.0,0.0,0.0,0.0,0.0,0.0,-5.2131,-5.2097,-5.257,-5.2604,-5.2604,-5.2604,-5.2604,-5.2604,-5.2604,-5.2604,-5.2604,-5.2604,-5.3213,-5.3518,-5.3518,-5.3518,-5.3518,-5.3518,-5.3518,-5.3518,-5.3518,-5.3518,-5.3518,-5.3518,-5.3518,-5.3518,-5.3518,-5.3518,-5.3518,-5.3518,-5.3518,-5.3518,-5.3518,-5.3518,-5.3518,-5.3518,-5.3518,-5.3518,-5.3518,-5.3518,-5.3518,-5.3518,-5.3518,-5.3518,-5.3518,-5.3518,-5.3518,-5.3416,-5.3078,-5.301,-5.2942,-5.2638,-5.1928,-5.1285,-5.0845,-4.9359,-4.7559,-4.5624,-4.5525,-4.4954,-4.3166,-4.2252,-4.1602,-4.1025,-4.0277,-3.9709,-3.9439,-3.8626,-3.7793,-3.6896,-3.6357,-3.5908,-3.5519,-3.5519,-3.5519,-3.5519,-3.5519,-3.5519,-3.5519,-3.5519,-3.5519,0.0,0.0,0.0,0.0,0.0,0.0,0.0,0.0,0.0,0.0,0.0,0.0,0.0,0.0,0.0,0.0,0.0,0.0,0.0,0.0,0.0,0.0,0.0,0.0,0.0,0.0,0.0,0.0,0.0,0.0,0.0,-5.115,-5.1117,-5.1185,-5.1185,-5.1185,-5.1185,-5.1185,-5.1185,-5.1185,-5.1185,-5.1185,-5.1219,-5.2672,-5.3348,-5.3382,-5.3382,-5.345,-5.3518,-5.3518,-5.3518,-5.3518,-5.3518,-5.3518,-5.3518,-5.3518,-5.3518,-5.3518,-5.3518,-5.3518,-5.3518,-5.3518,-5.3518,-5.3518,-5.3518,-5.3518,-5.3518,-5.3518,-5.3518,-5.3518,-5.3518,-5.3518,-5.3518,-5.3518,-5.345,-5.3382,-5.3382,-5.3348,-5.3078,-5.2334,-5.2198,-5.1995,-5.1319,-5.0574,-5.0067,-4.9999,-4.8723,-4.7373,-4.6454,-4.5425,-4.4247,-4.2711,-4.2329,-4.1722,-4.0487,-4.0337,-4.0068,-3.9469,-3.932,-3.8691,-3.7464,-3.6297,-3.5639,-3.5519,-3.5519,-3.5519,-3.5519,-3.5519,-3.5519,-3.5519,-3.5519,-3.5519,0.0,0.0,0.0,0.0,0.0,0.0,0.0,0.0,0.0,0.0,0.0,0.0,0.0,0.0,0.0,0.0,0.0,0.0,0.0,0.0,0.0,0.0,0.0,0.0,0.0,0.0,0.0,0.0,0.0,0.0,-5.1183,-5.0642,-5.0608,-5.1151,-5.1185,-5.1185,-5.1185,-5.1185,-5.1185,0.0,-5.1185,-5.1185,-5.1185,-5.1555,-5.2029,-5.257,-5.257,-5.2909,-5.3518,-5.3518,-5.3518,-5.3518,-5.3518,-5.3518,-5.3518,-5.3518,-5.3518,-5.3518,-5.3518,-5.3518,-5.3518,-5.3518,-5.3518,-5.3518,-5.3518,-5.3518,-5.3518,-5.3518,-5.3518,-5.3518,-5.3518,-5.3518,-5.3518,-5.3518,-5.301,-5.257,-5.257,-5.2097,-5.1657,-5.1488,-5.1454,-5.1386,-5.1251,-5.0574,-4.9898,-4.9323,-4.8931,-4.8353,-4.7406,-4.6005,-4.4678,-4.3611,-4.1873,-4.0696,-4.0427,-3.9918,-3.9559,-3.9403,-3.8422,-3.7704,-3.7434,-3.7135,-3.6537,-3.5519,-3.5519,-3.5519,-3.5519,-3.5519,-3.5519,-3.5519,-3.5519,-3.5519,0.0,0.0,0.0,0.0,0.0,0.0,0.0,0.0,0.0,0.0,0.0,0.0,0.0,0.0,0.0,0.0,0.0,0.0,0.0,0.0,0.0,0.0,0.0,0.0,0.0,0.0,0.0,0.0,0.0,-4.868,-4.9086,-4.8714,-4.8849,-4.9596,-4.9596,-4.9796,-5.0168,-5.0168,-5.0168,-5.0168,-5.0168,-5.0168,-5.0168,-5.0879,-5.142,-5.1792,-5.1792,-5.2232,-5.2942,-5.2942,-5.3145,-5.3518,-5.3518,-5.3518,-5.3518,-5.3518,-5.3518,-5.3518,-5.3518,-5.3518,-5.3518,-5.3518,-5.3518,-5.3518,-5.3518,-5.3518,-5.3518,-5.3518,-5.3518,-5.3518,-5.3518,-5.3213,-5.2942,-5.2942,-5.2604,-5.23,-5.23,-5.1725,-5.1116,-5.0744,-5.0676,-5.0574,-5.0202,-4.983,-4.9424,-4.9052,-4.8608,-4.7966,-4.707,-4.5815,-4.4413,-4.2836,-4.1572,-4.0791,-4.0568,-3.9841,-3.9589,-3.999,-3.8667,-3.7734,-3.7434,-3.7135,-3.6507,-3.5519,-3.5519,-3.5519,-3.5519,-3.5519,-3.5519,-3.5519,-3.5519,-3.5519,0.0,0.0,0.0,0.0,0.0,0.0,0.0,0.0,0.0,0.0,0.0,0.0,0.0,0.0,0.0,0.0,0.0,0.0,0.0,0.0,0.0,0.0,0.0,0.0,0.0,0.0,0.0,0.0,0.0,-4.6616,-4.6616,-4.6616,-4.6955,-4.7699,-4.7733,-4.8003,-4.8612,-4.8612,-4.8612,-4.8612,-4.8748,-4.8815,-4.8849,-5.0236,-5.0913,-5.1014,-5.1014,-5.1522,-5.23,-5.23,-5.2773,-5.3518,-5.3518,-5.3518,-5.3518,-5.3518,-5.3518,-5.3518,-5.3518,-5.3518,-5.3518,-5.3518,-5.3518,-5.3518,-5.3518,-5.3518,-5.3518,-5.3518,-5.3518,-5.3484,-5.3348,-5.2807,-5.2266,-5.2131,-5.1995,-5.1928,-5.1928,-5.1352,-5.0642,-5.0033,-4.9898,-4.9729,-4.912,-4.9018,-4.8951,-4.8849,-4.8154,-4.7342,-4.6441,-4.5373,-4.4003,-4.212,-4.1687,-4.1285,-4.0749,-4.006,-3.9879,-4.0447,-3.9057,-3.7973,-3.7434,-3.6716,-3.6058,-3.5519,-3.5519,-3.5519,-3.5519,-3.5519,-3.5519,-3.5519,-3.5519,-3.5519,0.0,0.0,0.0,0.0,0.0,0.0,0.0,0.0,0.0,0.0,0.0,0.0,0.0,0.0,0.0,0.0,0.0,0.0,0.0,0.0,0.0,0.0,0.0,0.0,0.0,0.0,0.0,0.0,-4.5906,-4.5838,-4.5838,-4.5838,-4.6177,-4.6921,-4.6955,-4.6989,-4.709,-4.709,-4.709,-4.709,-4.7767,-4.8041,-4.8075,-4.8917,-4.9627,-5.0236,-5.0236,-5.1014,-5.23,-5.23,-5.2773,-5.3518,-5.3518,-5.3518,-5.3518,-5.3518,-5.3518,-5.3518,-5.3518,-5.3518,-5.3518,-5.3518,-5.3518,-5.3518,-5.3518,-5.3518,-5.3518,-5.3518,-5.3518,-5.3348,-5.2638,-5.2367,-5.2131,-5.1522,-5.0879,-5.0371,-5.0371,-4.9796,-4.9255,-4.9187,-4.9154,-4.912,-4.9018,-4.9018,-4.8781,-4.8142,-4.7916,-4.7588,-4.6824,-4.5388,-4.433,-4.4039,-4.2751,-4.1584,-4.0758,-4.0588,-4.0239,-3.9595,-3.8282,-3.7494,-3.7404,-3.6267,-3.5579,-3.5519,-3.5519,-3.5519,-3.5519,-3.5519,-3.5519,-3.5519,-3.5519,-3.5519,0.0,0.0,0.0,0.0,0.0,0.0,0.0,0.0,0.0,0.0,0.0,0.0,0.0,0.0,0.0,0.0,0.0,0.0,0.0,0.0,0.0,0.0,0.0,0.0,0.0,0.0,0.0,0.0,-4.4282,-4.3775,-4.3775,-4.3775,-4.4147,-4.4891,-4.4891,-4.5094,-4.5563,-4.5974,-4.638,-4.6786,-4.7124,-4.7293,-4.7293,-4.7631,-4.8409,-4.9492,-4.9492,-5.0101,-5.1048,-5.1048,-5.1522,-5.2232,-5.2232,-5.2469,-5.2773,-5.2367,-5.2469,-5.2773,-5.2367,-5.2503,-5.2841,-5.2841,-5.3145,-5.3518,-5.3518,-5.3179,-5.2909,-5.3382,-5.3179,-5.2739,-5.2401,-5.1995,-5.1522,-5.0777,-5.0033,-4.9492,-4.9492,-4.9221,-4.9018,-4.9018,-4.868,-4.8376,-4.8376,-4.8037,-4.7665,-4.7327,-4.7293,-4.7008,-4.6121,-4.5386,-4.4617,-4.3718,-4.3009,-4.2267,-4.1494,-4.0995,-4.0365,-3.9616,-3.8189,-3.7255,-3.6896,-3.5998,-3.5519,-3.5519,-3.5519,-3.5519,-3.5519,-3.5519,-3.5519,-3.5519,-3.5519,-3.5519,0.0,0.0,0.0,0.0,0.0,0.0,0.0,0.0,0.0,0.0,0.0,0.0,0.0,0.0,0.0,0.0,0.0,0.0,0.0,0.0,0.0,0.0,0.0,0.0,0.0,0.0,0.0,0.0,-4.2658,-4.2016,-4.2016,-4.2016,-4.2354,-4.3098,-4.3132,-4.3403,-4.4005,-4.4553,-4.5094,-4.5635,-4.6041,-4.6244,-4.6244,-4.6616,-4.7496,-4.8714,-4.8714,-4.9255,-5.0101,-5.0101,-5.0541,-5.1185,-5.1185,-5.1657,-5.2232,-5.1691,-5.1826,-5.2232,-5.1691,-5.1725,-5.2029,-5.2029,-5.2435,-5.2942,-5.2942,-5.2503,-5.2198,-5.2976,-5.2638,-5.2029,-5.2029,-5.1488,-5.0744,-4.9999,-4.939,-4.9018,-4.9018,-4.9018,-4.8951,-4.8781,-4.8277,-4.7838,-4.7665,-4.7158,-4.6718,-4.6549,-4.6515,-4.6207,-4.5308,-4.5183,-4.4735,-4.3521,-4.3393,-4.3135,-4.2396,-4.1528,-4.0743,-3.998,-3.8489,-3.7375,-3.6746,-3.6088,-3.5669,-3.5519,-3.5519,-3.5519,-3.5519,-3.5519,-3.5519,-3.5519,-3.5519,-3.5519,0.0,0.0,0.0,0.0,0.0,0.0,0.0,0.0,0.0,0.0,0.0,0.0,0.0,0.0,0.0,0.0,0.0,0.0,0.0,0.0,0.0,0.0,0.0,0.0,0.0,0.0,0.0,0.0,-4.1305,-4.1271,-4.1271,-4.1271,-4.161,-4.232,-4.2354,-4.2388,-4.2422,-4.2455,-4.2489,-4.2557,-4.4039,-4.4716,-4.4784,-4.6143,-4.7225,-4.7939,-4.7939,-4.8781,-5.0101,-5.0101,-5.0541,-5.1185,-5.1185,-5.1657,-5.23,-5.2266,-5.2266,-5.23,-5.2266,-5.1826,-5.1285,-5.1285,-5.1286,-5.132,-5.132,-5.1286,-5.1388,-5.2164,-5.1826,-5.1285,-5.1285,-5.071,-4.9965,-4.9221,-4.9052,-4.9018,-4.9018,-4.9018,-4.8815,-4.8075,-4.7906,-4.7699,-4.6989,-4.6819,-4.6549,-4.5872,-4.5771,-4.5471,-4.4761,-4.466,-4.4598,-4.4536,-4.4536,-4.4155,-4.3323,-4.2426,-4.156,-4.0696,-3.9187,-3.8033,-3.7375,-3.6776,-3.6148,-3.5519,-3.5519,-3.5519,-3.5519,-3.5519,-3.5519,-3.5519,-3.5519,-3.5519,0.0,0.0,0.0,0.0,0.0,0.0,0.0,0.0,0.0,0.0,0.0,0.0,0.0,0.0,0.0,0.0,0.0,0.0,0.0,0.0,0.0,0.0,0.0,0.0,0.0,0.0,0.0,0.0,0.0,-4.0493,-4.0493,-4.0493,-4.062,-4.0891,-4.0891,-4.1128,-4.1576,-4.1576,-4.1813,-4.2286,-4.2861,-4.3098,-4.3132,-4.4147,-4.5026,-4.5805,-4.6278,-4.7597,-4.939,-4.939,-4.956,-4.9796,-4.9796,-5.0236,-5.0811,-5.0371,-5.0473,-5.0811,-5.0338,-5.0338,-5.0473,-5.0473,-5.0811,-5.1185,-5.1185,-5.0879,-5.0642,-5.1386,-5.1048,-5.0473,-5.0473,-5.0304,-4.9898,-4.9187,-4.9018,-4.9018,-4.9018,-4.9018,-4.8781,-4.8041,-4.753,-4.6955,-4.621,-4.5703,-4.5326,-4.5026,-4.4993,-4.4919,-4.4649,-4.4615,-4.4615,-4.4615,-4.4615,-4.427,-4.3383,-4.2489,-4.1435,-4.0137,-3.9005,-3.8093,-3.7434,-3.6806,-3.6387,-3.6148,-3.5729,-3.5519,-3.5519,-3.5519,-3.5519,-3.5519,-3.5519,-3.5519,0.0,0.0,0.0,0.0,0.0,0.0,0.0,0.0,0.0,0.0,0.0,0.0,0.0,0.0,0.0,0.0,0.0,0.0,0.0,0.0,0.0,0.0,0.0,0.0,0.0,0.0,0.0,0.0,0.0,0.0,-4.0113,-4.0113,-4.0113,-4.0113,-4.0113,-4.035,-4.0832,-4.0832,-4.1068,-4.1542,-4.1813,-4.1914,-4.1948,-4.2963,-4.3842,-4.4649,-4.5365,-4.6684,-4.8274,-4.8545,-4.8646,-4.868,-4.8917,-4.9458,-5.0033,-4.956,-4.9661,-5.0033,-4.9526,-4.9526,-4.9729,-4.9729,-5.0067,-5.0473,-5.0473,-5.0135,-4.9864,-5.0642,-5.0304,-4.9796,-5.0033,-4.9898,-4.9593,-4.912,-4.8815,-4.8646,-4.8646,-4.8646,-4.8409,-4.7665,-4.6955,-4.621,-4.5466,-4.4925,-4.4615,-4.4615,-4.4615,-4.4615,-4.4615,-4.4615,-4.4615,-4.4615,-4.4615,-4.4355,-4.3802,-4.2956,-4.198,-4.0959,-4.0075,-3.9201,-3.8282,-3.759,-3.7031,-3.6544,-3.5829,-3.5519,-3.5519,-3.5519,-3.5519,-3.5519,-3.5519,-3.5519,0.0,0.0,0.0,0.0,0.0,0.0,0.0,0.0,0.0,0.0,0.0,0.0,0.0,0.0,0.0,0.0,0.0,0.0,0.0,0.0,0.0,0.0,0.0,0.0,0.0,0.0,0.0,0.0,-4.0079,-4.0079,-4.0079,-4.0045,-4.0045,-4.0079,-4.0079,-4.0079,-4.0113,-4.0113,-4.0113,-4.0113,-4.0832,-4.117,-4.1238,-4.2665,-4.3775,-4.4547,-4.5297,-4.6041,-4.6752,-4.7564,-4.7872,-4.7939,-4.868,-4.939,-5.0033,-5.0033,-5.0033,-5.0067,-5.0067,-4.9593,-4.9018,-4.9018,-4.9018,-4.9018,-4.9018,-4.9018,-4.9154,-4.9864,-4.956,-4.9154,-4.9864,-4.9526,-4.9018,-4.9018,-4.8477,-4.7906,-4.7906,-4.7872,-4.7665,-4.6921,-4.621,-4.55,-4.4784,-4.4615,-4.4615,-4.4615,-4.4615,-4.4615,-4.4615,-4.4615,-4.4615,-4.4615,-4.4615,-4.4615,-4.4615,-4.3798,-4.3323,-4.3323,-4.2489,-4.1373,-3.9966,-3.9125,-3.8057,-3.6662,-3.5878,-3.5519,-3.5519,-3.5519,-3.5519,-3.5519,-3.5519,-3.5519,-2.6759,0.0,0.0,0.0,0.0,0.0,0.0,0.0,0.0,0.0,0.0,0.0,0.0,0.0,0.0,0.0,0.0,0.0,0.0,0.0,0.0,0.0,0.0,0.0,0.0,0.0,0.0,0.0,-3.9276,-3.9276,-3.9276,-3.8802,-3.8734,-3.9276,-3.9276,-3.9571,-4.0079,-4.0113,-4.0113,-4.0113,-4.0316,-4.0417,-4.0451,-4.1373,-4.1948,-4.2219,-4.3504,-4.4147,-4.4485,-4.6346,-4.709,-4.7124,-4.7327,-4.7868,-4.8511,-4.8511,-4.8849,-4.9289,-4.9289,-4.9187,-4.9018,-4.9018,-4.9018,-4.9018,-4.9018,-4.9018,-4.9052,-4.9255,-4.9154,-4.9052,-4.9255,-4.9154,-4.9018,-4.9018,-4.8849,-4.8545,-4.8007,-4.7496,-4.7056,-4.6819,-4.6616,-4.6244,-4.5534,-4.4925,-4.4615,-4.4615,-4.4615,-4.4615,-4.4615,-4.4615,-4.4615,-4.4615,-4.4615,-4.4615,-4.4615,-4.3798,-4.3323,-4.3323,-4.2489,-4.1597,-4.0639,-3.9407,-3.8274,-3.7312,-3.612,-3.5519,-3.5519,-3.5519,-3.5519,-3.5519,-3.5519,-3.5519,0.0,0.0,0.0,0.0,0.0,0.0,0.0,-2.7943,0.0,0.0,0.0,0.0,0.0,0.0,0.0,0.0,0.0,0.0,0.0,0.0,0.0,0.0,0.0,0.0,0.0,0.0,0.0,-3.8048,-3.8362,-3.8531,-3.8531,-3.8125,-3.8091,-3.8531,-3.8836,-3.9208,-3.9639,-3.9943,-4.0113,-4.0113,-4.0113,-4.0113,-4.0146,-4.0865,-4.1204,-4.1271,-4.2422,-4.2963,-4.3064,-4.4722,-4.5771,-4.638,-4.6684,-4.7056,-4.7462,-4.7462,-4.7733,-4.8071,-4.8071,-4.8071,-4.8139,-4.8443,-4.8342,-4.8206,-4.8815,-4.8781,-4.8612,-4.8917,-4.9018,-4.9018,-4.9018,-4.9018,-4.9018,-4.9018,-4.8545,-4.797,-4.753,-4.6853,-4.6346,-4.6346,-4.6075,-4.5766,-4.5297,-4.4857,-4.4615,-4.4615,-4.4615,-4.4615,-4.4615,-4.4615,-4.4615,-4.4615,-4.4615,-4.4615,-4.4615,-4.4121,-4.3727,-4.3365,-4.2858,-4.213,-4.1085,-4.0208,-3.9088,-3.7712,-3.6876,-3.6118,-3.5519,-3.5519,-3.5519,-3.5519,-3.5519,-3.5519,0.0,0.0,0.0,0.0,0.0,0.0,-2.6996,-2.7384,-2.7891,0.0,0.0,0.0,0.0,0.0,0.0,0.0,0.0,0.0,0.0,0.0,0.0,0.0,0.0,0.0,0.0,-3.5994,-3.6457,-3.6558,-3.7212,-3.7686,-3.7787,-3.7686,-3.7686,-3.7787,-3.8396,-3.8802,-3.887,-3.9537,-3.991,-3.9977,-3.9977,-4.0011,-4.0113,-4.0764,-4.1068,-4.1136,-4.1847,-4.2185,-4.2219,-4.2963,-4.4147,-4.5534,-4.6244,-4.6616,-4.6684,-4.6684,-4.6718,-4.6786,-4.6786,-4.6786,-4.6921,-4.7564,-4.7327,-4.7056,-4.8477,-4.8376,-4.7906,-4.8578,-4.8748,-4.8748,-4.8748,-4.8748,-4.8748,-4.8748,-4.7733,-4.6786,-4.6684,-4.6143,-4.5669,-4.5602,-4.5094,-4.4716,-4.4716,-4.4649,-4.4615,-4.4615,-4.4615,-4.4615,-4.4615,-4.4513,-4.4479,-4.4479,-4.4412,-4.4344,-4.4344,-4.4412,-4.4147,-4.3443,-4.3477,-4.2929,-4.1508,-4.1217,-4.0087,-3.795,-3.7713,-3.6904,-3.5519,-3.5519,-3.5519,-3.5519,-3.5519,-3.5519,0.0,0.0,0.0,0.0,0.0,0.0,-2.7891,-2.8213,-2.8434,0.0,0.0,0.0,0.0,0.0,0.0,0.0,0.0,0.0,0.0,0.0,0.0,0.0,0.0,0.0,0.0,-3.3964,-3.4303,-3.4878,-3.5622,-3.6332,-3.6998,-3.64,-3.6366,-3.6975,-3.7168,-3.7516,-3.8125,-3.8261,-3.8633,-3.9208,-3.9208,-3.9537,-4.0113,-4.0248,-4.0316,-4.0383,-4.1102,-4.1407,-4.1474,-4.2219,-4.3031,-4.3944,-4.4722,-4.5365,-4.5906,-4.5906,-4.6278,-4.6786,-4.6786,-4.6786,-4.6819,-4.6955,-4.6921,-4.6955,-4.7868,-4.7597,-4.7022,-4.7192,-4.7225,-4.7225,-4.7225,-4.7225,-4.7225,-4.7225,-4.6989,-4.6616,-4.6041,-4.5805,-4.5534,-4.4925,-4.5162,-4.55,-4.55,-4.4993,-4.4615,-4.4615,-4.4615,-4.4615,-4.4615,-4.4045,-4.3639,-4.3639,-4.3098,-4.2753,-4.2753,-4.3301,-4.3572,-4.3409,-4.4012,-4.3944,-4.3003,-4.1198,-3.9755,-3.8713,-3.7432,-3.6382,-3.5519,-3.5519,-3.5519,-3.5519,-3.5519,-3.5519,0.0,0.0,0.0,-2.9896,0.0,0.0,0.0,-2.827,-2.8408,0.0,0.0,0.0,0.0,0.0,0.0,0.0,0.0,0.0,0.0,0.0,0.0,0.0,0.0,0.0,0.0,-3.2645,-3.3152,-3.3897,-3.4303,-3.4675,-3.5081,-3.4742,-3.4878,-3.5644,-3.5994,-3.6569,-3.7347,-3.7719,-3.8261,-3.9005,-3.9005,-3.9402,-4.0113,-4.0113,-4.0113,-4.0113,-4.0493,-4.0629,-4.0696,-4.1441,-4.1982,-4.2388,-4.3132,-4.391,-4.4553,-4.4553,-4.5026,-4.5698,-4.5698,-4.5698,-4.5737,-4.6109,-4.6007,-4.5906,-4.7022,-4.709,-4.6786,-4.6786,-4.6786,-4.6786,-4.6786,-4.6786,-4.6786,-4.6786,-4.6515,-4.6143,-4.5771,-4.5399,-4.5026,-4.4682,-4.4919,-4.5128,-4.5128,-4.4823,-4.4479,-4.4045,-4.4012,-4.3876,-4.3498,-4.3098,-4.2861,-4.2861,-4.2523,-4.2286,-4.2286,-4.2625,-4.2861,-4.2861,-4.3234,-4.3098,-4.2354,-4.1566,-4.0639,-3.9548,-3.7966,-3.7025,-3.6631,-3.6228,-3.5878,-3.5519,-3.5519,-3.5519,0.0,0.0,0.0,0.0,0.0,-3.0296,0.0,0.0,0.0,0.0,0.0,0.0,0.0,0.0,0.0,0.0,0.0,0.0,0.0,0.0,0.0,0.0,0.0,0.0,0.0,-3.1684,-3.2395,-3.3119,-3.3186,-3.3254,-3.3389,-3.3423,-3.3728,-3.4472,-3.5081,-3.5757,-3.6558,-3.7178,-3.7922,-3.8768,-3.8768,-3.9242,-4.0113,-4.0113,-4.0113,-4.0113,-4.0113,-4.0113,-4.0146,-4.073,-4.1001,-4.1102,-4.2117,-4.2895,-4.3409,-4.3544,-4.4045,-4.4615,-4.4615,-4.4615,-4.4716,-4.5297,-4.5162,-4.5021,-4.6041,-4.6481,-4.6549,-4.6413,-4.6244,-4.6177,-4.6346,-4.6244,-4.6143,-4.6143,-4.5703,-4.5229,-4.5094,-4.4587,-4.4175,-4.4175,-4.4175,-4.4209,-4.4316,-4.4378,-4.4079,-4.3335,-4.3172,-4.2963,-4.2388,-4.2185,-4.2083,-4.2083,-4.1948,-4.188,-4.188,-4.2016,-4.2083,-4.2083,-4.2219,-4.2016,-4.1441,-4.1707,-4.117,-3.9691,-3.8566,-3.7966,-3.7793,-3.7293,-3.66,-3.5686,-3.5554,-3.5519,0.0,0.0,0.0,0.0,-3.2378,0.0,0.0,0.0,0.0,0.0,0.0,0.0,0.0,0.0,0.0,0.0,0.0,0.0,0.0,0.0,0.0,0.0,0.0,0.0,0.0,0.0,-3.163,-3.2361,-3.2429,-3.2733,-3.3389,-3.3423,-3.3728,-3.4472,-3.4573,-3.4979,-3.5735,-3.5802,-3.658,-3.8024,-3.8024,-3.8734,-4.0113,-4.0113,-4.0113,-4.0113,-4.0113,-4.0113,-4.0113,-4.018,-4.0214,-4.0451,-4.2489,-4.3308,-4.3504,-4.4181,-4.4513,-4.4615,-4.4615,-4.4615,-4.4615,-4.4716,-4.5094,-4.5466,-4.5021,-4.5297,-4.5703,-4.5055,-4.435,-4.3978,-4.4654,-4.4316,-4.3781,-4.3781,-4.3713,-4.3504,-4.2828,-4.2625,-4.2557,-4.2557,-4.2557,-4.276,-4.3436,-4.3511,-4.3301,-4.2523,-4.2422,-4.2388,-4.2286,-4.1745,-4.1339,-4.1339,-4.073,-4.035,-4.035,-4.0933,-4.1339,-4.1339,-4.1948,-4.2252,-4.2185,-4.1015,-3.9631,-3.8094,-3.853,-3.8442,-3.7793,-3.8358,-3.7901,-3.6477,-3.5814,-3.5519,0.0,0.0,0.0,0.0,0.0,0.0,-3.0543,0.0,-2.9539,0.0,0.0,0.0,0.0,0.0,0.0,0.0,0.0,0.0,0.0,0.0,0.0,0.0,0.0,0.0,0.0,0.0,0.0,0.0,-3.1684,-3.1799,-3.2104,-3.2138,-3.2442,-3.3207,-3.3626,-3.4235,-3.4945,-3.5363,-3.6163,-3.7246,-3.7686,-3.8464,-3.9503,-3.991,-4.0113,-4.0113,-4.0113,-4.0113,-4.0113,-4.0113,-4.0113,-4.0248,-4.161,-4.2091,-4.2185,-4.2489,-4.3166,-4.391,-4.391,-4.4215,-4.4615,-4.4615,-4.4818,-4.4925,-4.4147,-4.4113,-4.4215,-4.347,-4.2997,-4.2828,-4.3166,-4.2997,-4.276,-4.276,-4.276,-4.2692,-4.2354,-4.2286,-4.2286,-4.2286,-4.2286,-4.2252,-4.2151,-4.2489,-4.2523,-4.1779,-4.1644,-4.1508,-4.1094,-4.073,-4.0561,-4.0561,-4.0282,-4.0113,-4.0113,-4.0383,-4.073,-4.117,-4.1508,-4.1644,-4.1644,-4.0639,-3.9814,-3.9162,-3.9454,-3.9454,-3.9129,-3.8525,-3.7933,-3.7263,-3.6477,-3.5911,-3.3211,0.0,0.0,0.0,0.0,0.0,0.0,0.0,0.0,0.0,0.0,0.0,0.0,0.0,0.0,0.0,0.0,0.0,0.0,0.0,0.0,0.0,0.0,0.0,0.0,0.0,0.0,-3.0886,-3.0886,-3.0987,-3.119,-3.119,-3.1549,-3.2293,-3.3017,-3.3761,-3.4472,-3.5228,-3.5994,-3.6829,-3.755,-3.8294,-3.9005,-3.9774,-4.0113,-4.0113,-4.0113,-4.0113,-4.0113,-4.0113,-4.0113,-4.0146,-4.0696,-4.0899,-4.0933,-4.1339,-4.2185,-4.3098,-4.3098,-4.347,-4.3972,-4.3972,-4.3972,-4.387,-4.3301,-4.3098,-4.2997,-4.2455,-4.2151,-4.2049,-4.2252,-4.2151,-4.1982,-4.1982,-4.1982,-4.1948,-4.1711,-4.1704,-4.1704,-4.1704,-4.1704,-4.1508,-4.1001,-4.1508,-4.1745,-4.1001,-4.0899,-4.0696,-4.018,-4.0113,-4.0113,-4.0113,-4.0113,-4.0113,-4.0113,-4.0113,-4.035,-4.0865,-4.0899,-4.0899,-4.0899,-4.0383,-4.0113,-4.0113,-4.0113,-4.0113,-4.0113,-3.8968,-3.8334,-3.8076,-3.6874,-3.6006,0.0,0.0,0.0,-3.3382,0.0,0.0,0.0,0.0,-3.2259,0.0,0.0,0.0,0.0,0.0,0.0,0.0,0.0,0.0,0.0,0.0,0.0,0.0,0.0,0.0,0.0,0.0,0.0,-3.0055,-3.0142,-3.0446,-3.1157,-3.119,-3.1549,-3.2293,-3.3017,-3.3761,-3.4472,-3.5228,-3.5994,-3.6829,-3.755,-3.8294,-3.9005,-3.9774,-4.0113,-4.0113,-4.0113,-4.0113,-4.0113,-4.0113,-4.0113,-4.0113,-4.0146,-4.0146,-4.0316,-4.1711,-4.2286,-4.232,-4.232,-4.2354,-4.2354,-4.2354,-4.2354,-4.2354,-4.232,-4.232,-4.232,-4.2286,-4.1779,-4.1407,-4.2117,-4.1779,-4.1238,-4.1238,-4.1238,-4.1035,-4.0316,-4.018,-4.018,-4.018,-4.018,-4.018,-4.0146,-4.073,-4.0967,-4.0248,-4.0146,-4.0146,-4.0113,-4.0113,-4.0113,-4.0113,-4.0113,-4.0113,-4.0113,-4.0113,-4.0113,-4.0146,-4.0146,-4.0146,-4.0146,-4.0113,-4.0113,-4.0113,-4.0113,-4.0113,-4.0113,-4.0028,-3.9636,-3.8827,-3.66,-3.5522,0.0,0.0,-3.3893,-3.3665,0.0,0.0,0.0,0.0,0.0,0.0,0.0,0.0,0.0,0.0,0.0,0.0,0.0,0.0,0.0,0.0,0.0,0.0,0.0,0.0,0.0,0.0,0.0,-2.9348,-2.9837,-3.0209,-3.048,-3.092,-3.1292,-3.1562,-3.2273,-3.2801,-3.3038,-3.4269,-3.5013,-3.5284,-3.6569,-3.755,-3.8294,-3.9039,-3.9639,-4.0113,-4.0113,-4.0113,-4.0113,-4.0113,-4.0113,-4.0113,-4.0113,-4.0113,-4.018,-4.0654,-4.1136,-4.1644,-4.2117,-4.2286,-4.2286,-4.2286,-4.2286,-4.2185,-4.1711,-4.1576,-4.1474,-4.0993,-4.0654,-4.0553,-4.079,-4.0654,-4.046,-4.046,-4.046,-4.0417,-4.0146,-4.0113,-4.0113,-4.0113,-4.0113,-4.0113,-4.0113,-4.0316,-4.0383,-4.0146,-4.0113,-4.0113,-4.0113,-4.0113,-4.0113,-4.0113,-4.0113,-4.0113,-4.0113,-4.0113,-4.0113,-4.0113,-4.0113,-4.0113,-4.0113,-4.0113,-4.0113,-4.0113,-4.0113,-4.0113,-4.0113,-3.9584,-3.9183,-3.8854,-3.7054,-3.6228,-3.3807,-3.3807,0.0,-3.3807,-3.3606,0.0,-3.3422,0.0,0.0,0.0,0.0,0.0,0.0,0.0,0.0,0.0,0.0,0.0,0.0,-2.7303,0.0,0.0,0.0,0.0,0.0,0.0,-2.8299,-2.8552,-2.9025,-2.9514,0.0,0.0,-3.092,-3.119,-3.1921,-3.2293,-3.2293,-3.3491,-3.4235,-3.4506,-3.5757,-3.6772,-3.755,-3.8531,-3.9242,-3.974,-4.0011,-4.0113,-4.0113,-4.0113,-4.0113,-4.0113,-4.0113,-4.0113,-4.0113,-4.0113,-4.0417,-4.0865,-4.1339,-4.1534,-4.1534,-4.1534,-4.1534,-4.1407,-4.0933,-4.0798,-4.0764,-4.0527,-4.0316,-4.018,-4.0392,-4.0316,-4.0113,-4.0113,-4.0113,-4.0113,-4.0113,-4.0113,-4.0113,-4.0113,-4.0113,-4.0113,-4.0113,-4.0113,-4.0113,-4.0113,-4.0113,-4.0113,-4.0113,-4.0113,-4.0113,-4.0113,-4.0113,-4.0113,-4.0113,-4.0113,-4.0113,-4.0113,-4.0113,-4.0113,-4.0113,-4.0113,-4.0214,-4.0493,-4.0248,-4.0248,-4.0493,-3.9718,-3.9315,-3.9289,-3.8015,-3.7408]},{"header":{"parameterUnit":"m.s-1","parameterCategory":1,"la1":30.6,"la2":29.2853,"lo1":-89.7004,"lo2":-87.6739,"dy":0.0162,"dx":0.0183,"nx":112,"ny":82,"refTime":"2023-08-06T12:00:00:Z","depth":0,"parameterNumber":3,"parameterNumberName":"V-component_of_WINDS"},"data":[0.0,0.0,0.0,0.0,0.0,0.0,0.0,0.0,0.0,0.0,0.0,0.0,0.0,0.0,0.0,0.0,0.0,0.0,0.0,0.0,0.0,0.0,0.0,0.0,0.0,0.0,0.0,0.0,0.0,0.0,0.0,0.0,0.0,0.0,0.0,0.0,0.0,0.0,0.0,0.0,0.0,0.0,0.0,0.0,0.0,0.0,0.0,0.0,0.0,0.0,0.0,0.0,0.0,0.0,0.0,0.0,0.0,0.0,0.0,0.0,0.0,0.0,0.0,0.0,0.0,0.0,0.0,0.0,0.0,0.0,0.0,0.0,0.0,0.0,0.0,0.0,0.0,0.0,0.0,0.0,0.0,0.0,0.0,0.0,0.0,0.0,0.0,0.0,0.0,0.0,-1.1912,-1.4389,-1.688,-1.8354,-1.8339,-1.6641,-1.4757,-1.2944,0.0,0.0,0.0,0.0,0.0,0.0,0.0,0.0,0.0,0.0,0.0,0.0,0.0,0.0,0.0,0.0,0.0,0.0,0.0,0.0,0.0,0.0,0.0,0.0,0.0,0.0,0.0,0.0,0.0,0.0,0.0,0.0,0.0,0.0,0.0,0.0,0.0,0.0,0.0,0.0,0.0,0.0,0.0,0.0,0.0,0.0,0.0,0.0,0.0,0.0,0.0,0.0,0.0,0.0,0.0,0.0,0.0,0.0,0.0,0.0,0.0,0.0,0.0,0.0,0.0,0.0,0.0,0.0,0.0,0.0,0.0,0.0,0.0,0.0,0.0,0.0,0.0,0.0,0.0,0.0,0.0,0.0,0.0,0.0,0.0,0.0,0.0,0.0,0.0,0.0,0.0,0.0,0.0,0.0,0.0,0.0,0.0,0.0,0.0,0.0,0.0,0.0,0.0,0.0,-1.4205,-1.8034,-1.8923,-1.9389,-1.9835,-1.7038,-1.4856,-1.3917,0.0,0.0,0.0,0.0,0.0,0.0,0.0,0.0,0.0,0.0,0.0,0.0,0.0,0.0,0.0,0.0,0.0,0.0,0.0,0.0,0.0,0.0,0.0,0.0,0.0,0.0,0.0,0.0,0.0,0.0,0.0,0.0,0.0,0.0,0.0,0.0,0.0,0.0,0.0,0.0,0.0,0.0,0.0,0.0,0.0,0.0,0.0,0.0,0.0,0.0,0.0,0.0,0.0,0.0,0.0,0.0,0.0,0.0,0.0,0.0,0.0,0.0,0.0,0.0,0.0,0.0,0.0,0.0,0.0,0.0,0.0,0.0,0.0,0.0,0.0,0.0,0.0,0.0,0.0,0.0,0.0,0.0,0.0,0.0,0.0,0.0,0.0,0.0,0.0,0.0,0.0,0.0,0.0,0.0,0.0,0.0,0.0,0.0,0.0,0.0,0.0,0.0,0.0,-1.4663,-1.6862,-1.9707,-2.0633,-2.0991,-2.0768,-1.8286,-1.6109,-1.4719,-1.2779,0.0,0.0,0.0,0.0,0.0,0.0,0.0,0.0,0.0,0.0,0.0,0.0,0.0,0.0,0.0,0.0,0.0,0.0,0.0,0.0,0.0,0.0,0.0,0.0,0.0,0.0,0.0,0.0,0.0,0.0,0.0,0.0,0.0,0.0,0.0,0.0,0.0,0.0,0.0,0.0,0.0,0.0,0.0,0.0,0.0,0.0,0.0,0.0,0.0,0.0,0.0,0.0,0.0,0.0,0.0,0.0,0.0,0.0,0.0,0.0,0.0,0.0,0.0,0.0,0.0,0.0,0.0,0.0,0.0,0.0,0.0,0.0,0.0,0.0,0.0,0.0,0.0,0.0,0.0,0.0,0.0,0.0,0.0,0.0,0.0,0.0,0.0,0.0,0.0,0.0,0.0,0.0,0.0,0.0,0.0,0.0,0.0,0.0,0.0,0.0,0.0,0.0,-1.6758,-1.8398,-2.0253,-2.1387,-2.1777,-2.1133,-1.9102,-1.7147,-1.5439,-1.3691,0.0,0.0,0.0,0.0,0.0,0.0,0.0,0.0,0.0,0.0,0.0,0.0,0.0,0.0,0.0,0.0,0.0,0.0,0.0,0.0,0.0,0.0,0.0,0.0,0.0,0.0,0.0,0.0,0.0,0.0,0.0,0.0,0.0,0.0,0.0,0.0,0.0,0.0,0.0,0.0,0.0,0.0,0.0,0.0,0.0,0.0,0.0,0.0,0.0,0.0,0.0,0.0,0.0,0.0,0.0,0.0,0.0,0.0,0.0,0.0,0.0,0.0,0.0,0.0,0.0,0.0,0.0,0.0,0.0,0.0,0.0,0.0,0.0,0.0,0.0,0.0,0.0,0.0,0.0,0.0,0.0,0.0,0.0,0.0,0.0,0.0,0.0,0.0,0.0,0.0,0.0,0.0,0.0,0.0,0.0,0.0,0.0,0.0,0.0,0.0,0.0,0.0,-1.62,-1.7603,-1.9727,-2.041,-2.0723,-2.0664,-1.8688,-1.7031,-1.6083,-1.4398,0.0,0.0,0.0,0.0,0.0,0.0,0.0,0.0,0.0,0.0,0.0,0.0,0.0,0.0,0.0,0.0,0.0,0.0,0.0,0.0,0.0,0.0,0.0,0.0,0.0,0.0,0.0,0.0,0.0,0.0,0.0,0.0,0.0,0.0,0.0,0.0,0.0,0.0,0.0,0.0,0.0,0.0,0.0,0.0,0.0,0.0,0.0,0.0,0.0,0.0,0.0,0.0,0.0,0.0,0.0,0.0,0.0,0.0,0.0,0.0,0.0,0.0,0.0,0.0,0.0,0.0,0.0,0.0,0.0,0.0,0.0,0.0,0.0,0.0,0.0,0.0,0.0,0.0,0.0,0.0,0.0,0.0,0.0,0.0,0.0,0.0,0.0,0.0,0.0,0.0,0.0,0.0,0.0,0.0,0.0,0.0,0.0,0.0,0.0,0.0,0.0,0.0,-1.696,-1.8325,0.0,-2.0879,-2.0762,-2.0215,-1.8457,-1.6894,-1.5723,0.0,0.0,0.0,0.0,0.0,0.0,0.0,0.0,0.0,0.0,0.0,0.0,0.0,0.0,0.0,0.0,0.0,0.0,0.0,0.0,0.0,0.0,0.0,0.0,0.0,0.0,0.0,0.0,0.0,0.0,0.0,0.0,0.0,0.0,0.0,0.0,0.0,0.0,0.0,0.0,0.0,0.0,0.0,0.0,0.0,0.0,0.0,0.0,0.0,0.0,0.0,0.0,0.0,0.0,0.0,0.0,0.0,0.0,0.0,0.0,0.0,0.0,0.0,0.0,0.0,0.0,0.0,0.0,0.0,0.0,0.0,0.0,0.0,0.0,0.0,0.0,0.0,0.0,0.0,0.0,0.0,0.0,0.0,0.0,0.0,0.0,0.0,0.0,0.0,0.0,0.0,0.0,0.0,0.0,0.0,0.0,0.0,0.0,0.0,0.0,0.0,0.0,-1.6269,-1.7285,-1.8574,0.0,-2.0781,-2.0411,-1.9553,-1.7949,-1.6465,-1.5293,0.0,0.0,0.0,0.0,0.0,0.0,0.0,0.0,0.0,0.0,0.0,0.0,0.0,0.0,0.0,0.0,0.0,0.0,0.0,0.0,0.0,0.0,0.0,0.0,0.0,0.0,0.0,0.0,0.0,0.0,0.0,0.0,0.0,0.0,0.0,0.0,0.0,0.0,0.0,0.0,0.0,0.0,0.0,0.0,0.0,0.0,0.0,0.0,0.0,0.0,0.0,0.0,0.0,0.0,0.0,0.0,0.0,0.0,0.0,0.0,0.0,0.0,0.0,0.0,0.0,0.0,0.0,0.0,0.0,0.0,0.0,0.0,0.0,0.0,0.0,0.0,0.0,0.0,0.0,0.0,0.0,0.0,0.0,0.0,0.0,0.0,0.0,0.0,0.0,0.0,0.0,0.0,0.0,0.0,0.0,0.0,0.0,0.0,0.0,0.0,0.0,0.0,-1.587,-1.6868,-1.8047,-1.9746,-1.9922,-1.957,-1.8676,-1.7051,-1.5733,0.0,0.0,0.0,0.0,0.0,0.0,0.0,0.0,0.0,0.0,0.0,0.0,0.0,0.0,0.0,0.0,0.0,0.0,0.0,0.0,0.0,0.0,0.0,0.0,0.0,0.0,0.0,0.0,0.0,0.0,0.0,0.0,0.0,0.0,0.0,0.0,0.0,0.0,0.0,0.0,0.0,0.0,0.0,0.0,0.0,0.0,0.0,0.0,0.0,0.0,0.0,0.0,0.0,0.0,0.0,0.0,0.0,0.0,0.0,0.0,0.0,0.0,0.0,0.0,0.0,0.0,0.0,0.0,0.0,0.0,0.0,0.0,0.0,0.0,0.0,0.0,0.0,0.0,0.0,0.0,0.0,0.0,0.0,0.0,0.0,0.0,0.0,0.0,0.0,0.0,0.0,0.0,0.0,0.0,0.0,0.0,0.0,0.0,0.0,0.0,0.0,0.0,0.0,-1.6309,-1.7285,-1.8477,-2.0233,-2.0098,-1.957,-1.8676,-1.7051,-1.5733,-1.4872,0.0,0.0,0.0,0.0,0.0,0.0,0.0,0.0,0.0,0.0,0.0,0.0,0.0,0.0,0.0,0.0,0.0,0.0,0.0,0.0,0.0,0.0,0.0,0.0,0.0,0.0,0.0,0.0,0.0,0.0,0.0,0.0,0.0,0.0,0.0,0.0,0.0,0.0,0.0,0.0,0.0,0.0,0.0,0.0,0.0,0.0,0.0,0.0,0.0,0.0,0.0,0.0,0.0,0.0,0.0,0.0,0.0,0.0,0.0,0.0,0.0,0.0,0.0,0.0,0.0,0.0,0.0,0.0,0.0,0.0,0.0,0.0,0.0,0.0,0.0,0.0,0.0,0.0,0.0,0.0,0.0,0.0,0.0,0.0,0.0,0.0,0.0,0.0,0.0,0.0,0.0,0.0,0.0,0.0,0.0,0.0,0.0,0.0,0.0,0.0,0.0,0.0,-1.6269,-1.7363,-1.8594,-2.0137,-1.9922,-1.9375,-1.8656,-1.6894,-1.5625,-1.5187,0.0,0.0,0.0,0.0,0.0,0.0,0.0,0.0,0.0,0.0,0.0,0.0,0.0,0.0,0.0,0.0,0.0,0.0,0.0,0.0,0.0,0.0,0.0,0.0,0.0,0.0,0.0,0.0,0.0,0.0,0.0,0.0,0.0,0.0,0.0,0.0,0.0,0.0,0.0,0.0,0.0,0.0,0.0,0.0,0.0,0.0,0.0,0.0,0.0,0.0,0.0,0.0,0.0,0.0,0.0,0.0,0.0,0.0,0.0,0.0,0.0,0.0,0.0,0.0,0.0,0.0,0.0,0.0,0.0,0.0,0.0,0.0,0.0,0.0,0.0,0.0,0.0,0.0,0.0,0.0,0.0,0.0,0.0,0.0,0.0,0.0,0.0,0.0,0.0,0.0,0.0,0.0,0.0,0.0,0.0,0.0,0.0,0.0,0.0,0.0,0.0,0.0,-1.6118,-1.7454,-1.8705,-1.9915,-1.9679,-1.919,-1.852,-1.657,-1.5453,-1.5635,0.0,0.0,0.0,0.0,0.0,0.0,0.0,0.0,0.0,0.0,0.0,0.0,0.0,0.0,0.0,0.0,0.0,0.0,0.0,0.0,0.0,0.0,0.0,0.0,0.0,0.0,0.0,0.0,0.0,0.0,0.0,0.0,0.0,0.0,0.0,0.0,0.0,0.0,0.0,0.0,0.0,0.0,0.0,0.0,0.0,0.0,0.0,0.0,0.0,0.0,0.0,0.0,0.0,0.0,0.0,0.0,0.0,0.0,0.0,0.0,-1.7697,0.0,0.0,0.0,0.0,0.0,0.0,0.0,0.0,0.0,0.0,0.0,0.0,0.0,0.0,0.0,0.0,0.0,0.0,0.0,0.0,0.0,0.0,0.0,0.0,0.0,0.0,0.0,0.0,0.0,0.0,0.0,0.0,0.0,0.0,0.0,0.0,0.0,0.0,0.0,0.0,0.0,-1.7495,-1.9104,-2.0319,-2.1001,-2.0715,-1.969,-1.7821,-1.6269,-1.5334,-1.5252,-1.4208,0.0,0.0,0.0,0.0,0.0,0.0,0.0,0.0,0.0,0.0,0.0,0.0,0.0,0.0,0.0,0.0,0.0,0.0,0.0,0.0,0.0,0.0,0.0,0.0,0.0,0.0,0.0,0.0,0.0,0.0,0.0,0.0,0.0,0.0,0.0,0.0,0.0,0.0,0.0,0.0,0.0,0.0,0.0,0.0,0.0,0.0,0.0,0.0,0.0,0.0,0.0,0.0,0.0,0.0,0.0,0.0,0.0,0.0,0.0,0.0,-1.9659,0.0,0.0,0.0,0.0,0.0,0.0,0.0,0.0,0.0,0.0,0.0,0.0,0.0,0.0,0.0,0.0,0.0,0.0,0.0,0.0,0.0,0.0,0.0,0.0,0.0,0.0,0.0,0.0,0.0,0.0,0.0,0.0,0.0,0.0,0.0,0.0,0.0,0.0,0.0,0.0,-1.7578,-1.8887,-2.0053,-2.1177,-2.0896,-2.0252,-1.9309,-1.7215,-1.6161,-1.6758,-1.5085,0.0,0.0,0.0,0.0,0.0,0.0,0.0,0.0,0.0,0.0,0.0,0.0,0.0,0.0,0.0,0.0,0.0,0.0,0.0,0.0,0.0,0.0,0.0,0.0,0.0,0.0,0.0,0.0,0.0,0.0,0.0,0.0,0.0,0.0,0.0,0.0,0.0,0.0,0.0,0.0,0.0,0.0,0.0,0.0,0.0,0.0,0.0,0.0,0.0,0.0,0.0,0.0,0.0,-2.4844,-2.543,-2.6172,-2.5957,-2.6016,-2.6103,-2.353,-2.1992,-2.1271,-2.1036,0.0,0.0,0.0,0.0,0.0,0.0,0.0,0.0,0.0,0.0,0.0,0.0,0.0,0.0,0.0,0.0,0.0,0.0,0.0,0.0,0.0,0.0,0.0,0.0,-2.0312,-2.0018,-1.7852,0.0,0.0,0.0,0.0,0.0,0.0,0.0,0.0,0.0,0.0,0.0,-1.7737,-1.8781,-1.994,-2.1317,-2.0979,-2.0712,-2.0806,-1.8286,-1.7197,-1.841,-1.6126,-1.5047,0.0,0.0,0.0,0.0,0.0,0.0,0.0,0.0,0.0,0.0,0.0,0.0,0.0,0.0,0.0,0.0,0.0,0.0,0.0,0.0,0.0,0.0,0.0,0.0,0.0,0.0,0.0,0.0,0.0,0.0,0.0,0.0,-1.4993,-1.565,0.0,0.0,0.0,0.0,0.0,0.0,0.0,0.0,0.0,0.0,0.0,0.0,0.0,-2.4614,-2.5167,-2.6956,-2.7649,-2.7239,-2.9062,-2.9258,-2.7988,-2.8672,-2.8809,-2.8457,-2.7695,0.0,-2.3828,-2.2715,0.0,0.0,0.0,0.0,0.0,0.0,0.0,0.0,0.0,0.0,0.0,0.0,0.0,0.0,0.0,0.0,0.0,0.0,0.0,0.0,0.0,0.0,-2.0859,-2.0605,-2.0566,-2.0507,0.0,-1.9219,-1.8188,-1.7396,-1.6672,0.0,0.0,0.0,0.0,0.0,0.0,0.0,-1.9927,-2.1558,-2.2493,-2.2494,-2.2028,-2.1059,-1.9501,-1.8213,-1.7616,-1.797,-1.6809,-1.6197,-1.6288,-1.586,0.0,0.0,0.0,0.0,0.0,0.0,0.0,0.0,0.0,0.0,0.0,0.0,0.0,0.0,0.0,0.0,0.0,0.0,0.0,0.0,0.0,0.0,0.0,0.0,0.0,0.0,0.0,0.0,0.0,-1.588,-1.6902,-1.7987,-1.8443,-1.8752,0.0,0.0,0.0,0.0,0.0,0.0,0.0,0.0,0.0,-2.5371,-2.6602,-2.7559,-2.8242,-2.9668,-3.0312,-3.0272,-3.1387,-3.1562,-3.084,-3.1211,-3.1152,-3.0742,-3.0547,-2.9394,-2.7519,-2.5508,-2.4258,-2.3477,0.0,0.0,0.0,0.0,-2.2207,-2.2422,-2.2715,-2.2656,-2.2461,-2.2617,0.0,0.0,0.0,0.0,0.0,0.0,0.0,0.0,0.0,0.0,-2.1602,-2.166,-2.1836,-2.1953,-2.1719,-2.1035,-2.0059,0.0,-1.8179,-1.7611,-1.6602,0.0,0.0,0.0,0.0,-1.8507,-2.1051,-2.1752,-2.2372,-2.3347,-2.2389,-2.1482,-2.0936,-1.9249,-1.8316,-1.8509,-1.7436,-1.6691,-1.6475,-1.623,-1.6129,0.0,0.0,0.0,0.0,0.0,0.0,0.0,0.0,0.0,0.0,0.0,0.0,0.0,0.0,0.0,0.0,0.0,0.0,0.0,0.0,0.0,0.0,0.0,0.0,0.0,0.0,0.0,0.0,-1.8145,-1.9092,-2.0082,-2.1043,-2.1452,0.0,0.0,0.0,0.0,0.0,0.0,-2.4727,-2.5801,-2.7129,-2.8824,-2.9746,-3.0644,-3.1523,-3.2187,-3.2676,-3.2988,-3.3301,-3.3398,-3.3281,-3.3281,-3.3047,-3.2637,-3.2422,-3.1777,-3.0664,-2.8086,-2.6328,-2.5195,-2.4668,-2.4336,-2.416,-2.4258,-2.4355,-2.4512,-2.4969,-2.4863,-2.457,-2.4473,-2.3789,-2.2832,-2.1931,0.0,0.0,0.0,0.0,-2.1387,-2.1406,-2.1894,-2.2422,-2.2617,-2.2867,-2.3003,-2.2734,-2.2422,-2.1719,0.0,-1.9512,-1.8887,-1.7598,0.0,0.0,0.0,0.0,-1.9393,-2.2173,-2.2158,-2.2476,-2.3841,-2.2498,-2.1644,-2.2071,-2.0177,-1.8995,-1.9008,-1.8118,-1.7313,-1.6729,-1.6748,-1.6651,-1.65,0.0,0.0,0.0,0.0,0.0,0.0,0.0,0.0,0.0,0.0,0.0,0.0,0.0,0.0,0.0,0.0,0.0,0.0,0.0,0.0,0.0,0.0,0.0,0.0,0.0,0.0,0.0,0.0,0.0,-2.1147,-2.3335,0.0,0.0,0.0,0.0,-2.3691,-2.5586,-2.6973,-2.7493,-2.9062,-3.0586,-3.1894,-3.3164,-3.4238,-3.5117,-3.5176,-3.5215,-3.5234,-3.5254,-3.5039,-3.4609,-3.4609,-3.4375,-3.3926,-3.3125,-3.2734,-3.2461,-2.9863,-2.8281,-2.7474,-2.6582,-2.6484,-2.6719,-2.5888,-2.5898,-2.6133,-2.5399,-2.5106,-2.5223,-2.5996,-2.5371,-2.416,-2.3257,-2.2711,0.0,0.0,-2.2383,-2.3359,-2.2168,-2.2773,-2.3594,-2.3159,-2.3081,-2.3081,-2.3062,-2.3042,-2.2652,0.0,-2.0137,-1.9258,-1.918,0.0,-1.8496,-2.019,-2.0882,-2.1874,-2.3679,-2.3866,-2.3898,-2.4004,-2.2498,-2.1493,-2.1518,-2.0437,-1.9534,-1.9033,-1.8958,-1.8432,-1.7398,-1.7348,-1.7074,-1.65,-1.65,0.0,0.0,0.0,0.0,0.0,0.0,0.0,0.0,0.0,0.0,0.0,0.0,0.0,0.0,0.0,0.0,0.0,0.0,0.0,0.0,0.0,0.0,0.0,0.0,0.0,0.0,0.0,0.0,-2.5693,-2.7305,0.0,-2.6934,-2.7129,-2.7363,-2.75,-2.9004,-3.0098,-3.0605,-3.2187,-3.3457,-3.4219,-3.5215,-3.6035,-3.6621,-3.6348,-3.6348,-3.6621,-3.6055,-3.5703,-3.5547,-3.5273,-3.4902,-3.4434,-3.3867,-3.3457,-3.3105,-3.1914,-3.0586,-2.9219,-2.8359,-2.7949,-2.7793,-2.75,-2.7656,-2.793,-2.7344,-2.7148,-2.707,-2.6543,-2.5684,-2.4785,-2.4473,-2.4082,-2.3672,-2.3379,-2.373,-2.4082,-2.3633,-2.3652,-2.375,-2.3594,-2.3296,-2.3101,-2.3101,-2.3101,-2.2964,-2.2516,-2.1641,-2.0918,-2.0696,-2.0185,-2.0326,-2.1855,-2.2262,-2.3006,-2.4803,-2.4431,-2.413,-2.4481,-2.3025,-2.187,-2.1518,-2.0817,-1.9987,-1.9058,-1.9008,-1.8506,-1.7448,-1.7727,-1.7652,-1.7074,-1.7074,-1.7074,0.0,0.0,0.0,0.0,0.0,0.0,0.0,0.0,0.0,0.0,0.0,0.0,0.0,0.0,0.0,0.0,0.0,0.0,0.0,0.0,0.0,0.0,0.0,0.0,0.0,0.0,-2.8008,-2.8848,-3.0469,-3.1172,-3.0312,-3.0605,-3.0859,-3.0859,-3.2207,-3.3164,-3.3457,-3.4668,-3.5644,-3.623,-3.6797,-3.7305,-3.7734,-3.7305,-3.7226,-3.75,-3.6641,-3.623,-3.623,-3.5644,-3.5234,-3.4902,-3.4316,-3.3906,-3.3594,-3.3027,-3.2031,-3.0801,-3.0078,-2.9531,-2.916,-2.8984,-2.9101,-2.9277,-2.8691,-2.8418,-2.8125,-2.7148,-2.6476,-2.5967,-2.5762,-2.543,-2.5059,-2.4855,-2.4816,-2.4766,-2.4316,-2.4219,-2.4102,-2.3672,-2.3457,-2.3276,-2.312,-2.3101,-2.3101,-2.3101,-2.2578,-2.2022,-2.182,-2.1442,-2.1623,-2.283,-2.334,-2.4102,-2.5448,-2.5162,-2.4833,-2.48,-2.3446,-2.2297,-2.1543,-2.1169,-2.0388,-1.9083,-1.9359,-1.9007,-1.7702,-1.8179,-1.8229,-1.7677,-1.7652,-1.7652,-1.7652,0.0,0.0,0.0,0.0,0.0,0.0,0.0,0.0,0.0,0.0,0.0,0.0,0.0,0.0,0.0,0.0,0.0,0.0,0.0,0.0,0.0,0.0,0.0,-2.5293,-2.8184,-3.0314,-3.0372,-3.2656,-3.3535,-3.1875,-3.3594,-3.4453,-3.3613,-3.5156,-3.6113,-3.6074,-3.6504,-3.7109,-3.791,-3.793,-3.8144,-3.8574,-3.8144,-3.793,-3.793,-3.709,-3.6699,-3.668,-3.582,-3.543,-3.5391,-3.4492,-3.4101,-3.4023,-3.3184,-3.2578,-3.2129,-3.168,-3.1269,-3.084,-3.0391,-3.0215,-3.0078,-2.9238,-2.8672,-2.8242,-2.7865,-2.7728,-2.765,-2.7168,-2.6738,-2.6309,-2.583,-2.5713,-2.5421,-2.418,-2.4453,-2.4746,-2.3432,-2.3496,-2.3672,-2.3198,-2.3101,-2.3101,-2.3101,-2.2812,-2.2562,-2.2562,-2.2252,-2.2308,-2.3241,-2.4334,0.0,-2.558,-2.611,-2.6072,-2.4926,-2.3822,-2.2694,-2.1619,-2.1518,-2.0815,-1.9133,-2.0062,-1.9937,-1.8304,-1.8732,-1.8757,-1.8229,-1.8229,-1.8229,-1.8229,0.0,0.0,0.0,0.0,0.0,0.0,0.0,0.0,0.0,0.0,0.0,0.0,0.0,0.0,0.0,0.0,0.0,0.0,0.0,0.0,0.0,0.0,-2.8926,-2.8809,-3.0957,-3.3144,-3.4707,-3.5801,-3.6348,-3.6172,-3.6699,-3.6934,-3.6699,-3.7695,-3.8047,-3.7441,-3.8105,-3.832,-3.793,-3.8223,-3.8457,-3.8574,-3.8144,-3.8086,-3.8379,-3.7539,-3.7285,-3.7559,-3.6699,-3.6328,-3.6269,-3.541,-3.4844,-3.4473,-3.3945,-3.3105,-3.2129,-3.168,-3.1269,-3.0879,-3.0742,-3.0488,-3.0117,-2.957,-2.9101,-2.8672,-2.8262,-2.791,-2.7689,-2.7519,-2.7187,-2.6758,-2.6328,-2.6211,-2.6055,-2.5371,-2.5137,-2.4902,-2.4219,-2.3926,-2.3672,-2.3198,-2.3101,-2.3101,-2.3101,-2.3657,-2.4051,-2.3658,-2.4134,-2.4679,-2.4937,-2.593,0.0,-2.6297,-2.6018,-2.5711,-2.541,-2.4725,-2.3722,-2.2221,-2.2096,-2.1368,-1.9685,-1.9861,-1.966,-1.8807,-1.9309,-1.9334,-1.8782,-1.8782,-1.8782,0.0,0.0,0.0,0.0,0.0,0.0,0.0,0.0,0.0,0.0,0.0,0.0,0.0,0.0,0.0,0.0,0.0,0.0,0.0,0.0,0.0,0.0,-3.0215,-3.2207,-3.3281,-3.4355,-3.5723,-3.7519,-3.8125,-3.8476,-3.873,-3.8906,-3.8945,-3.8769,-3.9375,-3.9453,-3.8789,-3.9043,-3.9062,-3.8769,-3.8633,-3.8652,-3.8828,-3.8418,-3.832,-3.8555,-3.7715,-3.7422,-3.7637,-3.6777,-3.6406,-3.6367,-3.5684,-3.5234,-3.4941,-3.4316,-3.3535,0.0,0.0,0.0,0.0,0.0,-3.0586,-3.0156,-2.9922,-2.9551,-2.9121,-2.8691,-2.8398,-2.8164,-2.7988,-2.7637,-2.7226,-2.6992,-2.666,-2.6289,-2.581,-2.5547,-2.5195,-2.457,-2.4375,-2.4199,-2.3769,-2.3491,-2.3531,-2.3951,-2.4463,0.0,-2.4993,-2.5546,-2.5886,-2.5639,-2.6569,-2.6993,-2.6233,-2.6213,-2.6113,-2.5636,-2.5134,-2.4199,-2.2744,-2.2447,0.0,0.0,0.0,-1.9911,-1.9359,-1.9635,0.0,0.0,0.0,-1.9334,-1.9334,0.0,0.0,0.0,-1.8882,-1.9401,0.0,0.0,0.0,0.0,0.0,0.0,0.0,0.0,0.0,0.0,0.0,0.0,0.0,0.0,0.0,0.0,-3.332,-3.5351,-3.7812,-3.7871,-3.8066,-3.9141,-3.9687,-3.9961,-3.9961,-4.0351,-4.0449,-4.0078,-4.0391,-4.041,-3.998,0.0,0.0,0.0,0.0,-3.8828,-3.9199,-3.8789,-3.8574,-3.8555,-3.7812,-3.7441,-3.7422,-3.6601,-3.6211,-3.6133,-3.5723,-3.5449,-3.5254,-3.4473,-3.3809,-3.3203,-3.2402,-3.1601,-3.0898,-3.0898,-3.0625,-3.0273,-3.0215,0.0,0.0,-2.9141,-2.8984,-2.8906,-2.8496,-2.8105,-2.7845,-2.7748,-2.7129,-2.6426,-2.5947,-2.5791,-2.5557,-2.4766,-2.4824,-2.4941,-2.4512,-2.4121,-2.4143,-2.5039,-2.5122,-2.5359,-2.6318,-2.6607,-2.6467,-2.5869,-2.6753,-2.7057,-2.5933,-2.6672,-2.6866,-2.5812,0.0,0.0,-2.3296,-2.2694,-2.192,-2.0867,-2.0792,-2.049,-1.9836,-1.9861,-1.9886,-1.9886,-1.9886,-1.9936,-1.9987,-1.9987,-1.9987,-1.9987,-1.9861,-2.0144,0.0,0.0,0.0,0.0,0.0,0.0,0.0,0.0,0.0,0.0,0.0,0.0,0.0,0.0,0.0,-3.3223,-3.5605,-3.7734,-3.9297,-3.9746,-3.9863,-3.9766,-4.0137,-4.041,-4.041,-4.0801,-4.1016,-4.0937,-4.0996,-4.0859,-4.043,-4.0312,-4.0156,-3.9902,-3.9375,-3.9121,-3.9199,-3.8789,-3.8574,-3.8574,0.0,0.0,-3.8301,-3.7793,-3.7383,-3.7031,-3.6601,-3.582,-3.4824,-3.4648,-3.3711,-3.2363,-3.1836,-3.1328,-3.0898,-3.0898,-3.084,-3.0703,-3.0332,-3.0137,-3.0,-2.959,-2.9453,-2.9355,-2.8926,-2.875,0.0,-2.7851,-2.7591,-2.7324,-2.6875,-2.6523,-2.6133,-2.5557,-2.5273,-2.4941,-2.4512,-2.4355,-2.4245,-2.4117,-2.5504,-2.6637,-2.6509,-2.7197,-2.7599,-2.7058,-2.7926,-2.8201,-2.7108,-2.7162,-2.7052,-2.6399,-2.5787,-2.5008,-2.3929,-2.3271,-2.2498,-2.1393,-2.137,-2.0865,-1.9836,-2.0289,-2.0541,-2.0541,-2.0541,-2.0742,-2.1167,-2.1167,-2.1167,-2.1142,-2.0238,-2.0144,0.0,0.0,0.0,0.0,0.0,0.0,0.0,0.0,0.0,0.0,0.0,-2.875,0.0,0.0,-3.416,-3.6289,-3.791,-3.9297,-4.0391,-4.0723,-4.0762,-4.0566,-4.0723,-4.084,-4.084,-4.1035,-4.1172,-4.1172,-4.1172,-4.1074,-4.0859,-4.0644,-4.0527,-4.0527,-3.9668,-3.9316,-3.9551,-3.8906,-3.8574,-3.8574,-3.8359,-3.8242,-3.8223,-3.7578,-3.7187,-3.6953,-3.6309,-3.5664,-3.5019,-3.457,-3.3633,-3.2441,-3.2012,-3.1445,-3.0898,-3.0898,-3.0898,-3.0859,-3.0625,-3.0547,-3.0469,-3.0019,-2.9883,-2.9766,-2.9121,-2.8926,-2.8789,-2.8164,-2.7885,-2.7669,-2.7402,-2.7031,-2.6641,-2.6426,-2.6035,-2.5664,-2.5449,-2.5059,-2.4854,-2.5168,-2.5816,-2.6581,-2.7511,-2.7911,-2.8115,-2.8076,-2.8561,-2.8587,-2.7795,-2.7695,-2.7469,-2.6977,-2.6399,-2.5586,-2.4506,-2.3376,-2.2372,-2.1543,-2.1493,-2.1242,-2.0665,-2.0943,-2.1094,-2.1094,-2.1094,-2.1245,-2.1493,-2.1493,-2.1493,-2.1496,-2.0916,-2.0827,0.0,0.0,0.0,0.0,0.0,0.0,0.0,0.0,-2.8027,-2.9394,-3.0625,-3.209,-3.4199,-3.543,-3.6875,-3.9101,-3.9844,-4.041,-4.1191,-4.123,-4.1172,-4.1172,-4.1172,-4.1172,-4.1172,-4.1172,-4.1172,-4.1172,-4.1172,-4.1172,-4.1172,-4.084,-4.082,-4.1172,-3.998,-3.9551,-4.0019,-3.9062,-3.8613,-3.8691,-3.8262,-3.8047,-3.8027,-3.7266,-3.6875,-3.6738,-3.5801,-3.5351,-3.5195,-3.4394,-3.3516,-3.2637,-3.2305,-3.1641,-3.0898,-3.0898,-3.0898,-3.0898,-3.0898,-3.0898,-3.082,-3.0449,-3.0332,-3.0176,-2.9297,-2.9043,-2.8945,-2.8437,-2.8047,-2.7845,-2.7845,-2.7461,-2.7148,-2.7148,-2.6816,-2.6484,-2.6406,-2.582,-2.5635,-2.6558,-2.6238,-2.6498,-2.848,-2.8602,-2.8582,-2.8999,-2.9063,-2.89,-2.8348,-2.8273,-2.8021,-2.7344,-2.6826,-2.6047,-2.4876,-2.3477,-2.2397,-2.1845,-2.182,-2.1719,-2.1493,-2.1594,-2.1644,-2.1644,-2.1644,-2.1694,-2.182,-2.182,-2.182,-2.182,-2.182,-2.1694,-2.4631,-2.5141,-2.5741,-2.7266,-2.7565,-2.8516,0.0,0.0,-3.2559,-3.4258,-3.5312,-3.6035,-3.6328,-3.7695,-3.9121,-4.0195,-4.0742,-4.1191,-4.166,-4.1406,-4.1172,-4.1172,-4.1172,-4.1172,-4.1172,-4.1172,-4.1172,-4.1172,-4.1172,-4.1172,-4.1172,-4.1133,-4.1113,-4.1172,-4.0293,-4.0019,-4.0449,-3.9199,-3.8769,-3.9121,-3.8711,-3.8496,-3.8476,-3.8008,-3.7578,-3.7168,-3.5918,-3.5156,-3.4746,-3.4258,-3.3403,-3.2226,-3.2248,-3.1641,-3.0898,-3.0898,-3.0898,-3.0898,-3.0898,-3.0898,-3.0879,-3.084,-3.082,-3.0644,-2.9766,-2.9492,-2.9336,-2.8516,-2.8262,-2.8223,-2.8223,-2.791,-2.7598,-2.7598,-2.7266,-2.6836,-2.6465,-2.6309,-2.6388,-2.6775,-2.7166,-2.7736,-2.8734,-2.9291,-2.9638,-2.9704,-2.9704,-2.9478,-2.8863,-2.8787,-2.8423,-2.7394,-2.6826,-2.6047,-2.4876,-2.4205,-2.3577,-2.297,-2.292,-2.2468,-2.1518,-2.197,-2.2221,-2.2221,-2.2221,-2.2418,-2.292,-2.292,-2.292,-2.292,-2.292,-2.2393,-2.7668,0.0,0.0,0.0,-3.1367,-3.291,-3.4375,-3.5078,-3.5684,-3.666,-3.7949,-3.8906,-3.8906,-3.9902,-4.0762,0.0,-4.1055,-4.123,-4.1406,-4.1055,-4.0508,-3.9746,-3.9883,-4.0332,-4.1094,-4.0723,-4.0527,-4.0781,-4.0801,-4.0684,-4.0449,-4.0664,-4.0801,-4.0801,-3.9941,-3.9707,-4.0156,-3.9101,-3.8652,-3.8828,-3.8652,-3.8574,-3.8555,-3.7871,-3.7051,-3.6152,-3.5625,-3.5,-3.4316,-3.4141,-3.3457,-3.2519,-3.2266,-3.1797,-3.123,-3.0976,-3.0898,-3.0898,-3.0898,-3.0898,-3.0898,-3.0898,-3.0898,-3.0762,-3.0137,-2.9766,-2.9434,-2.8828,-2.8476,-2.8301,-2.8301,-2.8164,-2.8027,-2.8027,-2.7715,-2.7344,-2.7168,-2.6738,-2.6666,-2.7482,-2.7399,-2.7679,-2.908,-2.9285,-2.9395,-2.9752,-2.9804,-2.9704,-2.9478,-2.9428,-2.9001,-2.7871,-2.7027,-2.6172,-2.5335,-2.4782,-2.4199,-2.3678,-2.3627,-2.3276,-2.2443,-2.2644,-2.2769,-2.2769,-2.2769,-2.2869,-2.3095,-2.3095,-2.3095,-2.3095,-2.3095,-2.2869,-2.9219,0.0,0.0,-3.2598,-3.4922,-3.6816,-3.6543,-3.7461,-3.8496,-3.8906,-3.9805,-4.0527,-4.0527,-4.0937,-4.125,-4.1191,-4.1074,-4.1074,-4.1308,-4.0664,-3.9766,-3.8691,-3.8418,-3.875,-3.9824,-3.9687,-3.9707,-4.0117,-4.0156,-4.0078,-3.9902,-4.0293,-4.0527,-4.0527,-3.9902,-3.9726,-4.0059,-3.918,-3.875,-3.875,-3.8633,-3.8574,-3.8555,-3.7695,-3.666,-3.5566,-3.5449,-3.4961,-3.4238,-3.4121,-3.3496,-3.2598,-3.2285,-3.1836,-3.1309,-3.0996,-3.0898,-3.0898,-3.0898,-3.0898,-3.0898,-3.0898,-3.0898,-3.0801,-3.0332,-2.9902,-2.9473,-2.9043,-2.8613,-2.8301,-2.8301,-2.8301,-2.8301,-2.8301,-2.8066,-2.7865,-2.7748,-2.709,-2.7003,-2.8416,-2.7985,-2.7985,-2.9981,-2.9801,-2.9528,-2.9938,-2.988,-2.9804,-2.9804,-2.9654,-2.9252,-2.8423,-2.7344,-2.6549,-2.6088,-2.5435,-2.4858,-2.4456,-2.4155,-2.3803,-2.3371,-2.3195,-2.3095,-2.3095,-2.3095,-2.3095,-2.3095,-2.3095,-2.3095,-2.3095,-2.3095,-2.3095,0.0,0.0,-3.332,-3.5879,-3.7812,-3.9434,-4.0684,-4.1016,-4.1172,-4.1601,-4.1055,-4.0527,-4.0527,-4.0215,-4.0215,-4.1035,-4.082,-4.084,-4.166,-4.0312,-3.9082,-3.8633,-3.7109,-3.6309,0.0,-3.791,-3.8789,-3.9199,-3.9238,-3.9434,-3.9883,-4.0293,-4.0527,-4.0527,-4.0488,-4.0488,-4.0508,-3.9629,-3.918,-3.918,-3.8769,-3.8574,-3.8555,-3.7695,-3.6816,-3.5976,-3.5566,-3.5117,-3.4648,-3.4238,-3.332,-3.2248,-3.2168,-3.166,-3.0918,-3.0898,-3.0898,-3.0898,-3.0898,-3.0898,-3.0898,-3.0898,-3.0898,-3.0801,-3.0332,-2.9902,-2.9473,-2.9043,-2.8613,-2.8301,-2.8301,-2.8301,-2.8301,-2.8301,-2.8281,-2.8164,-2.7806,-2.7305,-2.7593,-2.9562,-2.9191,-2.9322,-3.1702,-3.1229,-3.0568,-3.0543,-3.0131,-2.9804,-2.9804,-2.9302,-2.8888,-2.8863,-2.7921,-2.7278,-2.7243,-2.6214,-2.5561,-2.5536,-2.4582,-2.3979,-2.3979,-2.3396,-2.3095,-2.3095,-2.3095,-2.3095,-2.3095,-2.3095,-2.3095,-2.3095,-2.3095,-2.3095,0.0,0.0,-3.6758,-3.9082,-4.0937,-4.2383,-4.3144,-4.2851,-4.2226,-4.1523,-4.0,-3.8535,-3.7695,-3.7422,-3.7598,-3.8457,-3.9199,-4.0059,-4.123,-4.0625,-3.9277,-3.7129,-3.6875,0.0,0.0,0.0,0.0,-3.7871,-3.8203,-3.8555,-3.8984,-3.9707,-4.0234,-4.0508,-4.0254,-4.0098,-4.0098,-3.9512,-3.8926,-3.834,-3.793,-3.7578,-3.7305,-3.7012,-3.6426,-3.5605,-3.5449,-3.498,-3.4277,-3.4141,-3.3476,-3.2559,-3.2285,-3.1816,-3.1269,-3.0996,-3.0898,-3.0898,-3.0898,-3.0898,-3.0898,-3.0898,-3.0898,-3.0859,-3.0703,-3.0351,-2.9902,-2.9473,-2.9043,-2.8652,-2.8359,-2.8301,-2.8301,-2.8301,-2.8301,-2.8262,-2.8105,-2.7754,-2.8055,-3.0092,-2.9949,-3.0102,-3.1893,-3.1913,-3.1436,-3.0733,-3.0156,-2.9804,-2.9804,-2.9628,-2.9352,-2.8938,-2.8562,-2.8072,-2.7344,-2.6942,-2.6389,-2.5636,-2.5259,-2.4732,-2.4029,-2.3803,-2.3496,-2.312,-2.3095,-2.3095,-2.3095,-2.3095,-2.3095,-2.3095,-2.3095,-2.3095,0.0,-3.7031,-3.9512,-4.2305,-4.3828,-4.4629,-4.4629,-4.3828,-4.2539,-4.0644,-3.8516,-3.6621,-3.5332,-3.459,-3.4609,-3.5937,-3.6836,-3.8047,-3.998,-3.9609,-3.8535,-3.6894,-3.666,0.0,0.0,0.0,0.0,-3.6758,-3.7519,-3.8105,-3.8555,-3.9551,-4.0234,-4.0508,-4.041,-4.0273,-4.0117,-3.9668,-3.8926,-3.791,-3.75,-3.6992,-3.6445,-3.6445,-3.5957,-3.5137,-3.498,-3.4609,-3.4043,-3.375,-3.3203,-3.2519,-3.2109,-3.168,-3.1269,-3.0996,-3.0898,-3.0898,-3.0898,-3.0898,-3.0898,-3.0898,-3.0898,-3.0898,-3.0898,-3.0566,-3.0137,-2.9863,-2.9473,-2.9043,-2.8633,-2.8516,-2.8476,-2.832,-2.8301,-2.8301,-2.8301,-2.7969,-2.8233,-2.9934,-3.0105,-3.0444,-3.1831,-3.1995,-3.1612,-3.0758,-3.0156,-2.9804,-2.9804,-2.9804,-2.9654,-2.9277,-2.9013,-2.8612,-2.7921,-2.7519,-2.6967,-2.6239,-2.5636,-2.5084,-2.4582,-2.4004,-2.3602,-2.3421,-2.3221,-2.3095,-2.3095,-2.3321,-2.3296,-2.312,-2.3321,-2.3296,-3.7559,-3.9726,-4.168,-4.543,-4.6328,-4.6055,-4.5254,-4.3926,-4.2031,-3.9062,-3.666,-3.4687,0.0,0.0,-3.1504,-3.3652,-3.4141,-3.5293,-3.8281,-3.7656,-3.7168,0.0,0.0,0.0,0.0,0.0,0.0,-3.6016,0.0,-3.8105,-3.8574,-3.9824,-4.0527,-4.0566,-4.0957,-4.0957,-4.0488,-4.0,-3.9141,-3.7891,-3.7422,-3.6777,-3.5996,-3.5957,-3.5488,-3.4648,-3.4238,-3.4062,-3.3965,-3.3144,-3.2559,-3.2148,-3.1699,-3.1269,-3.0918,-3.0898,-3.0898,-3.0898,-3.0898,-3.0898,-3.0898,-3.0898,-3.0898,-3.0898,-3.0898,-3.0586,-3.0234,-3.0195,-2.9922,-2.9512,-2.9062,-2.8945,-2.8848,-2.8457,-2.834,-2.832,-2.832,-2.7988,-2.8093,-2.933,-2.9937,-3.0603,-3.1779,-3.17,-3.126,-3.0733,-3.0181,-2.9829,-2.9804,-2.9804,-2.9804,-2.9804,-2.9302,-2.8913,-2.8888,-2.7946,-2.7318,-2.7293,-2.5787,-2.5109,-2.5586,-2.4048,-2.3471,-2.4029,-2.3471,-2.317,-2.3145,-2.3728,-2.3728,-2.317,-2.3728,-2.3703,-3.9609,-4.2402,-4.4824,-4.6777,-4.6543,-4.5781,-4.5566,-4.2754,-3.9512,-3.7148,-3.3672,-3.0566,0.0,0.0,0.0,-3.2715,-3.5,0.0,-4.0137,-4.0234,0.0,0.0,0.0,-3.7559,-3.5859,-3.6269,0.0,0.0,-3.7266,-3.793,-3.8984,-3.998,-4.0664,-4.0996,-4.1113,-4.082,-4.0059,-3.8652,-3.7793,-3.7441,-3.6387,-3.5762,-3.5547,-3.5195,-3.4746,-3.4219,-3.4121,-3.3887,-3.3555,-3.3008,-3.2734,-3.2559,-3.1816,-3.1445,-3.1328,-3.0996,-3.0898,-3.0898,-3.0898,-3.0898,-3.0898,-3.0898,-3.0898,-3.0898,-3.0898,-3.082,-3.0644,-3.0293,-3.0117,-2.9941,-2.9512,-2.9394,-2.9375,-2.9277,-2.9004,-2.8769,-2.8769,-2.8437,-2.8693,-3.0636,-3.2019,-3.3003,-3.3341,-3.2603,-3.1813,-3.1286,-3.0733,-3.0256,-2.9854,-2.9804,-2.9804,-2.9804,-2.9654,-2.9402,-2.8938,-2.8298,-2.772,-2.7354,-2.6549,-2.5946,-2.5611,-2.5184,-2.4858,-2.4575,-2.4424,-2.4148,-2.3778,-2.3929,-2.3929,-2.3778,-2.3929,-2.3929,-4.2285,-4.4785,-4.6719,-4.7637,-4.6758,-4.5234,-4.3535,-4.0527,-3.7109,-3.3613,-3.0527,0.0,0.0,0.0,0.0,0.0,0.0,0.0,-3.9062,-3.9805,-3.9883,0.0,-3.9473,0.0,-3.7305,-3.7734,-3.8047,0.0,-3.8027,-3.8535,-3.9453,-4.0332,-4.0918,-4.1172,-4.1172,-4.0762,-3.9902,-3.8359,-3.7578,-3.7559,-3.6094,-3.5391,-3.5371,-3.4726,-3.418,-3.3789,0.0,-3.3652,-3.3379,-3.2773,-3.2519,-3.2441,-3.1582,-3.125,-3.1211,-3.0976,-3.0898,-3.0898,-3.0898,-3.0898,-3.0898,-3.0898,-3.0898,-3.0898,-3.0898,-3.0898,-3.084,-3.0566,-3.0508,-3.041,-2.9961,-2.9844,-2.9805,-2.9609,-2.9375,-2.9141,-2.8965,-2.873,-2.9139,-3.1102,-3.2512,-3.3478,-3.3834,-3.2968,-3.2014,-3.1461,-3.0959,-3.0407,-2.9854,-2.9804,-2.9804,-2.9804,-2.9804,-2.9654,-2.9327,-2.88,-2.8222,-2.767,-2.6927,-2.6348,-2.6021,-2.5511,-2.5234,-2.5159,-2.4933,-2.4625,-2.4356,-2.4582,-2.4582,-2.4381,-2.4582,-2.4582,-4.4941,-4.6738,-4.7734,-4.8047,-4.6719,-4.4355,-4.0586,-3.7734,-3.4512,-2.959,0.0,0.0,-2.4961,0.0,-2.6035,-2.875,0.0,-3.3574,-3.7148,-3.8281,-3.9219,-4.0469,-4.0293,-3.9746,-3.8906,-3.916,-3.9219,-3.8867,-3.918,-3.9551,-3.9961,-4.0742,-4.1172,-4.1172,-4.1055,-4.0625,-3.9805,-3.8496,-3.7812,-3.7734,-3.6094,-3.5293,-3.5273,-3.4394,-3.3789,-3.3418,-3.3418,-3.3418,-3.3359,-3.2519,-3.2229,-3.209,-3.123,-3.0898,-3.0898,-3.0898,-3.0898,-3.0898,-3.0898,-3.0898,-3.0898,-3.0898,-3.0898,-3.0898,-3.0898,-3.0898,-3.0898,-3.0898,-3.0898,-3.0801,-3.0391,-3.0293,-3.0195,-2.9844,-2.9687,-2.9551,-2.918,-2.9258,-2.9868,-3.1334,-3.2317,-3.3182,-3.3895,-3.3068,-3.2114,-3.1486,-3.1009,-3.0507,-2.988,-2.9804,-2.9804,-2.9804,-2.9804,-2.9804,-2.9804,-2.9277,-2.8662,-2.8147,-2.7178,-2.6575,-2.6499,-2.5536,-2.5259,-2.5711,-2.5259,-2.5008,-2.4901,-2.5385,-2.536,-2.4933,-2.5385,-2.536,-4.6055,-4.7383,-4.8027,-4.7754,-4.5586,-4.2695,-3.9531,-3.5215,0.0,0.0,0.0,-2.4062,-2.3125,-2.4414,0.0,-3.0019,0.0,0.0,0.0,0.0,-4.0019,0.0,0.0,0.0,0.0,0.0,0.0,0.0,0.0,-4.0332,-4.041,-4.0898,-4.1172,-4.1172,-4.0488,-3.9863,-3.9336,-3.8047,-3.7226,-3.6875,-3.5488,-3.4824,-3.4785,-3.3926,-3.3496,-3.3418,-3.3418,0.0,-3.3359,-3.2519,-3.2229,-3.209,-3.123,-3.0898,-3.0898,-3.0898,-3.0898,-3.0898,-3.0898,-3.0898,-3.0898,-3.0898,-3.0898,-3.0898,-3.0898,-3.0898,-3.0898,-3.0898,-3.0898,-3.0879,-3.0801,-3.0762,-3.0762,-3.0684,-3.0371,-3.0059,-3.0,-3.1166,-3.2243,-3.218,-3.3339,-3.4404,-3.4555,-3.3646,-3.2566,-3.1537,-3.1311,-3.0909,-2.993,-2.9804,-2.9804,-2.9804,-2.9804,-2.9804,-2.9804,-2.9277,-2.8662,-2.8147,-2.7494,-2.6977,-2.6524,-2.6323,-2.6248,-2.6348,-2.6248,-2.5971,-2.546,-2.5561,-2.5561,-2.546,-2.5561,-2.5536,-4.6348,-4.7558,-4.8008,-4.7129,-4.4648,-4.1269,-3.6894,0.0,0.0,0.0,0.0,-2.293,-2.2305,0.0,0.0,0.0,0.0,0.0,0.0,0.0,0.0,0.0,0.0,0.0,0.0,0.0,0.0,0.0,0.0,-4.0859,-4.0859,-4.1055,-4.1074,-4.084,-4.0234,-3.957,-3.8887,-3.7832,-3.7187,-3.6973,-3.543,-3.4824,-3.5019,-3.3926,-3.3418,-3.3418,-3.3418,0.0,-3.3359,-3.2519,-3.2305,-3.2422,-3.1543,-3.1348,-3.1523,-3.1289,-3.1211,-3.1191,-3.0957,-3.0898,-3.0898,-3.0898,-3.0898,-3.0898,-3.0898,-3.0898,-3.0898,-3.0898,-3.0898,-3.0898,-3.0898,-3.0898,-3.0898,-3.0898,-3.0527,-3.0137,-2.9922,-3.1536,-3.2884,-3.237,-3.3601,-3.468,-3.468,-3.3796,-3.2692,-3.1562,-3.1386,-3.1009,-2.993,-2.9804,-2.9804,-2.9804,-2.9804,-2.9804,-2.9804,-2.9528,-2.9126,-2.8574,-2.8273,-2.777,-2.6952,-2.6927,-2.6801,-2.6499,-2.6499,-2.6348,-2.6072,-2.6072,-2.6072,-2.6072,-2.6072,-2.6072,-4.6113,-4.7344,-4.7754,-4.6367,-4.3613,-3.9844,-3.4512,-3.041,0.0,0.0,0.0,-2.2129,-2.1816,0.0,0.0,0.0,0.0,0.0,0.0,0.0,0.0,0.0,0.0,0.0,0.0,0.0,0.0,0.0,0.0,0.0,-4.1172,-4.1074,-4.084,-4.041,-3.9883,-3.918,-3.8301,-3.7539,-3.707,-3.6875,-3.541,-3.4844,-3.5078,-3.3945,-3.3418,-3.3418,-3.3418,0.0,0.0,-3.2617,-3.25,-3.2715,-3.1953,-3.1875,-3.2109,-3.168,-3.1582,-3.1601,-3.1172,-3.1035,-3.1035,-3.1035,-3.0957,-3.0898,-3.0898,-3.0898,-3.0898,-3.0898,-3.0898,-3.0898,-3.0898,-3.0898,-3.0898,-3.0898,-3.0605,-3.0234,-2.9805,-3.1536,-3.2989,-3.2549,-3.3768,-3.4806,-3.4751,-3.3897,-3.2867,-3.1738,-3.1562,-3.1185,-3.0105,-2.9955,-2.993,-2.9804,-2.9804,-2.9804,-2.9804,-2.9804,-2.9553,-2.8938,-2.8888,-2.8473,-2.7494,-2.7344,-2.7178,-2.6851,-2.6625,-2.6549,-2.6675,-2.6549,-2.6499,-2.6499,-2.6499,-2.6499,-4.541,-4.6699,-4.7246,-4.5566,-4.2266,-3.8281,-3.3867,0.0,0.0,0.0,-2.1621,-2.1307,-2.1268,-2.209,0.0,0.0,0.0,0.0,0.0,0.0,0.0,0.0,0.0,0.0,0.0,0.0,0.0,0.0,0.0,0.0,-4.1172,-4.0801,-4.0391,-3.9961,-3.9141,-3.8281,-3.7422,-3.6953,-3.6348,-3.5566,-3.498,-3.4531,-3.418,-3.3652,-3.3418,-3.3418,-3.3418,0.0,0.0,-3.293,-3.2754,-3.2754,-3.2285,-3.2129,-3.2109,-3.168,-3.1758,-3.2051,-3.1601,-3.1465,-3.1465,-3.1465,-3.1211,-3.0898,-3.0898,-3.0898,-3.0898,-3.0898,-3.0898,-3.0898,-3.0898,-3.0898,-3.0898,-3.0898,-3.0859,-3.0703,-3.0234,-3.1944,-3.3428,-3.2989,-3.4268,-3.5257,-3.4756,-3.4223,-3.3445,-3.2315,-3.2139,-3.1763,-3.0683,-3.0532,-3.0357,-2.9854,-2.9804,-2.9804,-2.9804,-2.9804,-2.9553,-2.8938,-2.8888,-2.8612,-2.8047,-2.7544,-2.7494,-2.7946,-2.7002,-2.6751,-2.7253,-2.6751,-2.6499,-2.6499,-2.6499,-2.6499,-4.3008,-4.4668,-4.5371,-4.416,-4.0937,-3.6992,-3.2949,0.0,0.0,0.0,-2.1543,-2.1112,-2.0879,-2.1543,-2.2422,0.0,0.0,0.0,0.0,0.0,0.0,0.0,0.0,0.0,0.0,0.0,0.0,0.0,0.0,0.0,-4.1172,-4.0527,-3.9941,-3.9492,-3.8633,-3.7773,-3.6934,-3.6758,-3.625,-3.5391,-3.4922,-3.4609,-3.4434,-3.373,-3.3555,-3.3809,-3.3535,0.0,0.0,-3.2969,-3.2949,-3.3125,-3.2715,-3.2695,-3.2871,-3.2441,-3.2402,-3.248,-3.2051,-3.1738,-3.1523,-3.1523,-3.123,-3.0898,-3.0898,-3.0898,-3.0898,-3.0898,-3.0898,-3.0898,-3.0898,-3.0898,-3.0898,-3.0898,-3.0898,-3.0762,-3.0293,-3.1367,-3.2511,-3.2923,-3.3679,-3.424,-3.4021,-3.3909,-3.3358,-3.1734,-3.1882,-3.1938,-3.1185,-3.0809,-3.0532,-3.0306,-2.998,-2.9804,-2.9804,-2.9804,-2.9704,-2.9478,-2.9453,-2.9202,-2.8624,-2.8398,-2.8072,-2.762,-2.7203,-2.6927,-2.6826,-2.66,-2.6499,-2.6499,-2.6499,-2.6499,-4.0117,-4.2148,-4.3242,-4.2363,-3.9219,-3.5391,0.0,0.0,0.0,-2.207,-2.1348,-2.0937,-2.0664,-2.1191,-2.1738,0.0,0.0,0.0,0.0,0.0,0.0,0.0,0.0,0.0,0.0,0.0,0.0,0.0,0.0,0.0,0.0,-4.0156,-3.9492,-3.9023,-3.8066,-3.7148,-3.6309,-3.6152,-3.5723,-3.5,-3.4668,-3.4453,-3.4297,-3.3691,-3.3594,-3.3867,-3.3555,0.0,0.0,-3.3105,-3.3144,-3.3398,-3.3105,-3.3164,-3.3379,-3.2949,-3.2871,-3.291,-3.2363,-3.1973,-3.168,-3.1562,-3.123,-3.0898,-3.0898,-3.0898,-3.0898,-3.0898,-3.0898,-3.0898,-3.0898,-3.0898,-3.0898,-3.0898,-3.0898,-3.0801,-3.0469,-3.1147,-3.1972,-3.2494,-3.3027,-3.3377,-3.3481,-3.3635,-3.3338,-3.2047,-3.2315,-3.2441,-3.1738,-3.1311,-3.0959,-3.0658,-3.0256,-2.998,-2.9804,-2.9804,-2.9804,-2.9804,-2.9804,-2.9603,-2.9164,-2.8988,-2.8649,-2.8047,-2.7544,-2.7168,-2.6977,-2.6826,-2.6751,-2.6751,-2.6751,-2.665,-3.6875,-3.9238,-4.0996,-4.0137,-3.6992,-3.332,0.0,0.0,0.0,0.0,-2.0879,-2.0605,-2.0605,-2.0937,-2.1346,0.0,0.0,0.0,0.0,0.0,0.0,0.0,0.0,0.0,0.0,0.0,0.0,0.0,0.0,0.0,0.0,-3.9687,-3.9004,-3.8594,-3.7344,-3.6269,-3.541,-3.4941,-3.4512,-3.4082,-3.4082,-3.3848,-3.3437,-3.3418,-3.3418,0.0,0.0,0.0,0.0,-3.3418,-3.3418,-3.3418,-3.3418,-3.3418,-3.3379,-3.2949,-3.3066,-3.3301,-3.2461,-3.2229,-3.209,-3.166,-3.123,-3.0898,-3.0898,-3.0898,-3.0898,-3.0898,-3.0898,-3.0898,-3.0898,-3.0898,-3.0898,-3.0898,-3.0898,-3.0898,-3.0879,-3.1556,-3.2051,-3.1722,-3.2358,-3.3113,-3.3455,-3.3505,-3.3597,-3.3826,-3.3897,-3.347,-3.234,-3.219,-3.1788,-3.0733,-3.0608,-3.0382,-2.9854,-2.9804,-2.9804,-2.9804,-2.9804,-2.9804,-2.9779,-2.9227,-2.9202,-2.9754,-2.8158,-2.7544,-2.8097,-2.7544,-2.7268,-2.7268,-2.7268,-2.7027,-3.1934,-3.3496,-3.4434,-3.3887,-3.1914,-2.957,-2.7441,0.0,0.0,0.0,0.0,-2.0605,-2.0605,-2.0684,-2.1113,-2.2148,0.0,0.0,0.0,0.0,0.0,0.0,0.0,0.0,0.0,0.0,0.0,0.0,0.0,0.0,0.0,-3.9531,-3.8867,-3.8144,-3.7187,-3.6387,-3.582,-3.5684,-3.5234,-3.4492,-3.4492,-3.4277,-3.3848,-3.3555,-3.3594,0.0,0.0,0.0,0.0,-3.3105,-3.3164,-3.3398,-3.3105,-3.3164,-3.3398,-3.3281,-3.3301,-3.3379,-3.3125,-3.2656,-3.2209,-3.2012,-3.1484,-3.0898,-3.0898,-3.0898,-3.0898,-3.0898,-3.0898,-3.0898,-3.0898,-3.0898,-3.0898,-3.0898,-3.0898,-3.0898,-3.0898,-3.0853,-3.0999,-3.1504,-3.1635,-3.1546,-3.136,-3.2506,-3.3102,-3.1879,-3.2953,-3.3646,-3.2893,-3.2466,-3.2089,-3.1738,-3.106,-3.0382,-2.9854,-2.9804,-2.9804,-2.9804,-2.9804,-2.9804,-2.9804,-2.9628,-2.9428,-2.9202,-2.8674,-2.8323,-2.8097,-2.7921,-2.7846,-2.7846,-2.7846,-2.7745,0.0,-2.9394,-3.0234,-2.998,-2.8613,0.0,0.0,0.0,0.0,0.0,0.0,0.0,0.0,0.0,0.0,0.0,0.0,0.0,0.0,0.0,0.0,0.0,0.0,0.0,0.0,0.0,0.0,0.0,0.0,0.0,0.0,-3.9199,-3.8574,-3.7715,-3.7031,-3.6465,-3.6016,-3.5684,-3.5156,-3.4453,-3.4453,-3.4238,-3.3828,-3.3535,-3.3574,0.0,0.0,0.0,0.0,-3.2969,-3.2949,-3.3144,-3.2715,-3.2812,-3.3184,-3.3184,-3.3184,-3.3184,-3.3184,-3.2734,-3.2148,-3.1973,-3.1465,-3.0898,-3.0898,-3.0898,-3.0898,-3.0898,-3.0898,-3.0898,-3.0898,-3.0898,-3.0898,-3.0898,-3.0898,-3.0898,-3.0898,-3.0664,-3.0598,-3.102,-3.086,-3.0913,-3.1474,-3.2538,-3.318,-3.2909,-3.3796,-3.4248,-3.3495,-3.3068,-3.2692,-3.2265,-3.1612,-3.1009,-3.0432,-3.003,-2.9804,-2.9804,-2.9804,-2.9804,-2.9804,-2.9804,-2.9628,-2.9277,-2.9013,-2.8712,-2.8423,-2.8423,-2.8423,-2.8423,-2.8649,-2.8524,0.0,0.0,0.0,0.0,0.0,0.0,0.0,0.0,0.0,0.0,0.0,0.0,0.0,0.0,0.0,0.0,0.0,0.0,0.0,0.0,0.0,0.0,0.0,0.0,0.0,0.0,0.0,0.0,0.0,0.0,0.0,-3.8711,-3.8125,-3.7324,-3.6894,-3.6465,-3.6016,-3.5176,-3.4531,-3.4121,-3.4082,-3.3848,-3.3418,-3.3418,-3.3418,0.0,0.0,0.0,0.0,-3.2891,-3.2715,-3.2715,-3.2285,-3.2402,-3.2793,-3.2793,-3.2812,-3.2832,-3.2812,-3.2519,-3.209,-3.1621,-3.1211,-3.0898,-3.0898,-3.0898,-3.0898,-3.0898,-3.0898,-3.0898,-3.0898,-3.0898,-3.0898,-3.0898,-3.0898,-3.0898,-3.0898,-3.0898,-3.0762,-3.0293,-3.0195,-3.0922,-3.3263,-3.322,-3.3673,-3.5909,-3.579,-3.5065,-3.4098,-3.3947,-3.3545,-3.2441,-3.229,-3.2039,-3.1486,-3.0507,-2.9905,-2.9854,-2.9854,-2.9829,-2.9804,-2.9804,-2.9804,-2.9804,-2.9277,-2.8938,-2.8938,-2.8938,-2.8938,-2.8963,-2.9553,-2.9227,-2.0469,0.0,-2.1797,0.0,0.0,0.0,0.0,0.0,0.0,0.0,0.0,0.0,0.0,0.0,0.0,0.0,0.0,0.0,0.0,0.0,0.0,0.0,0.0,0.0,0.0,0.0,0.0,0.0,0.0,0.0,0.0,-3.7832,-3.75,-3.7305,-3.6894,-3.6465,-3.6016,-3.5488,-3.5,-3.4551,-3.4219,-3.3848,-3.3418,-3.3418,-3.3418,0.0,0.0,0.0,-3.2891,-3.2129,-3.2012,-3.2285,-3.1836,-3.2129,-3.2793,-3.2793,-3.3008,-3.3223,-3.291,-3.2519,-3.2051,-3.1289,-3.0976,-3.0898,-3.0898,-3.0898,-3.0898,-3.0898,-3.0898,-3.0898,-3.0898,-3.0898,-3.0898,-3.0898,-3.0898,-3.0898,-3.0898,-3.0898,-3.0762,-3.0293,-3.0195,-3.0661,-3.2048,-3.2073,-3.2608,-3.4553,-3.4655,-3.4484,-3.454,-3.4525,-3.4274,-3.3571,-3.3119,-3.2641,-3.2064,-3.1411,-3.0859,-3.0457,-3.0407,-3.0231,-2.9804,-2.9804,-2.9804,-2.9804,-2.9654,-2.9578,-2.9578,-2.9578,-2.9578,-2.9603,-2.9729,-2.9654,-1.8633,-1.9434,-2.0156,-1.9959,-2.0039,-2.0156,0.0,0.0,0.0,0.0,0.0,0.0,0.0,0.0,0.0,0.0,0.0,0.0,0.0,0.0,0.0,0.0,0.0,0.0,0.0,0.0,0.0,0.0,0.0,0.0,0.0,-3.6953,-3.6621,-3.6426,-3.5996,-3.584,-3.6016,-3.5605,-3.5059,-3.4414,-3.418,-3.3848,-3.3418,-3.3223,-3.3144,0.0,0.0,0.0,-3.2461,-3.1797,-3.166,-3.1836,-3.1406,-3.1758,-3.25,-3.25,-3.2656,-3.2832,-3.2812,-3.2383,-3.1797,-3.1328,-3.1055,-3.0898,-3.0898,-3.0898,-3.0898,-3.0898,-3.0898,-3.0898,-3.0898,-3.0898,-3.0898,-3.0898,-3.0898,-3.0898,-3.0898,-3.0898,-3.082,-3.0566,-3.0508,-3.0926,-3.2163,-3.2099,-3.2599,-3.4742,-3.4786,-3.4703,-3.4998,-3.5056,-3.4831,-3.4324,-3.3796,-3.3319,-3.3018,-3.2491,-3.1813,-3.1009,-3.0758,-3.0482,-3.0181,-2.993,-2.9804,-2.9804,-2.9804,-2.9804,-2.9804,-2.9804,-2.9804,-2.9804,-2.9804,-2.9804,-1.8164,-1.9355,-2.0566,-2.0351,-2.041,-2.0488,0.0,0.0,0.0,0.0,0.0,0.0,0.0,0.0,0.0,0.0,0.0,0.0,0.0,0.0,0.0,0.0,0.0,0.0,0.0,0.0,0.0,0.0,0.0,0.0,0.0,-3.6094,-3.5664,-3.5293,-3.4902,-3.5019,-3.5723,-3.5371,-3.4805,-3.4082,-3.4004,-3.375,-3.332,-3.2949,-3.2754,-3.2676,0.0,0.0,-3.2031,-3.1601,-3.1426,-3.1387,-3.1035,-3.1367,-3.207,-3.207,-3.2109,-3.2268,-3.25,-3.209,-3.1426,-3.1426,-3.1191,-3.0898,-3.0898,-3.0898,-3.0898,-3.0898,-3.0898,-3.0898,-3.0898,-3.0898,-3.0898,-3.0898,-3.0898,-3.0898,-3.0898,-3.0898,-3.0898,-3.0898,-3.0898,-3.1383,-3.2851,-3.2686,-3.3071,-3.5271,-3.5321,-3.523,-3.539,-3.5519,-3.5408,-3.4856,-3.4424,-3.4073,-3.3922,-3.347,-3.281,-3.1712,-3.116,-3.0783,-3.0633,-3.008,-2.9804,-2.9804,-2.9804,-2.9804,-2.9804,-2.9804,-2.9804,-2.9804,-2.9804,-2.9804,-1.8887,-1.9842,-2.0351,-1.9199,-1.9436,-1.9922,0.0,0.0,0.0,0.0,0.0,0.0,0.0,0.0,0.0,0.0,0.0,0.0,0.0,0.0,0.0,0.0,0.0,0.0,0.0,0.0,0.0,0.0,0.0,0.0,-3.6133,-3.5351,-3.4863,-3.4805,-3.4726,-3.459,-3.4375,-3.4316,-3.4199,-3.4062,-3.3691,-3.3301,-3.2891,-3.2832,-3.2598,-3.2246,0.0,-3.1621,-3.1582,-3.1152,-3.0996,-3.0976,-3.0918,-3.1191,-3.1621,-3.1621,-3.1855,-3.2129,-3.1816,-3.1387,-3.0996,-3.0996,-3.0937,-3.0898,-3.0898,-3.0898,-3.0898,-3.0898,-3.0898,-3.0898,-3.0898,-3.0898,-3.0898,-3.0898,-3.0898,-3.0898,-3.0898,-3.0898,-3.0898,-3.0898,-3.0898,-3.1383,-3.2851,-3.3014,-3.3364,-3.4428,-3.5219,-3.5524,-3.5129,-3.5767,-3.6031,-3.5433,-3.5282,-3.4881,-3.3972,-3.3822,-3.3495,-3.291,-3.229,-3.1562,-3.0658,-3.008,-2.9804,-2.9804,-2.9804,-2.9804,-2.9804,-2.9804,-2.9804,-2.9804,-2.9804,-2.9804,-1.8496,-1.9219,-1.9785,-1.9414,-2.0156,-2.0859,0.0,0.0,0.0,0.0,0.0,0.0,0.0,0.0,0.0,0.0,0.0,0.0,0.0,0.0,0.0,0.0,0.0,0.0,0.0,0.0,0.0,0.0,0.0,0.0,-3.4668,-3.4238,-3.3809,-3.334,-3.334,-3.334,-3.3379,-3.3379,-3.3496,-3.3711,-3.3516,-3.3203,-3.2793,-3.2559,-3.2226,-3.1797,0.0,-3.1191,-3.1172,-3.0976,-3.0898,-3.0898,-3.0898,-3.1152,-3.1523,-3.1523,-3.1797,-3.207,-3.1406,-3.1055,-3.0898,-3.0898,-3.0898,-3.0898,-3.0898,-3.0898,-3.0898,-3.0898,-3.0898,-3.0898,-3.0898,-3.0898,-3.0898,-3.0898,-3.0898,-3.0898,-3.0898,-3.0898,-3.0898,-3.0898,-3.0898,-3.1112,-3.1767,-3.192,-3.2215,-3.309,-3.3375,-3.3892,-3.4843,-3.5186,-3.5473,-3.5959,-3.5454,-3.4856,-3.4374,-3.3796,-3.3219,-3.2641,-3.2365,-3.1738,-3.0658,-3.0357,-3.0105,-2.9804,-2.9804,-2.9804,-2.9804,-2.9804,-2.9804,-2.9804,-2.9804,-2.9804,-1.8223,-1.8711,-1.9258,0.0,0.0,0.0,0.0,0.0,0.0,0.0,0.0,0.0,0.0,0.0,0.0,0.0,0.0,0.0,0.0,0.0,0.0,0.0,0.0,0.0,0.0,0.0,0.0,0.0,0.0,0.0,-3.3359,-3.3184,-3.2832,-3.2187,-3.2229,-3.2324,-3.2656,-3.2656,-3.291,-3.3418,-3.3418,-3.3144,-3.2637,-3.2324,-3.1875,-3.1348,-3.1035,-3.0898,-3.0898,-3.0898,-3.0898,-3.0898,-3.0898,-3.1094,-3.1367,-3.1367,-3.1582,-3.1777,-3.1113,-3.0898,-3.0898,-3.0898,-3.0898,-3.0898,-3.0898,-3.0898,-3.0898,-3.0898,-3.0898,-3.0898,-3.0898,-3.0898,-3.0898,-3.0898,-3.0898,-3.0898,-3.0898,-3.0898,-3.0898,-3.0898,-3.0898,-3.0898,-3.0898,-3.117,-3.1492,-3.1666,-3.1986,-3.2681,-3.4337,-3.4447,-3.4921,-3.6263,-3.5604,-3.5002,-3.4705,-3.3721,-3.2817,-3.224,-3.2089,-3.1587,-3.0658,-3.0482,-3.0231,-2.9804,-2.9804,-2.9804,-2.9804,-2.9804,-2.9804,-2.9804,-2.9804,-2.9804,-1.8867,-1.8945,-1.8851,-1.9707,0.0,0.0,0.0,0.0,0.0,0.0,0.0,0.0,0.0,0.0,0.0,0.0,0.0,0.0,0.0,0.0,0.0,0.0,0.0,0.0,0.0,0.0,0.0,0.0,0.0,0.0,-3.2871,-3.248,-3.2226,-3.2229,-3.2229,-3.2187,-3.2207,-3.2207,-3.2617,-3.3418,-3.3418,-3.3008,-3.2207,-3.2187,-3.1719,-3.0937,-3.0898,-3.0898,-3.0898,-3.0898,-3.0898,-3.0898,-3.0898,-3.0918,-3.0937,-3.0937,-3.0957,-3.0976,-3.0918,-3.0898,-3.0898,-3.0898,-3.0898,-3.0898,-3.0898,-3.0898,-3.0898,-3.0898,-3.0898,-3.0898,-3.0898,-3.0898,-3.0898,-3.0898,-3.0898,-3.0898,-3.0898,-3.0898,-3.0898,-3.0898,-3.0898,-3.0898,-3.0898,-3.2035,-3.2365,-3.0596,-3.2259,-3.3525,-3.3189,-3.3877,-3.4921,-3.6263,-3.6329,-3.583,-3.4801,-3.3721,-3.2817,-3.224,-3.1738,-3.121,-3.0633,-3.0131,-2.9829,-2.9804,-2.9804,-2.9804,-2.9804,-2.9804,-2.9804,-2.9804,-2.9804,-2.9804,-1.8281,-1.852,-1.8812,-1.967,0.0,0.0,0.0,0.0,0.0,0.0,0.0,0.0,0.0,0.0,0.0,0.0,0.0,0.0,0.0,0.0,0.0,0.0,0.0,0.0,0.0,0.0,0.0,0.0,0.0,0.0,0.0,-3.1855,-3.1641,-3.1387,-3.1367,-3.1504,-3.1758,-3.1758,-3.2051,-3.2637,-3.2637,-3.2324,-3.1758,-3.1758,-3.1445,-3.0898,-3.0898,-3.0898,-3.0898,-3.0898,-3.0898,-3.0898,-3.0898,-3.1055,-3.125,-3.0996,-3.1055,-3.125,-3.0976,-3.0898,-3.0898,-3.0898,-3.0898,-3.0898,-3.0898,-3.0898,-3.0898,-3.0898,-3.0898,-3.0898,-3.0898,-3.0898,-3.0898,-3.0898,-3.0898,-3.0898,-3.0898,-3.0898,-3.0898,-3.0898,-3.0898,-3.0898,-3.0898,-3.1383,-3.1377,-3.0368,-3.1436,-3.2276,-3.1804,-3.3325,-3.4581,-3.5114,-3.5263,-3.5027,-3.4274,-3.352,-3.2817,-3.224,-3.2014,-3.1512,-3.0658,-3.0407,-3.0156,-2.9804,-2.9804,-2.9804,-2.9804,-2.9804,-2.9804,-2.9804,-2.9804,-2.9804,-1.7734,-1.8027,-1.8442,0.0,0.0,0.0,0.0,0.0,0.0,0.0,0.0,0.0,0.0,0.0,0.0,0.0,0.0,0.0,0.0,0.0,0.0,0.0,0.0,0.0,0.0,0.0,0.0,0.0,0.0,0.0,0.0,-3.1328,-3.1191,-3.0898,-3.0898,-3.1035,-3.1328,-3.1328,-3.1465,-3.1758,-3.1758,-3.168,-3.1523,-3.1523,-3.1289,-3.0898,-3.0898,-3.0898,-3.0898,-3.0898,-3.0898,-3.0898,-3.0898,-3.1074,-3.1289,-3.0996,-3.1074,-3.1269,-3.0996,-3.0898,-3.0898,-3.0898,-3.0898,-3.0898,-3.0898,-3.0898,-3.0898,-3.0898,-3.0898,-3.0898,-3.0898,-3.0898,-3.0898,-3.0898,-3.0898,-3.0898,-3.0898,-3.0898,-3.0898,-3.0898,-3.0898,-3.0898,-3.0898,-3.0762,-3.0527,-3.0059,-3.0444,-3.0776,-3.0747,-3.2504,-3.4068,-3.4921,-3.4994,-3.4751,-3.4198,-3.3646,-3.3018,-3.2265,-3.2215,-3.1738,-3.0658,-3.0457,-3.0181,-2.9804,-2.9804,-2.9804,-2.9804,-2.9804,-2.9804,-2.9804,-2.9804,-2.9804,-1.7383,-1.7383,0.0,0.0,0.0,0.0,0.0,0.0,0.0,0.0,0.0,0.0,0.0,0.0,0.0,0.0,0.0,0.0,0.0,0.0,0.0,0.0,0.0,0.0,0.0,0.0,0.0,0.0,0.0,0.0,0.0,-3.0879,-3.0879,-3.0898,-3.0898,-3.0898,-3.0898,-3.0898,-3.0898,-3.0898,-3.0898,-3.1113,-3.1504,-3.1504,-3.1289,-3.0898,-3.0898,-3.0898,-3.0898,-3.0898,-3.0898,-3.0898,-3.0898,-3.0898,-3.0898,-3.0898,-3.0898,-3.0898,-3.0898,-3.0898,-3.0898,-3.0898,-3.0898,-3.0898,-3.0898,-3.0898,-3.0898,-3.0898,-3.0898,-3.0898,-3.0898,-3.0898,-3.0898,-3.0898,-3.0898,-3.0898,-3.0898,-3.0898,-3.0898,-3.0898,-3.0898,-3.0898,-3.0898,-3.0508,-3.0059,-2.9629,-2.9199,-2.9291,-3.0235,-3.1469,-3.333,-3.6096,-3.5855,-3.5282,-3.4731,-3.4198,-3.342,-3.229,-3.2215,-3.1712,-3.0658,-3.008,-2.9804,-2.9804,-2.9804,-2.9804,-2.9804,-2.9804,-2.9804,-2.9804,-2.9804,-2.9804,-1.7305,0.0,0.0,0.0,0.0,0.0,0.0,0.0,0.0,0.0,0.0,0.0,0.0,0.0,0.0,0.0,0.0,0.0,0.0,0.0,0.0,0.0,0.0,0.0,0.0,0.0,0.0,0.0,0.0,0.0,0.0,-3.0586,-3.0547,-3.0879,-3.0898,-3.0898,-3.0898,-3.0898,-3.0898,-3.0898,-3.0898,-3.0957,-3.1074,-3.1074,-3.1016,-3.0898,-3.0898,-3.0898,-3.0898,-3.0898,-3.0898,-3.0898,-3.0898,-3.0898,-3.0898,-3.0898,-3.0898,-3.0898,-3.0898,-3.0898,-3.0898,-3.0898,-3.0898,-3.0898,-3.0898,-3.0898,-3.0898,-3.0898,-3.0898,-3.0898,-3.0898,-3.0898,-3.0898,-3.0898,-3.0898,-3.0898,-3.0898,-3.0898,-3.0898,-3.0898,-3.0898,-3.0898,-3.0898,-3.0508,-3.0059,-2.9629,-3.0037,-3.1043,-3.2924,-3.2705,-3.333,-3.6096,-3.5529,-3.4856,-3.468,-3.3847,-3.3169,-3.2842,-3.2064,-3.1336,-3.0633,-3.0457,-3.0181,-2.9804,-2.9804,-2.9804,-2.9804,-2.9804,-2.9804,-2.9804,-2.9804,-2.9804,-1.7305,0.0,0.0,0.0,0.0,0.0,0.0,0.0,0.0,0.0,0.0,0.0,0.0,0.0,0.0,0.0,0.0,0.0,0.0,0.0,0.0,0.0,0.0,0.0,0.0,0.0,0.0,0.0,0.0,0.0,0.0,-3.0098,-3.0078,-3.0351,-3.0371,-3.0371,-3.0371,-3.0371,-3.0371,-3.0371,-3.0371,-3.0371,-3.0371,-3.0723,-3.0898,-3.0898,-3.0898,-3.0898,-3.0898,-3.0898,-3.0898,-3.0898,-3.0898,-3.0898,-3.0898,-3.0898,-3.0898,-3.0898,-3.0898,-3.0898,-3.0898,-3.0898,-3.0898,-3.0898,-3.0898,-3.0898,-3.0898,-3.0898,-3.0898,-3.0898,-3.0898,-3.0898,-3.0898,-3.0898,-3.0898,-3.0898,-3.0898,-3.0898,-3.084,-3.0644,-3.0605,-3.0566,-3.0391,-2.998,-2.9609,-2.9355,-3.0099,-3.1404,-3.33,-3.3304,-3.3876,-3.5821,-3.5454,-3.4831,-3.4424,-3.3796,-3.3319,-3.3093,-3.2483,-3.1712,-3.0959,-3.0507,-3.0131,-2.9804,-2.9804,-2.9804,-2.9804,-2.9804,-2.9804,-2.9804,-2.9804,-2.9804,0.0,0.0,0.0,0.0,0.0,0.0,0.0,0.0,0.0,0.0,0.0,0.0,0.0,0.0,0.0,0.0,0.0,0.0,0.0,0.0,0.0,0.0,0.0,0.0,0.0,0.0,0.0,0.0,0.0,0.0,0.0,-2.9531,-2.9587,-2.9626,-2.9626,-2.9626,-2.9626,-2.9626,-2.9626,-2.9626,-2.9626,-2.9626,-2.9646,-3.041,-3.0801,-3.082,-3.082,-3.0859,-3.0898,-3.0898,-3.0898,-3.0898,-3.0898,-3.0898,-3.0898,-3.0898,-3.0898,-3.0898,-3.0898,-3.0898,-3.0898,-3.0898,-3.0898,-3.0898,-3.0898,-3.0898,-3.0898,-3.0898,-3.0898,-3.0898,-3.0898,-3.0898,-3.0898,-3.0898,-3.0859,-3.082,-3.082,-3.0801,-3.0644,-3.0215,-3.0137,-3.0019,-2.9629,-2.9199,-2.8906,-2.8867,-2.9566,-3.0618,-3.1927,-3.3307,-3.4414,-3.5208,-3.5361,-3.4931,-3.3972,-3.3847,-3.3621,-3.3119,-3.2993,-3.2466,-3.1436,-3.0457,-2.9905,-2.9804,-2.9804,-2.9804,-2.9804,-2.9804,-2.9804,-2.9804,-2.9804,-2.9804,0.0,0.0,0.0,0.0,0.0,0.0,0.0,0.0,0.0,0.0,0.0,0.0,0.0,0.0,0.0,0.0,0.0,0.0,0.0,0.0,0.0,0.0,0.0,0.0,0.0,0.0,0.0,0.0,0.0,0.0,-2.9551,-2.9238,-2.9219,-2.9607,-2.9626,-2.9626,-2.9626,-2.9626,-2.9626,0.0,-2.9626,-2.9626,-2.9626,-2.9766,-3.0039,-3.0351,-3.0351,-3.0547,-3.0898,-3.0898,-3.0898,-3.0898,-3.0898,-3.0898,-3.0898,-3.0898,-3.0898,-3.0898,-3.0898,-3.0898,-3.0898,-3.0898,-3.0898,-3.0898,-3.0898,-3.0898,-3.0898,-3.0898,-3.0898,-3.0898,-3.0898,-3.0898,-3.0898,-3.0898,-3.0605,-3.0351,-3.0351,-3.0078,-2.9824,-2.9726,-2.9707,-2.9668,-2.959,-2.9199,-2.8809,-2.8476,-2.8607,-2.9197,-3.0566,-3.1545,-3.2609,-3.3768,-3.4135,-3.4148,-3.3922,-3.3495,-3.3194,-3.3136,-3.224,-3.1637,-3.1411,-3.116,-3.0658,-2.9804,-2.9804,-2.9804,-2.9804,-2.9804,-2.9804,-2.9804,-2.9804,-2.9804,0.0,0.0,0.0,0.0,0.0,0.0,0.0,0.0,0.0,0.0,0.0,0.0,0.0,0.0,0.0,0.0,0.0,0.0,0.0,0.0,0.0,0.0,0.0,0.0,0.0,0.0,0.0,0.0,0.0,-2.8105,-2.834,-2.8125,-2.8203,-2.8706,-2.8706,-2.875,-2.8965,-2.8965,-2.8965,-2.8965,-2.8965,-2.8965,-2.8965,-2.9375,-2.9687,-2.9902,-2.9902,-3.0156,-3.0566,-3.0566,-3.0684,-3.0898,-3.0898,-3.0898,-3.0898,-3.0898,-3.0898,-3.0898,-3.0898,-3.0898,-3.0898,-3.0898,-3.0898,-3.0898,-3.0898,-3.0898,-3.0898,-3.0898,-3.0898,-3.0898,-3.0898,-3.0723,-3.0566,-3.0566,-3.0371,-3.0195,-3.0195,-2.9863,-2.9512,-2.9297,-2.9258,-2.9199,-2.8984,-2.8769,-2.8535,-2.832,-2.8847,-2.9755,-3.1081,-3.2229,-3.3165,-3.3997,-3.4193,-3.3851,-3.2705,-3.2916,-3.2853,-3.2239,-3.1945,-3.1662,-3.1411,-3.116,-3.0633,-2.9804,-2.9804,-2.9804,-2.9804,-2.9804,-2.9804,-2.9804,-2.9804,-2.9804,0.0,0.0,0.0,0.0,0.0,0.0,0.0,0.0,0.0,0.0,0.0,0.0,0.0,0.0,0.0,0.0,0.0,0.0,0.0,0.0,0.0,0.0,0.0,0.0,0.0,0.0,0.0,0.0,0.0,-2.6914,-2.6914,-2.6914,-2.7109,-2.7539,-2.7559,-2.7715,-2.8066,-2.8066,-2.8066,-2.8066,-2.8144,-2.8184,-2.8203,-2.9004,-2.9394,-2.9453,-2.9453,-2.9746,-3.0195,-3.0195,-3.0469,-3.0898,-3.0898,-3.0898,-3.0898,-3.0898,-3.0898,-3.0898,-3.0898,-3.0898,-3.0898,-3.0898,-3.0898,-3.0898,-3.0898,-3.0898,-3.0898,-3.0898,-3.0898,-3.0879,-3.0801,-3.0488,-3.0176,-3.0098,-3.0019,-2.998,-2.998,-2.9648,-2.9238,-2.8887,-2.8809,-2.8711,-2.8359,-2.8301,-2.8262,-2.8203,-2.9149,-3.0233,-3.1251,-3.2514,-3.3385,-3.3579,-3.3682,-3.306,-3.1339,-3.2152,-3.2438,-3.1601,-3.184,-3.1863,-3.1411,-3.0809,-3.0256,-2.9804,-2.9804,-2.9804,-2.9804,-2.9804,-2.9804,-2.9804,-2.9804,-2.9804,0.0,0.0,0.0,0.0,0.0,0.0,0.0,0.0,0.0,0.0,0.0,0.0,0.0,0.0,0.0,0.0,0.0,0.0,0.0,0.0,0.0,0.0,0.0,0.0,0.0,0.0,0.0,0.0,-2.6504,-2.6465,-2.6465,-2.6465,-2.666,-2.709,-2.7109,-2.7129,-2.7187,-2.7187,-2.7187,-2.7187,-2.7578,-2.7806,-2.7826,-2.8242,-2.8652,-2.9004,-2.9004,-2.9453,-3.0195,-3.0195,-3.0469,-3.0898,-3.0898,-3.0898,-3.0898,-3.0898,-3.0898,-3.0898,-3.0898,-3.0898,-3.0898,-3.0898,-3.0898,-3.0898,-3.0898,-3.0898,-3.0898,-3.0898,-3.0898,-3.0801,-3.0391,-3.0234,-3.0098,-2.9746,-2.9375,-2.9082,-2.9082,-2.875,-2.8437,-2.8398,-2.8379,-2.8359,-2.8301,-2.8301,-2.8164,-2.7865,-2.7944,-2.7962,-2.7719,-2.8499,-2.9064,-2.908,-2.9658,-3.0421,-3.1134,-3.1356,-3.1865,-3.2785,-3.1981,-3.1461,-3.1386,-3.0432,-2.9854,-2.9804,-2.9804,-2.9804,-2.9804,-2.9804,-2.9804,-2.9804,-2.9804,-2.9804,0.0,0.0,0.0,0.0,0.0,0.0,0.0,0.0,0.0,0.0,0.0,0.0,0.0,0.0,0.0,0.0,0.0,0.0,0.0,0.0,0.0,0.0,0.0,0.0,0.0,0.0,0.0,0.0,-2.5566,-2.5273,-2.5273,-2.5273,-2.5488,-2.5918,-2.5918,-2.6035,-2.6239,-2.6543,-2.6777,-2.7012,-2.7207,-2.7305,-2.7305,-2.75,-2.7949,-2.8574,-2.8574,-2.8926,-2.9473,-2.9473,-2.9746,-3.0156,-3.0156,-3.0293,-3.0469,-3.0234,-3.0293,-3.0469,-3.0234,-3.0312,-3.0508,-3.0508,-3.0684,-3.0898,-3.0898,-3.0703,-3.0547,-3.082,-3.0703,-3.0449,-3.0254,-3.0019,-2.9746,-2.9316,-2.8887,-2.8574,-2.8574,-2.8418,-2.8301,-2.8301,-2.8105,-2.793,-2.793,-2.7734,-2.7519,-2.7324,-2.7305,-2.7483,-2.8056,-2.8429,-2.8837,-2.928,-2.9628,-2.994,-3.0147,-3.0822,-3.1324,-3.1582,-3.1481,-3.126,-3.0959,-3.0206,-2.9804,-2.9804,-2.9804,-2.9804,-2.9804,-2.9804,-2.9804,-2.9804,-2.9804,-2.9804,0.0,0.0,0.0,0.0,0.0,0.0,0.0,0.0,0.0,0.0,0.0,0.0,0.0,0.0,0.0,0.0,0.0,0.0,0.0,0.0,0.0,0.0,0.0,0.0,0.0,0.0,0.0,0.0,-2.4629,-2.4258,-2.4258,-2.4258,-2.4453,-2.4883,-2.4902,-2.5059,-2.5343,-2.5723,-2.6035,-2.6348,-2.6582,-2.6699,-2.6699,-2.6914,-2.7422,-2.8125,-2.8125,-2.8437,-2.8926,-2.8926,-2.918,-2.9626,-2.9626,-2.9824,-3.0156,-2.9844,-2.9922,-3.0156,-2.9844,-2.9863,-3.0039,-3.0039,-3.0273,-3.0566,-3.0566,-3.0312,-3.0137,-3.0586,-3.0391,-3.0039,-3.0039,-2.9726,-2.9297,-2.8867,-2.8516,-2.8301,-2.8301,-2.8301,-2.8262,-2.8164,-2.7943,-2.7689,-2.7519,-2.7226,-2.6973,-2.6875,-2.6855,-2.715,-2.8037,-2.8165,-2.8362,-2.9011,-2.9063,-2.9027,-2.8934,-3.0033,-3.0702,-3.0608,-3.1238,-3.1361,-3.0834,-3.0281,-2.993,-2.9804,-2.9804,-2.9804,-2.9804,-2.9804,-2.9804,-2.9804,-2.9804,-2.9804,0.0,0.0,0.0,0.0,0.0,0.0,0.0,0.0,0.0,0.0,0.0,0.0,0.0,0.0,0.0,0.0,0.0,0.0,0.0,0.0,0.0,0.0,0.0,0.0,0.0,0.0,0.0,0.0,-2.3848,-2.3828,-2.3828,-2.3828,-2.4023,-2.4434,-2.4453,-2.4473,-2.4492,-2.4512,-2.4531,-2.457,-2.5362,-2.5752,-2.5791,-2.6641,-2.7266,-2.7748,-2.7748,-2.8164,-2.8926,-2.8926,-2.918,-2.9626,-2.9626,-2.9824,-3.0195,-3.0176,-3.0176,-3.0195,-3.0176,-2.9922,-2.9609,-2.9609,-2.9685,-2.9704,-2.9704,-2.9685,-2.9744,-3.0117,-2.9922,-2.9609,-2.9609,-2.9277,-2.8848,-2.8418,-2.832,-2.8301,-2.8301,-2.8301,-2.8184,-2.7826,-2.7728,-2.7539,-2.7129,-2.7031,-2.6875,-2.6484,-2.6426,-2.6319,-2.5908,-2.5849,-2.5879,-2.5908,-2.5908,-2.64,-2.76,-2.8819,-2.9988,-3.1086,-3.1804,-3.1913,-3.1361,-3.0859,-3.0331,-2.9804,-2.9804,-2.9804,-2.9804,-2.9804,-2.9804,-2.9804,-2.9804,-2.9804,0.0,0.0,0.0,0.0,0.0,0.0,0.0,0.0,0.0,0.0,0.0,0.0,0.0,0.0,0.0,0.0,0.0,0.0,0.0,0.0,0.0,0.0,0.0,0.0,0.0,0.0,0.0,0.0,0.0,-2.3379,-2.3379,-2.3379,-2.3393,-2.3549,-2.3549,-2.3686,-2.4004,-2.4004,-2.4141,-2.4414,-2.4746,-2.4883,-2.4902,-2.5488,-2.5996,-2.6445,-2.6719,-2.748,-2.8516,-2.8516,-2.8613,-2.875,-2.875,-2.9004,-2.9336,-2.9082,-2.9141,-2.9336,-2.9062,-2.9062,-2.9141,-2.9141,-2.9336,-2.9626,-2.9626,-2.9375,-2.9238,-2.9668,-2.9473,-2.9141,-2.9141,-2.9043,-2.8809,-2.8398,-2.8301,-2.8301,-2.8301,-2.8301,-2.8164,-2.7806,-2.7441,-2.7109,-2.668,-2.6387,-2.6103,-2.5996,-2.5977,-2.5869,-2.5713,-2.5693,-2.5693,-2.5693,-2.5693,-2.6207,-2.7505,-2.8727,-2.9761,-3.066,-3.1656,-3.1964,-3.1411,-3.0884,-3.0532,-3.0331,-2.998,-2.9804,-2.9804,-2.9804,-2.9804,-2.9804,-2.9804,-2.9804,0.0,0.0,0.0,0.0,0.0,0.0,0.0,0.0,0.0,0.0,0.0,0.0,0.0,0.0,0.0,0.0,0.0,0.0,0.0,0.0,0.0,0.0,0.0,0.0,0.0,0.0,0.0,0.0,0.0,0.0,-2.3101,-2.3101,-2.3101,-2.3101,-2.3101,-2.3237,-2.3574,-2.3574,-2.3711,-2.3984,-2.4141,-2.4199,-2.4219,-2.4805,-2.5312,-2.5713,-2.6191,-2.6953,-2.7871,-2.8027,-2.8086,-2.8105,-2.8242,-2.8555,-2.8887,-2.8613,-2.8672,-2.8887,-2.8594,-2.8594,-2.8711,-2.8711,-2.8906,-2.9141,-2.9141,-2.8945,-2.8789,-2.9238,-2.9043,-2.875,-2.8887,-2.8809,-2.8633,-2.8359,-2.8184,-2.8086,-2.8086,-2.8086,-2.7949,-2.7519,-2.7109,-2.668,-2.625,-2.5937,-2.5693,-2.5693,-2.5693,-2.5693,-2.5693,-2.5693,-2.5693,-2.5693,-2.5693,-2.6062,-2.6907,-2.8096,-2.8987,-2.9419,-3.0612,-3.0973,-3.0247,-3.0237,-3.0121,-2.9791,-2.9799,-2.9804,-2.9804,-2.9804,-2.9804,-2.9804,-2.9804,-2.9804,0.0,0.0,0.0,0.0,0.0,0.0,0.0,0.0,0.0,0.0,0.0,0.0,0.0,0.0,0.0,0.0,0.0,0.0,0.0,0.0,0.0,0.0,0.0,0.0,0.0,0.0,0.0,0.0,-2.3081,-2.3081,-2.3081,-2.3062,-2.3062,-2.3081,-2.3081,-2.3081,-2.3101,-2.3101,-2.3101,-2.3101,-2.3574,-2.3769,-2.3809,-2.4695,-2.5273,-2.5654,-2.6152,-2.6582,-2.6992,-2.7461,-2.7708,-2.7748,-2.8105,-2.8516,-2.8887,-2.8887,-2.8887,-2.8906,-2.8906,-2.8633,-2.8301,-2.8301,-2.8301,-2.8301,-2.8301,-2.8301,-2.8379,-2.8789,-2.8613,-2.8379,-2.8789,-2.8594,-2.8301,-2.8301,-2.7988,-2.7728,-2.7728,-2.7708,-2.7519,-2.709,-2.668,-2.6269,-2.5791,-2.5693,-2.5693,-2.5693,-2.5693,-2.5693,-2.5693,-2.5693,-2.5693,-2.5693,-2.5693,-2.5693,-2.5693,-2.6839,-2.76,-2.76,-2.8727,-2.897,-2.7984,-2.9017,-2.9136,-2.8131,-2.9248,-2.9804,-2.9804,-2.9804,-2.9804,-2.9804,-2.9804,-2.9804,-1.5449,0.0,0.0,0.0,0.0,0.0,0.0,0.0,0.0,0.0,0.0,0.0,0.0,0.0,0.0,0.0,0.0,0.0,0.0,0.0,0.0,0.0,0.0,0.0,0.0,0.0,0.0,0.0,-2.2676,-2.2676,-2.2676,-2.2402,-2.2363,-2.2676,-2.2676,-2.2789,-2.3081,-2.3101,-2.3101,-2.3101,-2.3218,-2.3276,-2.3296,-2.3887,-2.4219,-2.4375,-2.5117,-2.5488,-2.5684,-2.6758,-2.7187,-2.7207,-2.7324,-2.7637,-2.8008,-2.8008,-2.8203,-2.8457,-2.8457,-2.8398,-2.8301,-2.8301,-2.8301,-2.8301,-2.8301,-2.8301,-2.832,-2.8437,-2.8379,-2.832,-2.8437,-2.8379,-2.8301,-2.8301,-2.8203,-2.8027,-2.7787,-2.7422,-2.7168,-2.7031,-2.6914,-2.6699,-2.6289,-2.5937,-2.5693,-2.5693,-2.5693,-2.5693,-2.5693,-2.5693,-2.5693,-2.5693,-2.5693,-2.5693,-2.5693,-2.6839,-2.76,-2.76,-2.8727,-2.9127,-2.8588,-2.9226,-2.9302,-2.8695,-2.9446,-2.9804,-2.9804,-2.9804,-2.9804,-2.9804,-2.9804,-2.9804,0.0,0.0,0.0,0.0,0.0,0.0,0.0,-1.6133,0.0,0.0,0.0,0.0,0.0,0.0,0.0,0.0,0.0,0.0,0.0,0.0,0.0,0.0,0.0,0.0,0.0,0.0,0.0,-2.1912,-2.2148,-2.2246,-2.2246,-2.2012,-2.1992,-2.2246,-2.2422,-2.2637,-2.2828,-2.3003,-2.3101,-2.3101,-2.3101,-2.3101,-2.312,-2.3594,-2.3789,-2.3828,-2.4492,-2.4805,-2.4863,-2.582,-2.6426,-2.6777,-2.6953,-2.7168,-2.7402,-2.7402,-2.7559,-2.7754,-2.7754,-2.7754,-2.7793,-2.7969,-2.791,-2.7832,-2.8184,-2.8164,-2.8066,-2.8242,-2.8301,-2.8301,-2.8301,-2.8301,-2.8301,-2.8301,-2.8027,-2.7695,-2.7441,-2.7051,-2.6758,-2.6758,-2.6602,-2.6356,-2.6152,-2.5898,-2.5693,-2.5693,-2.5693,-2.5693,-2.5693,-2.5693,-2.5693,-2.5693,-2.5693,-2.5693,-2.5693,-2.638,-2.673,-2.6574,-2.7238,-2.736,-2.6745,-2.7634,-2.8074,-2.7905,-2.8875,-2.951,-2.9804,-2.9804,-2.9804,-2.9804,-2.9804,-2.9804,0.0,0.0,0.0,0.0,0.0,0.0,-1.5586,-1.585,-1.6144,0.0,0.0,0.0,0.0,0.0,0.0,0.0,0.0,0.0,0.0,0.0,0.0,0.0,0.0,0.0,0.0,-2.0781,-2.0995,-2.1054,-2.1484,-2.1758,-2.1816,-2.1758,-2.1758,-2.1816,-2.2168,-2.2402,-2.2441,-2.2769,-2.2984,-2.3023,-2.3023,-2.3042,-2.3101,-2.3535,-2.3711,-2.375,-2.416,-2.4355,-2.4375,-2.4805,-2.5488,-2.6289,-2.6699,-2.6914,-2.6953,-2.6953,-2.6973,-2.7012,-2.7012,-2.7012,-2.709,-2.7461,-2.7324,-2.7168,-2.7988,-2.793,-2.7728,-2.8047,-2.8144,-2.8144,-2.8144,-2.8144,-2.8144,-2.8144,-2.7559,-2.7012,-2.6953,-2.6641,-2.6367,-2.6328,-2.6035,-2.5752,-2.5752,-2.5713,-2.5693,-2.5693,-2.5693,-2.5693,-2.5693,-2.5635,-2.5615,-2.5615,-2.5577,-2.5538,-2.5538,-2.5577,-2.5488,-2.5145,-2.5165,-2.4785,-2.3965,-2.5443,-2.6345,-2.6573,-2.797,-2.9093,-2.9804,-2.9804,-2.9804,-2.9804,-2.9804,-2.9804,0.0,0.0,0.0,0.0,0.0,0.0,-1.6144,-1.6289,-1.6375,0.0,0.0,0.0,0.0,0.0,0.0,0.0,0.0,0.0,0.0,0.0,0.0,0.0,0.0,0.0,0.0,-1.9609,-1.9805,-2.0137,-2.0566,-2.0977,-2.1307,-2.1016,-2.0996,-2.1348,-2.1405,-2.166,-2.2012,-2.209,-2.2305,-2.2637,-2.2637,-2.2769,-2.3101,-2.3179,-2.3218,-2.3257,-2.373,-2.3906,-2.3945,-2.4375,-2.4844,-2.5371,-2.582,-2.6191,-2.6504,-2.6504,-2.6719,-2.7012,-2.7012,-2.7012,-2.7031,-2.7109,-2.709,-2.7109,-2.7637,-2.748,-2.7148,-2.7246,-2.7266,-2.7266,-2.7266,-2.7266,-2.7266,-2.7266,-2.7129,-2.6914,-2.6582,-2.6445,-2.6289,-2.5937,-2.6074,-2.6269,-2.6269,-2.5977,-2.5693,-2.5693,-2.5693,-2.5693,-2.5693,-2.543,-2.5195,-2.5195,-2.4883,-2.4621,-2.4621,-2.5,-2.5156,-2.5125,-2.541,-2.5371,-2.4891,-2.6499,-2.7259,-2.6981,-2.7825,-2.8745,-2.9804,-2.9804,-2.9804,-2.9804,-2.9804,-2.9804,0.0,0.0,0.0,-1.6486,0.0,0.0,0.0,-1.5954,-1.5787,0.0,0.0,0.0,0.0,0.0,0.0,0.0,0.0,0.0,0.0,0.0,0.0,0.0,0.0,0.0,0.0,-1.8848,-1.9141,-1.957,-1.9805,-2.0019,-2.0254,-2.0059,-2.0137,-2.0527,-2.0781,-2.1113,-2.1562,-2.1777,-2.209,-2.2519,-2.2519,-2.2691,-2.3101,-2.3101,-2.3101,-2.3101,-2.3379,-2.3457,-2.3496,-2.3926,-2.4238,-2.4473,-2.4902,-2.5352,-2.5723,-2.5723,-2.5996,-2.6317,-2.6317,-2.6317,-2.6406,-2.6621,-2.6562,-2.6504,-2.7148,-2.7187,-2.7012,-2.7012,-2.7012,-2.7012,-2.7012,-2.7012,-2.7012,-2.7012,-2.6855,-2.6641,-2.6426,-2.6211,-2.5996,-2.5732,-2.5869,-2.6055,-2.6055,-2.5879,-2.5615,-2.543,-2.541,-2.5332,-2.505,-2.4883,-2.4746,-2.4746,-2.4551,-2.4414,-2.4414,-2.4609,-2.4746,-2.4746,-2.4961,-2.4883,-2.4453,-2.5472,-2.614,-2.6239,-2.6956,-2.7585,-2.8171,-2.8688,-2.9248,-2.9804,-2.9804,-2.9804,0.0,0.0,0.0,0.0,0.0,-1.7447,0.0,0.0,0.0,0.0,0.0,0.0,0.0,0.0,0.0,0.0,0.0,0.0,0.0,0.0,0.0,0.0,0.0,0.0,0.0,-1.8247,-1.8656,-1.9121,-1.916,-1.9199,-1.9277,-1.9297,-1.9473,-1.9902,-2.0254,-2.0644,-2.1054,-2.1465,-2.1894,-2.2383,-2.2383,-2.2656,-2.3101,-2.3101,-2.3101,-2.3101,-2.3101,-2.3101,-2.312,-2.3516,-2.3672,-2.373,-2.4316,-2.4766,-2.5125,-2.5204,-2.543,-2.5693,-2.5693,-2.5693,-2.5752,-2.6152,-2.6074,-2.5927,-2.6582,-2.6836,-2.6875,-2.6797,-2.6699,-2.666,-2.6758,-2.6699,-2.6641,-2.6641,-2.6387,-2.6113,-2.6035,-2.5742,-2.544,-2.544,-2.544,-2.546,-2.5586,-2.5557,-2.5449,-2.5019,-2.4988,-2.4805,-2.4473,-2.4355,-2.4297,-2.4297,-2.4219,-2.418,-2.418,-2.4258,-2.4297,-2.4297,-2.4375,-2.4258,-2.3926,-2.4323,-2.4921,-2.5592,-2.5952,-2.6276,-2.6524,-2.7157,-2.8148,-2.9482,-2.9702,-2.9804,0.0,0.0,0.0,0.0,-1.7809,0.0,0.0,0.0,0.0,0.0,0.0,0.0,0.0,0.0,0.0,0.0,0.0,0.0,0.0,0.0,0.0,0.0,0.0,0.0,0.0,0.0,-1.8262,-1.8637,-1.8676,-1.8851,-1.9277,-1.9297,-1.9473,-1.9902,-1.9961,-2.0195,-2.0683,-2.0723,-2.1173,-2.1953,-2.1953,-2.2363,-2.3101,-2.3101,-2.3101,-2.3101,-2.3101,-2.3101,-2.3101,-2.314,-2.3159,-2.3296,-2.4531,-2.5067,-2.5117,-2.5508,-2.5635,-2.5693,-2.5693,-2.5693,-2.5693,-2.5752,-2.6035,-2.625,-2.5927,-2.6152,-2.6387,-2.5947,-2.5605,-2.5391,-2.5781,-2.5586,-2.5341,-2.5341,-2.5302,-2.5117,-2.4727,-2.4609,-2.457,-2.457,-2.457,-2.4687,-2.5078,-2.5184,-2.5,-2.4551,-2.4492,-2.4473,-2.4414,-2.4102,-2.3867,-2.3867,-2.3516,-2.3237,-2.3237,-2.3633,-2.3867,-2.3867,-2.4219,-2.4394,-2.4355,-2.495,-2.5614,-2.6365,-2.5442,-2.5504,-2.6524,-2.563,-2.6232,-2.8307,-2.9326,-2.9804,0.0,0.0,0.0,0.0,0.0,0.0,-1.6027,0.0,-1.608,0.0,0.0,0.0,0.0,0.0,0.0,0.0,0.0,0.0,0.0,0.0,0.0,0.0,0.0,0.0,0.0,0.0,0.0,0.0,-1.8247,-1.8359,-1.8535,-1.8555,-1.873,-1.9124,-1.9414,-1.9766,-2.0176,-2.0468,-2.0879,-2.1504,-2.1758,-2.2207,-2.275,-2.2984,-2.3101,-2.3101,-2.3101,-2.3101,-2.3101,-2.3101,-2.3101,-2.3179,-2.4023,-2.4362,-2.4355,-2.4531,-2.4922,-2.5352,-2.5352,-2.5527,-2.5693,-2.5693,-2.581,-2.5937,-2.5488,-2.5469,-2.5527,-2.5098,-2.4824,-2.4727,-2.4922,-2.4824,-2.4687,-2.4687,-2.4687,-2.4648,-2.4453,-2.4414,-2.4414,-2.4414,-2.4414,-2.4394,-2.4336,-2.4531,-2.4551,-2.4121,-2.4043,-2.3965,-2.3666,-2.3516,-2.3418,-2.3418,-2.3198,-2.3101,-2.3101,-2.3257,-2.3516,-2.3769,-2.3965,-2.4043,-2.4043,-2.4058,-2.4219,-2.4531,-2.4059,-2.4059,-2.451,-2.5378,-2.6254,-2.7197,-2.8307,-2.9145,-1.3629,0.0,0.0,0.0,0.0,0.0,0.0,0.0,0.0,0.0,0.0,0.0,0.0,0.0,0.0,0.0,0.0,0.0,0.0,0.0,0.0,0.0,0.0,0.0,0.0,0.0,0.0,-1.7832,-1.7832,-1.7891,-1.8008,-1.8008,-1.8169,-1.8598,-1.9062,-1.9492,-1.9902,-2.039,-2.0781,-2.121,-2.168,-2.2109,-2.2519,-2.2906,-2.3101,-2.3101,-2.3101,-2.3101,-2.3101,-2.3101,-2.3101,-2.312,-2.3496,-2.3613,-2.3633,-2.3867,-2.4355,-2.4883,-2.4883,-2.5098,-2.5323,-2.5323,-2.5323,-2.5265,-2.5,-2.4883,-2.4824,-2.4512,-2.4336,-2.4277,-2.4394,-2.4336,-2.4238,-2.4238,-2.4238,-2.4219,-2.4082,-2.4017,-2.4017,-2.4017,-2.4017,-2.3965,-2.3672,-2.3965,-2.4102,-2.3672,-2.3613,-2.3496,-2.314,-2.3101,-2.3101,-2.3101,-2.3101,-2.3101,-2.3101,-2.3101,-2.3237,-2.3594,-2.3613,-2.3613,-2.3613,-2.3257,-2.3101,-2.3101,-2.3101,-2.3101,-2.3101,-2.4766,-2.5735,-2.6047,-2.7787,-2.9028,0.0,0.0,0.0,-1.3827,0.0,0.0,0.0,0.0,-1.4363,0.0,0.0,0.0,0.0,0.0,0.0,0.0,0.0,0.0,0.0,0.0,0.0,0.0,0.0,0.0,0.0,0.0,0.0,-1.7396,-1.7402,-1.7578,-1.7988,-1.8008,-1.8169,-1.8598,-1.9062,-1.9492,-1.9902,-2.039,-2.0781,-2.121,-2.168,-2.2109,-2.2519,-2.2906,-2.3101,-2.3101,-2.3101,-2.3101,-2.3101,-2.3101,-2.3101,-2.3101,-2.312,-2.312,-2.3218,-2.4082,-2.4414,-2.4434,-2.4434,-2.4453,-2.4453,-2.4453,-2.4453,-2.4453,-2.4434,-2.4434,-2.4434,-2.4414,-2.4121,-2.3906,-2.4316,-2.4121,-2.3809,-2.3809,-2.3809,-2.3691,-2.3218,-2.314,-2.314,-2.314,-2.314,-2.314,-2.312,-2.3516,-2.3652,-2.3179,-2.312,-2.312,-2.3101,-2.3101,-2.3101,-2.3101,-2.3101,-2.3101,-2.3101,-2.3101,-2.3101,-2.312,-2.312,-2.312,-2.312,-2.3101,-2.3101,-2.3101,-2.3101,-2.3101,-2.3101,-2.3169,-2.3757,-2.4914,-2.8211,-2.974,0.0,0.0,-1.2968,-1.2797,0.0,0.0,0.0,0.0,0.0,0.0,0.0,0.0,0.0,0.0,0.0,0.0,0.0,0.0,0.0,0.0,0.0,0.0,0.0,0.0,0.0,0.0,0.0,-1.6902,-1.7227,-1.7441,-1.7598,-1.7852,-1.8066,-1.8223,-1.8633,-1.889,-1.9026,-1.9785,-2.0215,-2.0371,-2.1113,-2.168,-2.2109,-2.2539,-2.2828,-2.3101,-2.3101,-2.3101,-2.3101,-2.3101,-2.3101,-2.3101,-2.3101,-2.3101,-2.314,-2.3413,-2.375,-2.4043,-2.4316,-2.4414,-2.4414,-2.4414,-2.4414,-2.4355,-2.4082,-2.4004,-2.3945,-2.3608,-2.3413,-2.3354,-2.3491,-2.3413,-2.3359,-2.3359,-2.3359,-2.3276,-2.312,-2.3101,-2.3101,-2.3101,-2.3101,-2.3101,-2.3101,-2.3218,-2.3257,-2.312,-2.3101,-2.3101,-2.3101,-2.3101,-2.3101,-2.3101,-2.3101,-2.3101,-2.3101,-2.3101,-2.3101,-2.3101,-2.3101,-2.3101,-2.3101,-2.3101,-2.3101,-2.3101,-2.3101,-2.3101,-2.3101,-2.3844,-2.4425,-2.4872,-2.7481,-2.8688,-1.2305,-1.2305,0.0,-1.2305,-1.2732,0.0,-1.3208,0.0,0.0,0.0,0.0,0.0,0.0,0.0,0.0,0.0,0.0,0.0,0.0,-1.4213,0.0,0.0,0.0,0.0,0.0,0.0,-1.6297,-1.6484,-1.6758,-1.7083,0.0,0.0,-1.7852,-1.8008,-1.8383,-1.8598,-1.8598,-1.9336,-1.9766,-1.9922,-2.0644,-2.123,-2.168,-2.2246,-2.2656,-2.2886,-2.3042,-2.3101,-2.3101,-2.3101,-2.3101,-2.3101,-2.3101,-2.3101,-2.3101,-2.3101,-2.3276,-2.3594,-2.3867,-2.3919,-2.3919,-2.3919,-2.3919,-2.3906,-2.3633,-2.3555,-2.3535,-2.3398,-2.3218,-2.314,-2.332,-2.3218,-2.3101,-2.3101,-2.3101,-2.3101,-2.3101,-2.3101,-2.3101,-2.3101,-2.3101,-2.3101,-2.3101,-2.3101,-2.3101,-2.3101,-2.3101,-2.3101,-2.3101,-2.3101,-2.3101,-2.3101,-2.3101,-2.3101,-2.3101,-2.3101,-2.3101,-2.3101,-2.3101,-2.3101,-2.3101,-2.3101,-2.3159,-2.3379,-2.3179,-2.3179,-2.3379,-2.3924,-2.4211,-2.4253,-2.6066,-2.693]}]]